[[{"header":{"parameterUnit":"m.s-1","parameterCategory":1,"la1":30.6,"la2":29.2853,"lo1":-89.7004,"lo2":-87.6739,"dy":0.0162,"dx":0.0183,"nx":112,"ny":82,"refTime":"2023-08-26T12:00:00:Z","depth":0,"parameterNumber":2,"parameterNumberName":"U-component_of_WINDS"},"data":[0.0,0.0,0.0,0.0,0.0,0.0,0.0,0.0,0.0,0.0,0.0,0.0,0.0,0.0,0.0,0.0,0.0,0.0,0.0,0.0,0.0,0.0,0.0,0.0,0.0,0.0,0.0,0.0,0.0,0.0,0.0,0.0,0.0,0.0,0.0,0.0,0.0,0.0,0.0,0.0,0.0,0.0,0.0,0.0,0.0,0.0,0.0,0.0,0.0,0.0,0.0,0.0,0.0,0.0,0.0,0.0,0.0,0.0,0.0,0.0,0.0,0.0,0.0,0.0,0.0,0.0,0.0,0.0,0.0,0.0,0.0,0.0,0.0,0.0,0.0,0.0,0.0,0.0,0.0,0.0,0.0,0.0,0.0,0.0,0.0,0.0,0.0,0.0,0.0,0.0,-2.0615,-2.1941,-2.3541,-2.4096,-2.3038,-2.3024,-2.186,-1.8972,0.0,0.0,0.0,0.0,0.0,0.0,0.0,0.0,0.0,0.0,0.0,0.0,0.0,0.0,0.0,0.0,0.0,0.0,0.0,0.0,0.0,0.0,0.0,0.0,0.0,0.0,0.0,0.0,0.0,0.0,0.0,0.0,0.0,0.0,0.0,0.0,0.0,0.0,0.0,0.0,0.0,0.0,0.0,0.0,0.0,0.0,0.0,0.0,0.0,0.0,0.0,0.0,0.0,0.0,0.0,0.0,0.0,0.0,0.0,0.0,0.0,0.0,0.0,0.0,0.0,0.0,0.0,0.0,0.0,0.0,0.0,0.0,0.0,0.0,0.0,0.0,0.0,0.0,0.0,0.0,0.0,0.0,0.0,0.0,0.0,0.0,0.0,0.0,0.0,0.0,0.0,0.0,0.0,0.0,0.0,0.0,0.0,0.0,0.0,0.0,0.0,0.0,0.0,0.0,-2.1128,-2.2748,-2.3373,-2.3437,-2.2797,-2.2906,-2.2184,-2.0234,0.0,0.0,0.0,0.0,0.0,0.0,0.0,0.0,0.0,0.0,0.0,0.0,0.0,0.0,0.0,0.0,0.0,0.0,0.0,0.0,0.0,0.0,0.0,0.0,0.0,0.0,0.0,0.0,0.0,0.0,0.0,0.0,0.0,0.0,0.0,0.0,0.0,0.0,0.0,0.0,0.0,0.0,0.0,0.0,0.0,0.0,0.0,0.0,0.0,0.0,0.0,0.0,0.0,0.0,0.0,0.0,0.0,0.0,0.0,0.0,0.0,0.0,0.0,0.0,0.0,0.0,0.0,0.0,0.0,0.0,0.0,0.0,0.0,0.0,0.0,0.0,0.0,0.0,0.0,0.0,0.0,0.0,0.0,0.0,0.0,0.0,0.0,0.0,0.0,0.0,0.0,0.0,0.0,0.0,0.0,0.0,0.0,0.0,0.0,0.0,0.0,0.0,0.0,-2.0692,-2.1809,-2.3178,-2.3821,-2.3919,-2.3345,-2.3786,-2.3158,-2.0963,-2.0261,0.0,0.0,0.0,0.0,0.0,0.0,0.0,0.0,0.0,0.0,0.0,0.0,0.0,0.0,0.0,0.0,0.0,0.0,0.0,0.0,0.0,0.0,0.0,0.0,0.0,0.0,0.0,0.0,0.0,0.0,0.0,0.0,0.0,0.0,0.0,0.0,0.0,0.0,0.0,0.0,0.0,0.0,0.0,0.0,0.0,0.0,0.0,0.0,0.0,0.0,0.0,0.0,0.0,0.0,0.0,0.0,0.0,0.0,0.0,0.0,0.0,0.0,0.0,0.0,0.0,0.0,0.0,0.0,0.0,0.0,0.0,0.0,0.0,0.0,0.0,0.0,0.0,0.0,0.0,0.0,0.0,0.0,0.0,0.0,0.0,0.0,0.0,0.0,0.0,0.0,0.0,0.0,0.0,0.0,0.0,0.0,0.0,0.0,0.0,0.0,0.0,0.0,-2.1489,-2.2324,-2.3131,-2.4019,-2.4283,-2.3593,-2.4277,-2.3747,-2.1398,-2.1322,0.0,0.0,0.0,0.0,0.0,0.0,0.0,0.0,0.0,0.0,0.0,0.0,0.0,0.0,0.0,0.0,0.0,0.0,0.0,0.0,0.0,0.0,0.0,0.0,0.0,0.0,0.0,0.0,0.0,0.0,0.0,0.0,0.0,0.0,0.0,0.0,0.0,0.0,0.0,0.0,0.0,0.0,0.0,0.0,0.0,0.0,0.0,0.0,0.0,0.0,0.0,0.0,0.0,0.0,0.0,0.0,0.0,0.0,0.0,0.0,0.0,0.0,0.0,0.0,0.0,0.0,0.0,0.0,0.0,0.0,0.0,0.0,0.0,0.0,0.0,0.0,0.0,0.0,0.0,0.0,0.0,0.0,0.0,0.0,0.0,0.0,0.0,0.0,0.0,0.0,0.0,0.0,0.0,0.0,0.0,0.0,0.0,0.0,0.0,0.0,0.0,0.0,-2.1462,-2.2383,-2.238,-2.3437,-2.3766,-2.2863,-2.351,-2.324,-2.1507,-2.1117,0.0,0.0,0.0,0.0,0.0,0.0,0.0,0.0,0.0,0.0,0.0,0.0,0.0,0.0,0.0,0.0,0.0,0.0,0.0,0.0,0.0,0.0,0.0,0.0,0.0,0.0,0.0,0.0,0.0,0.0,0.0,0.0,0.0,0.0,0.0,0.0,0.0,0.0,0.0,0.0,0.0,0.0,0.0,0.0,0.0,0.0,0.0,0.0,0.0,0.0,0.0,0.0,0.0,0.0,0.0,0.0,0.0,0.0,0.0,0.0,0.0,0.0,0.0,0.0,0.0,0.0,0.0,0.0,0.0,0.0,0.0,0.0,0.0,0.0,0.0,0.0,0.0,0.0,0.0,0.0,0.0,0.0,0.0,0.0,0.0,0.0,0.0,0.0,0.0,0.0,0.0,0.0,0.0,0.0,0.0,0.0,0.0,0.0,0.0,0.0,0.0,0.0,-2.1131,-2.2181,-2.2807,-2.3635,-2.4159,-2.4138,-2.453,-2.4078,-2.244,0.0,0.0,0.0,0.0,0.0,0.0,0.0,0.0,0.0,0.0,0.0,0.0,0.0,0.0,0.0,0.0,0.0,0.0,0.0,0.0,0.0,0.0,0.0,0.0,0.0,0.0,0.0,0.0,0.0,0.0,0.0,0.0,0.0,0.0,0.0,0.0,0.0,0.0,0.0,0.0,0.0,0.0,0.0,0.0,0.0,0.0,0.0,0.0,0.0,0.0,0.0,0.0,0.0,0.0,0.0,0.0,0.0,0.0,0.0,0.0,0.0,0.0,0.0,0.0,0.0,0.0,0.0,0.0,0.0,0.0,0.0,0.0,0.0,0.0,0.0,0.0,0.0,0.0,0.0,0.0,0.0,0.0,0.0,0.0,0.0,0.0,0.0,0.0,0.0,0.0,0.0,0.0,0.0,0.0,0.0,0.0,0.0,0.0,0.0,0.0,0.0,0.0,-1.9892,-2.1214,-2.2373,-2.3177,-2.3832,-2.4414,-2.4927,-2.4938,-2.4334,-2.2987,0.0,0.0,0.0,0.0,0.0,0.0,0.0,0.0,0.0,0.0,0.0,0.0,0.0,0.0,0.0,0.0,0.0,0.0,0.0,0.0,0.0,0.0,0.0,0.0,0.0,0.0,0.0,0.0,0.0,0.0,0.0,0.0,0.0,0.0,0.0,0.0,0.0,0.0,0.0,0.0,0.0,0.0,0.0,0.0,0.0,0.0,0.0,0.0,0.0,0.0,0.0,0.0,0.0,0.0,0.0,0.0,0.0,0.0,0.0,0.0,0.0,0.0,0.0,0.0,0.0,0.0,0.0,0.0,0.0,0.0,0.0,0.0,0.0,0.0,0.0,0.0,0.0,0.0,0.0,0.0,0.0,0.0,0.0,0.0,0.0,0.0,0.0,0.0,0.0,0.0,0.0,0.0,0.0,0.0,0.0,0.0,0.0,0.0,0.0,0.0,0.0,0.0,-2.024,-2.1794,-2.2965,-2.3387,-2.3946,-2.4454,-2.4873,-2.4411,-2.3764,0.0,0.0,0.0,0.0,0.0,0.0,0.0,0.0,0.0,0.0,0.0,0.0,0.0,0.0,0.0,0.0,0.0,0.0,0.0,0.0,0.0,0.0,0.0,0.0,0.0,0.0,0.0,0.0,0.0,0.0,0.0,0.0,0.0,0.0,0.0,0.0,0.0,0.0,0.0,0.0,0.0,0.0,0.0,0.0,0.0,0.0,0.0,0.0,0.0,0.0,0.0,0.0,0.0,0.0,0.0,0.0,0.0,0.0,0.0,0.0,0.0,0.0,0.0,0.0,0.0,0.0,0.0,0.0,0.0,0.0,0.0,0.0,0.0,0.0,0.0,0.0,0.0,0.0,0.0,0.0,0.0,0.0,0.0,0.0,0.0,0.0,0.0,0.0,0.0,0.0,0.0,0.0,0.0,0.0,0.0,0.0,0.0,0.0,0.0,0.0,0.0,0.0,0.0,-2.1095,-2.2634,-2.3814,-2.4147,-2.4279,-2.4527,-2.4943,-2.5046,-2.4477,-2.3065,0.0,0.0,0.0,0.0,0.0,0.0,0.0,0.0,0.0,0.0,0.0,0.0,0.0,0.0,0.0,0.0,0.0,0.0,0.0,0.0,0.0,0.0,0.0,0.0,0.0,0.0,0.0,0.0,0.0,0.0,0.0,0.0,0.0,0.0,0.0,0.0,0.0,0.0,0.0,0.0,0.0,0.0,0.0,0.0,0.0,0.0,0.0,0.0,0.0,0.0,0.0,0.0,0.0,0.0,0.0,0.0,0.0,0.0,0.0,0.0,0.0,0.0,0.0,0.0,0.0,0.0,0.0,0.0,0.0,0.0,0.0,0.0,0.0,0.0,0.0,0.0,0.0,0.0,0.0,0.0,0.0,0.0,0.0,0.0,0.0,0.0,0.0,0.0,0.0,0.0,0.0,0.0,0.0,0.0,0.0,0.0,0.0,0.0,0.0,0.0,0.0,0.0,-2.1572,-2.3177,-2.4385,-2.4716,-2.456,-2.461,-2.5022,-2.5305,-2.4898,-2.3567,0.0,0.0,0.0,0.0,0.0,0.0,0.0,0.0,0.0,0.0,0.0,0.0,0.0,0.0,0.0,0.0,0.0,0.0,0.0,0.0,0.0,0.0,0.0,0.0,0.0,0.0,0.0,0.0,0.0,0.0,0.0,0.0,0.0,0.0,0.0,0.0,0.0,0.0,0.0,0.0,0.0,0.0,0.0,0.0,0.0,0.0,0.0,0.0,0.0,0.0,0.0,0.0,0.0,0.0,0.0,0.0,0.0,0.0,0.0,0.0,0.0,0.0,0.0,0.0,0.0,0.0,0.0,0.0,0.0,0.0,0.0,0.0,0.0,0.0,0.0,0.0,0.0,0.0,0.0,0.0,0.0,0.0,0.0,0.0,0.0,0.0,0.0,0.0,0.0,0.0,0.0,0.0,0.0,0.0,0.0,0.0,0.0,0.0,0.0,0.0,0.0,0.0,-2.184,-2.3481,-2.4694,-2.502,-2.4653,-2.4549,-2.4945,-2.5185,-2.4957,-2.4139,0.0,0.0,0.0,0.0,0.0,0.0,0.0,0.0,0.0,0.0,0.0,0.0,0.0,0.0,0.0,0.0,0.0,0.0,0.0,0.0,0.0,0.0,0.0,0.0,0.0,0.0,0.0,0.0,0.0,0.0,0.0,0.0,0.0,0.0,0.0,0.0,0.0,0.0,0.0,0.0,0.0,0.0,0.0,0.0,0.0,0.0,0.0,0.0,0.0,0.0,0.0,0.0,0.0,0.0,0.0,0.0,0.0,0.0,0.0,0.0,-2.2405,-2.1215,0.0,0.0,0.0,0.0,0.0,0.0,0.0,0.0,0.0,0.0,0.0,0.0,0.0,0.0,0.0,0.0,0.0,0.0,0.0,0.0,0.0,0.0,0.0,0.0,0.0,0.0,0.0,0.0,0.0,0.0,0.0,0.0,0.0,0.0,0.0,0.0,0.0,0.0,0.0,0.0,-2.2565,-2.4121,-2.5108,-2.4694,-2.4025,-2.3727,-2.3974,-2.4374,-2.4223,-2.3304,-2.3852,0.0,0.0,0.0,0.0,0.0,0.0,0.0,0.0,0.0,0.0,0.0,0.0,0.0,0.0,0.0,0.0,0.0,0.0,0.0,0.0,0.0,0.0,0.0,0.0,0.0,0.0,0.0,0.0,0.0,0.0,0.0,0.0,0.0,0.0,0.0,0.0,0.0,0.0,0.0,0.0,0.0,0.0,0.0,0.0,0.0,0.0,0.0,0.0,0.0,0.0,0.0,0.0,0.0,0.0,0.0,0.0,0.0,0.0,0.0,-2.5716,-2.5245,0.0,0.0,0.0,0.0,0.0,0.0,0.0,0.0,0.0,0.0,0.0,0.0,0.0,0.0,0.0,0.0,0.0,0.0,0.0,0.0,0.0,0.0,0.0,0.0,0.0,0.0,0.0,0.0,0.0,0.0,0.0,0.0,0.0,0.0,0.0,0.0,0.0,0.0,0.0,0.0,-2.3333,-2.4576,-2.5277,-2.4741,-2.3768,-2.3333,-2.3706,-2.3997,-2.4018,-2.3659,-2.4793,0.0,0.0,0.0,0.0,0.0,0.0,0.0,0.0,0.0,0.0,0.0,0.0,0.0,0.0,0.0,0.0,0.0,0.0,0.0,0.0,0.0,0.0,0.0,0.0,0.0,0.0,0.0,0.0,0.0,0.0,0.0,0.0,0.0,0.0,0.0,0.0,0.0,0.0,0.0,0.0,0.0,0.0,0.0,0.0,0.0,0.0,0.0,0.0,0.0,0.0,0.0,0.0,0.0,-2.6614,-2.7506,-2.7833,-2.8859,-2.9414,-2.9445,-2.8545,-2.9229,-3.0778,-2.9613,0.0,0.0,0.0,0.0,0.0,0.0,0.0,0.0,0.0,0.0,0.0,0.0,0.0,0.0,0.0,0.0,0.0,0.0,0.0,0.0,0.0,0.0,-3.0325,-3.0716,-3.1525,-3.1655,-2.9783,0.0,0.0,0.0,0.0,0.0,0.0,0.0,0.0,0.0,0.0,0.0,-2.4389,-2.5145,-2.5471,-2.4717,-2.3488,-2.2884,-2.3313,-2.3433,-2.3597,-2.3844,-2.5497,-2.6197,0.0,0.0,0.0,0.0,0.0,0.0,0.0,0.0,0.0,0.0,0.0,0.0,0.0,0.0,0.0,0.0,0.0,0.0,0.0,0.0,0.0,0.0,0.0,0.0,0.0,0.0,0.0,0.0,0.0,0.0,0.0,0.0,-0.6029,-0.6252,0.0,0.0,0.0,0.0,0.0,0.0,0.0,0.0,0.0,0.0,0.0,0.0,0.0,-2.1575,-2.4094,-2.5345,-2.6398,-2.7122,-2.831,-2.9163,-2.9746,-2.9893,-3.0225,-3.06,-3.1066,0.0,-3.0059,-2.9659,0.0,0.0,0.0,0.0,0.0,0.0,0.0,0.0,0.0,0.0,0.0,0.0,0.0,0.0,0.0,0.0,0.0,0.0,0.0,0.0,0.0,0.0,-3.2908,-3.2644,-3.2454,-3.2415,-3.2505,-3.181,-3.1053,-3.0615,-3.0671,-3.0544,0.0,0.0,0.0,0.0,0.0,0.0,-2.5984,-2.6339,-2.5948,-2.3912,-2.2685,-2.1896,-2.1557,-2.1767,-2.1973,-2.2119,-2.3769,-2.5323,-2.6626,-2.6909,0.0,0.0,0.0,0.0,0.0,0.0,0.0,0.0,0.0,0.0,0.0,0.0,0.0,0.0,0.0,0.0,0.0,0.0,0.0,0.0,0.0,0.0,0.0,0.0,0.0,0.0,0.0,0.0,0.0,-0.6306,-0.6652,-0.6552,-0.7525,-0.8189,0.0,0.0,0.0,0.0,0.0,0.0,0.0,0.0,0.0,-2.0065,-2.1181,-2.2639,-2.4524,-2.5525,-2.634,-2.6867,-2.768,-2.8502,-2.9341,-2.9508,-2.9995,-3.0687,-3.0911,-3.0881,-3.0703,-3.1081,-3.1494,-3.1824,0.0,0.0,0.0,0.0,-3.3459,-3.3208,-3.3979,-3.4034,-3.3599,-3.2686,0.0,0.0,0.0,0.0,0.0,0.0,0.0,-3.1645,-3.155,-3.1961,-3.2426,-3.2491,-3.2536,-3.2646,-3.2921,-3.2723,-3.253,-3.253,-3.2991,-3.2793,-3.1053,-3.0527,0.0,0.0,0.0,-2.8454,-2.6874,-2.6772,-2.5993,-2.3741,-2.2406,-2.1529,-2.1162,-2.129,-2.1475,-2.1725,-2.3839,-2.5391,-2.6139,-2.7541,-2.8649,0.0,0.0,0.0,0.0,0.0,0.0,0.0,0.0,0.0,0.0,0.0,0.0,0.0,0.0,0.0,0.0,0.0,0.0,0.0,0.0,0.0,0.0,0.0,0.0,0.0,0.0,0.0,0.0,-0.7017,-0.7356,-0.7192,-0.8225,-0.8952,0.0,0.0,0.0,0.0,0.0,0.0,-1.5805,-1.7686,-1.9394,-2.0781,-2.2063,-2.3313,-2.4524,-2.5268,-2.5897,-2.6294,-2.701,-2.7736,-2.857,-2.8911,-2.9507,-3.0236,-3.0041,-3.0431,-3.1185,-3.1672,-3.2555,-3.3584,-3.3944,-3.385,-3.3709,-3.5636,-3.5423,-3.4297,-3.5813,-3.5909,-3.5163,-3.4203,-3.3727,-3.3277,-3.1781,0.0,0.0,0.0,0.0,-3.2032,-3.2161,-3.1814,-3.1437,-3.1434,-3.1764,-3.2117,-3.2343,-3.2673,-3.308,-3.3529,-3.4206,-3.4024,-3.1885,-3.1696,0.0,-2.9648,-2.9657,-2.9368,-2.7973,-2.7198,-2.6038,-2.41,-2.247,-2.141,-2.1145,-2.0974,-2.1012,-2.1324,-2.36,-2.5029,-2.5269,-2.7524,-2.8981,-2.944,0.0,0.0,0.0,0.0,0.0,0.0,0.0,0.0,0.0,0.0,0.0,0.0,0.0,0.0,0.0,0.0,0.0,0.0,0.0,0.0,0.0,0.0,0.0,0.0,0.0,0.0,0.0,0.0,0.0,-0.8711,-0.9331,0.0,0.0,0.0,0.0,-1.3613,-1.4964,-1.6227,-1.7503,-1.8813,-2.0183,-2.1595,-2.2327,-2.3313,-2.4589,-2.5078,-2.5621,-2.6316,-2.6996,-2.7617,-2.8254,-2.8554,-2.8907,-2.9201,-2.9156,-2.9692,-3.0608,-3.0396,-3.1332,-3.2968,-3.3864,-3.4462,-3.4961,-3.6358,-3.6389,-3.5732,-3.6147,-3.5922,-3.5375,-3.5293,-3.4448,-3.3477,-3.3794,-3.3806,0.0,0.0,-3.3537,-3.359,-3.2044,-3.1308,-3.0673,-2.9659,-2.9855,-3.0374,-3.0971,-3.1414,-3.2051,-3.3342,-3.3796,-3.3602,-3.2439,0.0,-3.25,-3.1517,-3.1058,-3.0542,-2.976,-2.7999,-2.6312,-2.5063,-2.2918,-2.1496,-2.1233,-2.0496,-2.0152,-2.0366,-2.2105,-2.3504,-2.4339,-2.6131,-2.7801,-2.9274,-3.0336,0.0,0.0,0.0,0.0,0.0,0.0,0.0,0.0,0.0,0.0,0.0,0.0,0.0,0.0,0.0,0.0,0.0,0.0,0.0,0.0,0.0,0.0,0.0,0.0,0.0,0.0,0.0,0.0,-0.8949,-0.9721,0.0,-1.0666,-1.1941,-1.3035,-1.3775,-1.5394,-1.6634,-1.7423,-1.838,-1.9555,-2.1153,-2.0904,-2.1486,-2.2958,-2.2896,-2.3058,-2.3519,-2.4129,-2.5149,-2.6456,-2.6818,-2.7662,-2.8805,-2.8655,-2.9104,-2.9888,-2.9945,-3.143,-3.3817,-3.4358,-3.5058,-3.5774,-3.6062,-3.5655,-3.4978,-3.5225,-3.4729,-3.3958,-3.3851,-3.3653,-3.3505,-3.3271,-3.3256,-3.3223,-3.2689,-3.2287,-3.1792,-3.0669,-2.9756,-2.8926,-2.8282,-2.842,-2.8787,-2.9193,-2.9243,-2.9449,-3.018,-3.1526,-3.2338,-3.1693,-3.1759,-3.1526,-3.0526,-3.0306,-2.9877,-2.8785,-2.7272,-2.568,-2.407,-2.2409,-2.1241,-2.0854,-2.0238,-2.0212,-2.1015,-2.2233,-2.3369,-2.4323,-2.6014,-2.7478,-2.8628,-3.0025,-3.1131,0.0,0.0,0.0,0.0,0.0,0.0,0.0,0.0,0.0,0.0,0.0,0.0,0.0,0.0,0.0,0.0,0.0,0.0,0.0,0.0,0.0,0.0,0.0,0.0,0.0,-0.8649,-0.9074,-0.946,-1.0366,-1.0907,-1.1067,-1.2433,-1.3522,-1.3943,-1.5411,-1.6545,-1.7035,-1.7666,-1.8607,-1.9868,-1.9565,-2.0029,-2.128,-2.1031,-2.1244,-2.1882,-2.2348,-2.3339,-2.475,-2.5087,-2.6079,-2.765,-2.7466,-2.8091,-2.9267,-2.95,-3.0947,-3.3124,-3.3673,-3.4318,-3.4876,-3.4702,-3.4149,-3.3507,-3.3662,-3.3189,-3.253,-3.2436,-3.2646,-3.2863,-3.2557,-3.25,-3.2446,-3.1778,-3.1057,-3.0245,-2.9095,-2.8217,-2.7539,-2.7001,-2.7313,-2.7701,-2.7644,-2.7578,-2.7595,-2.7855,-2.9417,-3.0564,-3.0118,-3.0319,-3.0264,-2.9393,-2.9244,-2.8859,-2.7794,-2.6453,-2.5142,-2.385,-2.2203,-2.1261,-2.1461,-2.0669,-2.0674,-2.186,-2.2817,-2.3641,-2.431,-2.5726,-2.6889,-2.7731,-2.9666,-3.1523,-3.328,0.0,0.0,0.0,0.0,0.0,0.0,0.0,0.0,0.0,0.0,0.0,0.0,0.0,0.0,0.0,0.0,0.0,0.0,0.0,0.0,0.0,0.0,0.0,-0.8832,-0.9354,-0.9794,-1.0258,-1.1096,-1.173,-1.1888,-1.3118,-1.3944,-1.4183,-1.5133,-1.5868,-1.6258,-1.6888,-1.7502,-1.7996,-1.8512,-1.9063,-1.9678,-1.9691,-2.0306,-2.164,-2.1873,-2.243,-2.3294,-2.363,-2.4413,-2.5662,-2.5662,-2.6835,-2.8792,-2.9068,-2.9689,-3.0623,-3.1663,-3.2167,-3.2285,-3.2323,-3.2026,-3.163,-3.171,-3.1502,-3.1209,-3.1308,-3.147,-3.1598,-3.1835,-3.1725,-3.134,-3.0516,-2.9962,-2.9173,-2.7441,-2.6869,-2.6564,-2.5863,-2.6467,-2.7038,-2.6412,-2.6488,-2.6708,-2.6691,-2.7576,-2.8191,-2.7785,-2.8415,-2.8822,-2.8394,-2.8087,0.0,-2.699,-2.5712,-2.4743,-2.4466,-2.2398,-2.162,-2.3052,-2.1821,-2.149,-2.2756,-2.3671,-2.4205,-2.4283,-2.5236,-2.61,-2.6826,-2.9401,-3.24,-3.5774,0.0,0.0,0.0,0.0,0.0,0.0,0.0,0.0,0.0,0.0,0.0,0.0,0.0,0.0,0.0,0.0,0.0,0.0,0.0,0.0,0.0,-0.8556,-0.9043,-0.9144,-0.9558,-0.9962,-1.0273,-1.0958,-1.1626,-1.203,-1.3174,-1.3881,-1.4053,-1.507,-1.5653,-1.5652,-1.6033,-1.6869,-1.8291,-1.7882,-1.8203,-1.9491,-1.9183,-1.9377,-2.0023,-2.1038,-2.2141,-2.3319,-2.4243,-2.5313,-2.6489,-2.6799,-2.7399,-2.8247,-2.8511,-2.8814,-2.9288,-3.082,-3.1541,-3.1788,-3.1575,-3.1415,-3.1291,-3.1178,-3.1182,-3.11,-3.058,-3.0475,-3.0497,-2.9972,-2.956,-2.9131,-2.8404,-2.7791,-2.7112,-2.6275,-2.5934,-2.5696,-2.524,-2.5292,-2.5431,-2.5234,-2.4738,-2.4377,-2.4462,-2.474,-2.5168,-2.594,-2.6319,-2.6438,-2.6267,-2.6049,-2.5715,-2.5186,-2.4132,-2.3418,-2.3344,-2.2371,-2.2049,-2.2831,-2.226,-2.2306,-2.3456,-2.3726,-2.4482,-2.5952,-2.6707,-2.8028,-3.0076,-3.2241,-3.3981,0.0,0.0,0.0,0.0,0.0,0.0,0.0,0.0,0.0,0.0,0.0,0.0,0.0,0.0,0.0,0.0,0.0,0.0,0.0,0.0,0.0,0.0,-0.9049,-0.9444,-0.943,-0.9867,-1.02,-1.0283,-1.0896,-1.1433,-1.1702,-1.2588,-1.3191,-1.3215,-1.4126,-1.4679,-1.471,-1.5139,-1.5908,-1.7059,-1.6738,-1.7151,-1.8373,-1.8199,-1.8548,-1.9303,-2.019,-2.1082,-2.2058,-2.313,-2.4309,-2.5526,-2.611,-2.6835,-2.7545,-2.7775,-2.7773,-2.7738,0.0,0.0,0.0,0.0,-3.0162,-3.0147,-3.0005,-3.0006,-2.9939,-2.9405,-2.9215,-2.9045,-2.8522,-2.8076,-2.7522,-2.6809,-2.6088,-2.5381,-2.4823,-2.4729,-2.47,-2.4585,-2.4643,-2.458,-2.4145,-2.3545,-2.2995,-2.2537,-2.2522,0.0,-2.3619,-2.4363,-2.4796,-2.4663,-2.4562,-2.4282,-2.3779,-2.3124,-2.2637,-2.2586,-2.2037,-2.2099,-2.3077,-2.2771,0.0,0.0,0.0,-2.549,-2.7422,-2.8121,0.0,0.0,0.0,-3.3728,-3.5299,-3.6542,0.0,0.0,-4.0883,-4.2495,0.0,0.0,0.0,0.0,0.0,0.0,0.0,0.0,0.0,0.0,0.0,0.0,0.0,0.0,0.0,0.0,-0.9168,-0.949,-0.9703,-1.0094,-1.0397,-1.0243,-1.0816,-1.1117,-1.0986,-1.171,-1.2141,-1.2159,-1.278,-1.3309,-1.3666,-1.4191,0.0,0.0,0.0,-1.5971,-1.6794,-1.7103,-1.7827,-1.9089,-1.9537,-2.0002,-2.045,-2.1432,-2.2582,-2.3794,-2.4624,-2.5606,-2.6696,-2.6894,-2.6606,-2.6219,-2.7463,-2.814,-2.8429,-2.8576,-2.867,-2.8685,-2.8592,0.0,0.0,-2.822,-2.7905,-2.7502,-2.7395,-2.6976,-2.6321,-2.5459,-2.4724,-2.3999,-2.3409,-2.3491,-2.3793,-2.3923,-2.4163,-2.4123,-2.3131,-2.2665,-2.2118,-2.099,-2.0911,-2.1054,-2.1173,-2.2554,-2.3605,-2.3473,-2.344,-2.3244,-2.278,-2.2475,-2.2228,-2.2106,-2.1579,0.0,-2.3318,-2.3065,-2.3197,-2.4046,-2.5236,-2.6688,-2.8422,-2.9391,-3.0677,-3.2352,-3.1732,-3.2824,-3.5719,-3.6061,-3.7577,-4.0198,-4.1425,-4.3265,0.0,0.0,0.0,0.0,0.0,0.0,0.0,0.0,0.0,0.0,0.0,0.0,0.0,0.0,0.0,-0.8492,-0.9231,-0.9627,-0.9399,-0.9584,-0.9841,-0.9998,-1.0413,-1.0775,-1.0997,-1.1384,-1.1771,-1.2,-1.2302,-1.2618,-1.2915,-1.3125,-1.3617,-1.4375,-1.4656,-1.5139,-1.5785,-1.6724,-1.7653,-1.8503,-2.0076,0.0,-2.169,-2.278,-2.3557,-2.4061,-2.4555,-2.5032,-2.5458,-2.5507,-2.553,-2.5697,-2.6991,-2.7983,-2.8638,-2.8308,-2.8341,-2.8481,-2.7938,-2.7581,-2.7515,-2.8163,-2.7455,-2.6382,-2.6638,-2.6041,0.0,-2.3984,-2.3442,-2.3198,-2.2955,-2.3247,-2.3546,-2.3608,-2.3427,-2.306,-2.2428,-2.1559,-2.0763,-2.0115,-1.9941,-1.9783,-1.9395,-2.091,-2.2272,-2.2438,-2.2434,-2.2308,-2.2102,-2.1767,-2.1718,-2.1969,-2.13,-2.1122,-2.1855,-2.2139,-2.2278,-2.2316,-2.4622,-2.6536,-2.773,-2.9948,-3.1691,-3.2842,-3.3499,-3.4465,-3.5787,-3.6989,-3.8199,-3.9374,-4.1053,-4.2949,0.0,0.0,0.0,0.0,0.0,0.0,0.0,0.0,0.0,0.0,0.0,-0.6973,-0.7206,0.0,-0.8254,-0.8407,-0.8983,-0.9291,-0.8925,-0.9063,-0.931,-0.9546,-0.9834,-1.0109,-1.0311,-1.0564,-1.0868,-1.1262,-1.1226,-1.1526,-1.2225,-1.2312,-1.2726,-1.3619,-1.4077,-1.4513,-1.4934,-1.6168,-1.6909,-1.7307,-1.9312,-2.0283,-2.0423,-2.19,-2.2753,-2.3045,-2.3719,-2.4226,-2.4476,-2.4146,-2.4384,-2.5014,-2.5476,-2.6365,-2.7319,-2.7117,-2.6995,-2.6914,-2.6579,-2.6347,-2.6329,-2.6756,-2.6289,-2.5664,-2.5854,-2.5017,-2.3857,-2.305,-2.2265,-2.1555,-2.1289,-2.1929,-2.2608,-2.2187,-2.2465,-2.2566,-2.1717,-2.0911,-2.0218,-1.9706,-1.958,-1.9492,-1.9271,-1.9957,-2.0724,-2.1205,-2.116,-2.1187,-2.1612,-2.1324,-2.1214,-2.1521,-2.0741,-2.0525,-2.1343,-2.1687,-2.2012,-2.2442,-2.4814,-2.6631,-2.7676,-2.9572,-3.0966,-3.1715,-3.2342,-3.3041,-3.3864,-3.5577,-3.6827,-3.7633,-3.9157,-4.1088,0.0,0.0,0.0,0.0,0.0,0.0,0.0,-0.565,-0.5796,-0.6487,-0.6716,-0.6914,-0.7192,-0.7601,-0.7885,-0.8052,-0.8375,-0.8539,-0.8182,-0.8384,-0.8632,-0.8802,-0.9125,-0.9439,-0.9455,-0.9621,-0.9893,-1.0265,-1.0002,-1.0253,-1.124,-1.1275,-1.1619,-1.2405,-1.2958,-1.3413,-1.3844,-1.5112,-1.5832,-1.6065,-1.8001,-1.8804,-1.8561,-2.0284,-2.1197,-2.1515,-2.2474,-2.3053,-2.3294,-2.2768,-2.3098,-2.3963,-2.3626,-2.4212,-2.5287,-2.5575,-2.5526,-2.529,-2.5109,-2.4985,-2.4919,-2.507,-2.4985,-2.4771,-2.4756,-2.3864,-2.2768,-2.2129,-2.1072,-2.0098,-1.9715,-2.0596,-2.1398,-2.0828,-2.1491,-2.1982,-2.0959,-2.036,-1.9793,-1.9236,-1.9119,-1.9154,-1.9135,-1.9,-1.9263,-2.04,-2.0289,-2.039,-2.1289,-2.1039,-2.0747,-2.0782,-1.9892,-1.9704,-2.0635,-2.0868,-2.1434,-2.261,-2.4628,-2.6137,-2.697,-2.8442,-2.9534,-3.0093,-3.0474,-3.1087,-3.1857,-3.3588,-3.4892,-3.5761,-3.6745,-3.8636,-0.2864,-0.3597,-0.4264,-0.4725,-0.4954,-0.5187,0.0,-0.5533,-0.5565,-0.5676,-0.5912,-0.6095,-0.6103,-0.6669,-0.7115,-0.6804,-0.7126,-0.7296,-0.6999,-0.7151,-0.73,-0.7305,-0.812,-0.8725,-0.8875,-0.8845,-0.892,-0.9097,-0.8916,-0.8947,-0.9386,-0.9338,-0.9541,-0.9996,-1.0331,-1.0962,-1.1912,-1.3178,-1.4253,-1.5165,-1.666,-1.7545,-1.7931,-1.9003,-1.9664,-2.007,-2.0657,-2.1043,-2.1341,-2.1211,-2.1629,-2.2286,-2.2122,-2.2236,-2.2694,-2.4024,-2.4705,-2.4849,-2.398,-2.354,-2.3433,-2.4035,-2.3793,-2.3186,-2.2826,-2.2586,-2.2108,-2.0405,-1.9826,-1.9672,-1.9767,-1.9969,-2.0289,-2.0639,-2.0646,-2.0436,-2.0023,-1.9516,-1.8941,-1.8296,-1.8021,-1.7727,-1.7135,-1.7213,-1.8197,-2.0733,-2.0701,-2.06,-2.1319,-2.0958,-2.0348,-1.9652,-1.859,-1.8118,-1.8602,-1.8612,-1.9302,-2.1039,-2.2735,-2.3803,-2.4139,-2.6489,-2.8026,-2.8605,-2.9699,-3.0775,-3.1708,-3.2681,-3.3599,-3.4479,-3.4563,-3.6207,-0.2559,-0.3254,-0.374,-0.404,-0.4252,-0.439,-0.4762,-0.4762,-0.4859,-0.5105,-0.5291,-0.5337,-0.5491,-0.5666,-0.5938,-0.598,-0.6045,-0.6204,-0.6212,-0.6401,-0.6567,-0.6452,-0.7032,-0.7619,-0.8095,-0.8078,-0.8121,-0.8251,-0.7828,-0.7808,-0.8435,-0.8375,-0.8549,-0.9098,-0.9574,-1.006,-1.0611,-1.178,-1.2641,-1.3314,-1.4855,-1.5864,-1.6419,-1.7484,-1.8371,-1.9136,-1.9404,-1.959,-1.9664,-2.0114,-2.0452,-2.0718,-2.1226,-2.1492,-2.1684,-2.2676,-2.3055,-2.2983,-2.2366,-2.2187,-2.2242,-2.238,-2.2236,-2.2001,-2.166,-2.114,-2.0466,-1.9349,-1.8769,-1.848,-1.8398,-1.8769,-1.914,-1.899,-1.9174,-1.9353,-1.9113,-1.864,-1.826,-1.8138,-1.7838,-1.7431,-1.6979,-1.6642,-1.7019,-1.8592,-1.9201,-1.9798,-2.0686,-2.0165,-1.9176,-1.7678,-1.7751,-1.7592,-1.6862,-1.7782,-1.8592,-1.9082,-2.085,-2.1932,-2.2092,-2.3701,-2.5212,-2.6428,-2.7209,-2.8013,-2.8934,-3.0369,-3.1435,-3.2144,-3.2756,-3.4037,-0.1997,-0.2582,-0.3015,-0.3463,-0.3577,-0.3709,-0.4051,-0.4234,-0.4225,-0.454,-0.4614,-0.4554,-0.4697,-0.4762,-0.4831,-0.5046,-0.506,-0.5165,-0.541,-0.5699,-0.5876,-0.5781,-0.6128,-0.6583,-0.6998,-0.713,-0.7274,-0.7332,-0.6882,-0.6854,-0.7478,-0.7468,-0.7664,-0.8137,-0.8648,-0.9099,-0.9502,-1.0343,-1.104,-1.1683,-1.305,-1.4052,-1.4715,-1.612,-1.7171,-1.7867,-1.8056,-1.8103,-1.8141,-1.87,-1.8974,-1.9073,-1.9943,-2.0213,-2.0263,-2.0686,-2.1145,-2.1417,-2.0806,-2.0811,-2.1028,-2.0758,-2.0813,-2.0865,-2.012,-1.948,-1.8879,-1.8131,-1.756,-1.7201,-1.7144,-1.7587,-1.7898,-1.75,-1.7783,-1.8165,-1.8043,-1.7747,-1.7558,-1.7679,-1.7434,-1.7047,-1.674,-1.6287,-1.6138,-1.6638,-1.7361,-1.8267,-1.9491,-1.8861,-1.7697,-1.6019,-1.6617,-1.6692,-1.5517,-1.6859,-1.7692,-1.7461,-1.9099,-2.0147,-2.0359,-2.1389,-2.2672,-2.4172,-2.4842,-2.5551,-2.6165,-2.7971,-2.93,-3.017,-3.0959,-3.1951,-0.1086,-0.1599,-0.2298,-0.2841,-0.3139,-0.3448,-0.3784,-0.3912,-0.3912,-0.3915,-0.3915,-0.3868,-0.3714,-0.3859,-0.398,-0.3904,-0.4129,-0.4387,-0.4629,-0.4851,-0.5073,-0.5186,-0.5581,-0.5689,-0.5371,-0.5901,-0.6226,-0.6134,-0.6065,-0.6102,-0.6263,-0.6379,-0.6465,-0.6544,-0.6921,-0.7567,-0.854,-0.8751,-0.9454,-1.0561,-1.1398,-1.2178,-1.2972,-1.5023,-1.5935,-1.6025,-1.6389,-1.6627,-1.6764,-1.6776,-1.6936,-1.7228,-1.7713,-1.7824,-1.7681,-1.7641,-1.9006,-2.0667,-1.9382,-1.9359,-1.9762,-1.9395,-1.9568,-1.9627,-1.7847,-1.7632,-1.7713,-1.6523,-1.6058,-1.6046,-1.6411,-1.6552,-1.657,-1.6629,-1.6659,-1.6689,-1.6828,-1.6828,-1.6756,-1.6595,-1.6466,-1.6225,-1.5876,-1.5872,-1.5855,-1.5745,-1.5552,-1.5973,-1.7583,-1.6974,-1.6008,-1.5061,-1.4984,-1.49,-1.4742,-1.5504,-1.6172,-1.6589,-1.7505,-1.8276,-1.8945,-2.0027,-2.1077,-2.1968,-2.3289,-2.4091,-2.4376,-2.5888,-2.7436,-2.907,-2.9139,-3.0088,-0.1019,-0.1367,-0.1652,-0.2178,-0.255,-0.2773,-0.2943,-0.2931,-0.2924,-0.3007,-0.281,-0.2782,-0.2872,-0.2838,-0.2869,-0.3207,-0.3215,-0.3392,-0.3974,-0.4115,-0.423,-0.4455,-0.458,-0.4537,-0.4455,-0.5233,-0.5699,-0.5655,-0.5634,-0.5684,-0.5646,-0.5816,-0.5919,-0.5981,-0.6299,-0.6737,-0.7296,-0.7713,-0.8349,-0.9189,-1.0554,-1.1592,-1.2282,-1.3344,-1.4062,-1.4376,-1.4414,-1.451,-1.4677,-1.5333,-1.5503,-1.557,-1.6803,-1.6991,-1.665,-1.6699,-1.7322,-1.8045,-1.7284,-1.7364,-1.7771,-1.749,-1.7424,-1.7227,-1.6432,-1.6293,-1.6223,-1.54,-1.532,-1.5511,-1.5534,-1.5433,-1.532,-1.532,-1.5174,-1.5073,-1.5407,-1.5431,-1.5443,-1.5487,-1.5365,-1.5107,-1.4641,-1.4307,-1.3882,-1.3252,-1.426,-1.5107,-1.5254,-1.4822,-1.4213,-1.3474,-1.3636,-1.3657,-1.3233,-1.3893,-1.4312,-1.4202,-1.4887,-1.5508,-1.5945,-1.716,-1.8654,-2.049,-2.1331,-2.2304,-2.3443,-2.3663,-2.45,-2.5904,-2.5788,-2.6986,-0.0453,-0.077,-0.1099,-0.1741,-0.2018,-0.2231,-0.2366,-0.245,-0.2374,-0.2268,-0.2094,-0.2002,-0.2015,-0.2007,-0.2065,-0.2418,-0.246,-0.2653,-0.3265,-0.336,-0.3434,-0.3676,-0.3691,-0.3641,-0.3538,-0.4303,-0.4848,-0.5089,-0.512,-0.517,-0.5173,-0.532,-0.5399,-0.5444,-0.5674,-0.5985,-0.6337,-0.6687,-0.7311,-0.8128,-0.9476,-1.0384,-1.091,-1.1652,-1.2145,-1.2406,-1.2551,-1.2628,-1.2706,-1.3361,-1.3521,-1.3432,-1.4759,-1.5028,-1.4727,-1.4917,-1.5134,-1.5351,-1.5539,-1.599,-1.6362,-1.5775,-1.5443,-1.5241,-1.4858,-1.4631,-1.4459,-1.4168,-1.4179,-1.4272,-1.434,-1.4143,-1.3888,-1.3888,-1.3663,-1.3521,-1.381,-1.3914,-1.3971,-1.4136,-1.4007,-1.3726,-1.3243,-1.2473,-1.1612,-1.0814,-1.1504,-1.231,-1.273,-1.2598,-1.2168,-1.142,-1.1764,-1.1805,-1.1172,-1.1906,-1.2244,-1.1939,-1.2406,-1.2941,-1.3663,-1.4553,-1.5994,-1.8093,-1.9041,-1.998,-2.1008,-2.1295,-2.1987,-2.2995,-2.3008,-2.4092,0.0524,0.0148,-0.0513,-0.135,-0.1616,-0.1735,-0.2177,-0.2308,-0.218,-0.1764,-0.1624,-0.1553,-0.1354,-0.1459,-0.163,-0.156,-0.1873,-0.2242,-0.2441,-0.2646,-0.2743,-0.2819,-0.2938,-0.2904,-0.2693,-0.3142,-0.3663,-0.436,-0.4509,-0.461,-0.4741,-0.4857,-0.4934,-0.4963,-0.5063,-0.5266,-0.5669,-0.575,-0.6302,-0.7372,-0.8045,-0.8565,-0.885,-0.9951,-1.0326,-1.0148,-1.0772,-1.0981,-1.0855,-1.1007,-1.1007,-1.0939,-1.1705,-1.1931,-1.1974,-1.2373,-1.2474,-1.2668,-1.4038,-1.5024,-1.5446,-1.4165,-1.3721,-1.3601,-1.3027,-1.2715,-1.258,-1.2803,-1.2609,-1.2414,-1.2764,-1.2609,-1.2316,-1.2307,-1.211,-1.1913,-1.2061,-1.2288,-1.2464,-1.2415,-1.2308,-1.2064,-1.1661,-1.0394,-0.9172,-0.8443,-0.7594,-0.7868,-1.0142,-1.0258,-0.9815,-0.8945,-0.9334,-0.9418,-0.8704,-0.9479,-0.9987,-0.9827,-0.9985,-1.0635,-1.1928,-1.2295,-1.325,-1.4946,-1.64,-1.7239,-1.735,-1.8713,-1.9713,-2.032,-2.0621,-2.1385,0.07,0.0284,-0.0073,-0.0502,-0.0814,-0.1072,-0.1463,-0.1415,-0.1292,-0.1419,-0.1183,-0.0942,-0.0878,-0.0886,-0.097,-0.0858,-0.1096,-0.1396,-0.172,-0.1732,-0.1891,-0.2181,-0.1927,-0.1897,-0.2288,-0.2204,-0.2351,-0.2937,-0.35,-0.3869,-0.4034,-0.3984,-0.4182,-0.4601,-0.482,-0.5026,-0.5193,-0.5262,-0.5733,-0.6606,-0.6887,-0.7267,-0.7815,-0.8293,-0.8629,-0.881,-0.8833,-0.8971,-0.9127,-0.9179,-0.9186,-0.9228,-0.9938,-0.9962,-0.9686,-1.06,-1.0689,-1.0407,-1.0675,-1.1479,-1.2228,-1.1609,-1.1352,-1.1276,-1.1314,-1.1347,-1.1364,-1.1197,-1.1223,-1.1308,-1.124,-1.1149,-1.1007,-1.0788,-1.0637,-1.0434,-1.0289,-1.0383,-1.0418,-1.0074,-0.9533,-0.9013,-0.8612,-0.7887,-0.71,-0.6255,-0.5608,-0.5914,-0.7693,-0.7319,-0.6887,-0.6911,-0.6794,-0.668,-0.663,-0.7086,-0.7446,-0.7511,-0.7892,-0.8316,-0.8803,-0.9756,-1.11,-1.2983,-1.3623,-1.4662,-1.6255,-1.5835,-1.5922,-1.6533,-1.6289,-1.7018,0.126,0.0918,0.0498,0.0069,-0.0143,-0.0372,-0.0745,-0.0612,-0.0396,-0.0493,-0.0334,-0.0085,-0.0088,-0.0178,-0.0178,-0.0174,-0.0431,-0.0754,-0.087,-0.0987,-0.1097,-0.1338,-0.1162,-0.1144,-0.1347,-0.1413,-0.1537,-0.1644,-0.2488,-0.3112,-0.3147,-0.3093,-0.3157,-0.34,-0.3559,-0.3767,-0.3965,-0.4195,-0.4513,-0.4936,-0.5307,-0.5562,-0.5681,-0.6221,-0.6524,-0.665,-0.6759,-0.6854,-0.7009,-0.7116,-0.7121,-0.7143,-0.7464,-0.7498,-0.7433,-0.8038,-0.8218,-0.811,-0.795,-0.8295,-0.882,-0.9295,-0.9425,-0.935,-0.945,-0.9513,-0.9552,-0.9445,-0.9458,-0.9499,-0.9363,-0.9166,-0.8971,-0.8835,-0.8711,-0.8561,-0.8305,-0.841,-0.8285,-0.7723,-0.7067,-0.6425,-0.5909,-0.5375,-0.4674,-0.3862,-0.3413,-0.3271,-0.3752,-0.4157,-0.4369,-0.4333,-0.4216,-0.4194,-0.4332,-0.4699,-0.4961,-0.525,-0.5574,-0.5872,-0.6298,-0.6997,-0.8163,-0.9904,-1.0583,-1.1621,-1.3075,-1.2885,-1.2818,-1.2891,-1.2977,-1.3484,0.2163,0.1781,0.1254,0.068,0.0492,0.0365,0.0,0.0228,0.0474,0.0488,0.0663,0.0847,0.0783,0.0621,0.0535,0.0614,0.0174,-0.0085,0.0,-0.0232,-0.0373,-0.0423,-0.0548,-0.054,-0.027,-0.074,-0.0874,-0.047,-0.1504,-0.2136,-0.2203,-0.2131,-0.2057,-0.1928,-0.1963,-0.2188,-0.2626,-0.286,-0.2992,-0.3072,-0.3639,-0.3711,-0.338,-0.4071,-0.4287,-0.4239,-0.453,-0.47,-0.4754,-0.4973,-0.5042,-0.4901,-0.4776,-0.4874,-0.5096,-0.5121,-0.5322,-0.5645,-0.5549,-0.5431,-0.552,-0.705,-0.7575,-0.7474,-0.7431,-0.7311,-0.7319,-0.7495,-0.7356,-0.72,-0.722,-0.6939,-0.6651,-0.6604,-0.6514,-0.6356,-0.6196,-0.6137,-0.5946,-0.5337,-0.4696,-0.4058,-0.3445,-0.2796,-0.2191,-0.1462,-0.0981,-0.0412,0.0529,-0.0999,-0.1944,-0.1598,-0.1616,-0.1732,-0.1866,-0.2172,-0.2534,-0.2937,-0.3004,-0.3334,-0.3926,-0.4188,-0.5036,-0.6391,-0.7453,-0.8282,-0.8944,-0.9821,-1.001,-0.9574,-1.0107,-1.0336,0.2992,0.2528,0.2096,0.1947,0.1708,0.1392,0.1121,0.1305,0.1508,0.0994,0.1257,0.1447,0.1329,0.1253,0.1254,0.1518,0.1319,0.1026,0.0896,0.0872,0.0608,0.0212,0.0279,0.0276,0.0,0.0067,0.0134,-0.0067,-0.0196,-0.064,-0.1522,-0.1293,-0.1298,-0.1666,-0.1662,-0.1859,-0.2185,-0.1838,-0.1857,-0.227,-0.2309,-0.2391,-0.2569,-0.254,-0.2638,-0.2808,-0.2601,-0.2607,-0.2717,-0.2885,-0.2932,-0.2892,-0.289,-0.2651,-0.231,-0.2631,-0.267,-0.269,-0.2956,-0.2977,-0.3209,-0.4836,-0.5175,-0.492,-0.478,-0.4886,-0.4963,-0.464,-0.4844,-0.5144,-0.4947,-0.4908,-0.484,-0.4582,-0.442,-0.4183,-0.3771,-0.3175,-0.2718,-0.2637,-0.1971,-0.1312,-0.0988,-0.0296,0.0361,0.0902,0.1512,0.2125,0.2853,0.1457,0.0491,0.088,0.0955,0.0906,0.0662,0.0532,0.0334,0.0067,-0.0333,-0.0733,-0.1,-0.1731,-0.2691,-0.3925,-0.4104,-0.4931,-0.6526,-0.6173,-0.6249,-0.663,-0.6718,-0.6946,0.3619,0.325,0.2844,0.2597,0.2429,0.2274,0.1954,0.2234,0.2377,0.1969,0.2001,0.2123,0.193,0.187,0.1788,0.1769,0.1678,0.1567,0.1417,0.1299,0.118,0.1047,0.1018,0.092,0.0757,0.0824,0.082,0.0673,0.073,0.0458,-0.0387,-0.0247,-0.0294,-0.0561,-0.0441,-0.0536,-0.0827,-0.0569,-0.0461,-0.0502,-0.0614,-0.063,-0.0489,-0.0543,-0.0657,-0.0835,-0.0779,-0.0835,-0.0948,-0.0965,-0.0923,-0.0879,-0.0535,-0.0366,-0.0314,-0.0319,-0.0388,-0.0525,-0.0666,-0.0669,-0.0731,-0.1484,-0.2365,-0.3126,-0.2765,-0.281,-0.2915,-0.2532,-0.2536,-0.2613,-0.2451,-0.2416,-0.2383,-0.2071,-0.195,-0.1891,-0.171,-0.1223,-0.0667,-0.0354,0.03,0.0915,0.1321,0.188,0.2509,0.2995,0.3347,0.3817,0.4686,0.4116,0.345,0.2939,0.3047,0.3025,0.2732,0.2732,0.2598,0.2199,0.1998,0.1797,0.1534,0.0933,0.027,-0.0484,-0.1066,-0.1748,-0.2607,-0.2677,-0.2945,-0.3332,-0.3565,-0.3953,0.4499,0.4128,0.3792,0.3361,0.3253,0.3172,0.2935,0.3083,0.3235,0.2813,0.2794,0.2775,0.2579,0.2538,0.238,0.2176,0.2203,0.2113,0.2041,0.1919,0.1875,0.1968,0.1895,0.1752,0.1618,0.1541,0.1524,0.1482,0.1546,0.1395,0.084,0.0864,0.0888,0.0916,0.108,0.1059,0.0806,0.0913,0.107,0.1326,0.1067,0.114,0.156,0.1395,0.1228,0.1061,0.0949,0.0893,0.0839,0.0868,0.1001,0.1188,0.1713,0.1829,0.1618,0.1748,0.1642,0.1474,0.1405,0.154,0.1675,0.1675,0.0267,-0.1264,-0.0911,-0.0905,-0.0964,-0.0499,-0.0314,-0.0191,0.0062,0.0126,0.0191,0.05,0.0561,0.0499,0.0372,0.0684,0.1121,0.166,0.2295,0.2873,0.3285,0.3853,0.4368,0.48,0.5084,0.5537,0.6366,0.6686,0.6392,0.5414,0.5185,0.4992,0.4728,0.4857,0.4722,0.4326,0.4287,0.4169,0.3904,0.3524,0.3094,0.2669,0.1726,0.1177,0.0976,0.0461,0.0078,-0.0156,-0.0544,-0.1011,0.623,0.5642,0.5032,0.4944,0.4502,0.4138,0.4072,0.4004,0.3845,0.3458,0.3365,0.3364,0.3273,0.3207,0.3231,0.329,0.3306,0.3304,0.3117,0.3371,0.3461,0.2849,0.3124,0.3109,0.226,0.2522,0.2562,0.2158,0.242,0.2389,0.2001,0.2113,0.239,0.2686,0.2671,0.2646,0.2502,0.272,0.2676,0.2385,0.2567,0.2556,0.2399,0.2625,0.2569,0.2345,0.2456,0.2621,0.2792,0.2602,0.292,0.3549,0.3404,0.3572,0.3936,0.3597,0.3473,0.3487,0.348,0.3482,0.3556,0.3556,0.2412,0.1005,0.1269,0.1136,0.1063,0.1931,0.192,0.1794,0.2292,0.2423,0.2508,0.2832,0.2918,0.2903,0.2891,0.3067,0.3209,0.3226,0.3849,0.4483,0.4747,0.541,0.6029,0.6424,0.7145,0.7737,0.7936,0.8608,0.8935,0.8843,0.7683,0.6915,0.6915,0.6911,0.6911,0.6846,0.6475,0.6226,0.6089,0.5667,0.5104,0.4403,0.4294,0.3753,0.2858,0.2775,0.2652,0.2418,0.2261,0.2104,0.6786,0.6293,0.58,0.5429,0.513,0.4922,0.4686,0.4663,0.454,0.4229,0.415,0.4068,0.3858,0.3662,0.3455,0.3484,0.3617,0.3648,0.3648,0.3907,0.402,0.386,0.3796,0.3602,0.3174,0.3375,0.3462,0.3318,0.3389,0.3447,0.3412,0.303,0.2899,0.3109,0.3355,0.3444,0.3342,0.3564,0.3704,0.3818,0.3707,0.3843,0.4067,0.4288,0.4281,0.4223,0.4419,0.4512,0.4475,0.4537,0.4726,0.504,0.5061,0.5222,0.5345,0.4945,0.4882,0.4885,0.4882,0.4945,0.508,0.515,0.4677,0.3939,0.3276,0.3078,0.3203,0.3499,0.3876,0.4134,0.4265,0.4457,0.4602,0.4392,0.4475,0.4599,0.4412,0.4575,0.4785,0.4865,0.5325,0.5789,0.6246,0.6876,0.7512,0.7837,0.8479,0.9064,0.9442,0.9761,1.0085,1.0288,0.9256,0.8549,0.8484,0.8737,0.8733,0.8429,0.8317,0.8157,0.7947,0.746,0.6985,0.6507,0.6275,0.5904,0.5378,0.5123,0.4836,0.4675,0.4445,0.4133,0.7733,0.7257,0.6839,0.6304,0.604,0.579,0.5458,0.5237,0.4996,0.4809,0.4661,0.4496,0.4334,0.3989,0.3804,0.3771,0.4,0.4232,0.4287,0.4552,0.4688,0.4758,0.4599,0.438,0.4146,0.4192,0.4292,0.4346,0.443,0.4587,0.5003,0.4501,0.4059,0.3921,0.4194,0.4402,0.4455,0.4577,0.478,0.5058,0.4999,0.5195,0.5643,0.5795,0.5931,0.5978,0.5992,0.6067,0.6088,0.618,0.6391,0.6585,0.666,0.6666,0.6666,0.6404,0.6272,0.6203,0.6272,0.6334,0.64,0.647,0.647,0.6199,0.5463,0.5134,0.5005,0.514,0.5731,0.6322,0.6195,0.633,0.6461,0.6125,0.6195,0.6199,0.5928,0.6001,0.6207,0.6461,0.6789,0.7181,0.7772,0.8355,0.8871,0.918,0.9703,1.0155,1.0584,1.0899,1.1156,1.1421,1.0805,1.0245,0.9792,1.0162,1.0166,0.9783,0.9796,0.9754,0.9591,0.9164,0.8694,0.8324,0.8026,0.7643,0.7318,0.7007,0.6773,0.6538,0.6465,0.6076,0.9396,0.8888,0.825,0.7847,0.7311,0.6741,0.6355,0.578,0.5206,0.486,0.4778,0.4623,0.4462,0.4387,0.4456,0.4668,0.4949,0.5196,0.5338,0.5544,0.5676,0.5564,0.5803,0.565,0.5115,0.4896,0.4954,0.5234,0.5376,0.5756,0.6605,0.6684,0.6229,0.5336,0.553,0.5785,0.5948,0.6091,0.6105,0.6,0.6588,0.6869,0.6919,0.7165,0.7366,0.7447,0.6975,0.7149,0.7645,0.7408,0.7733,0.8348,0.8089,0.8047,0.8172,0.8047,0.7847,0.7707,0.7917,0.7787,0.7456,0.7456,0.7456,0.7587,0.8021,0.7163,0.6256,0.6981,0.7642,0.8172,0.8172,0.8042,0.7982,0.8172,0.8096,0.7897,0.7707,0.7517,0.7512,0.7897,0.8226,0.8678,0.936,0.9755,1.0078,1.0458,1.0912,1.1358,1.1454,1.1973,1.2305,1.2482,1.2546,1.2104,1.0891,1.106,1.1231,1.0989,1.0956,1.0975,1.1,1.0672,1.0201,0.9593,0.9367,0.8988,0.838,0.838,0.8304,0.808,0.8304,0.808,0.9475,0.9001,0.852,0.7762,0.7379,0.7009,0.6799,0.6553,0.6311,0.5889,0.5838,0.5715,0.5323,0.5087,0.5086,0.5325,0.5446,0.5616,0.5871,0.6169,0.6386,0.6337,0.6322,0.6273,0.6119,0.5855,0.5796,0.6015,0.5973,0.5917,0.6063,0.6306,0.6593,0.6942,0.6827,0.6968,0.7285,0.7003,0.702,0.7439,0.7331,0.7569,0.8087,0.8255,0.8492,0.872,0.8705,0.8835,0.8984,0.902,0.9169,0.934,0.9099,0.932,0.9755,0.9384,0.943,0.973,0.9627,0.9633,0.9691,0.9506,0.95,0.9558,0.9748,0.8977,0.8205,0.8796,0.9052,0.8988,0.8694,0.863,0.863,0.8441,0.8753,0.8935,0.8479,0.8801,0.9186,0.9314,0.957,0.9945,1.0634,1.1017,1.1329,1.1516,1.1973,1.2421,1.2704,1.2781,1.3018,1.3514,1.352,1.3219,1.2457,1.2683,1.2706,1.2391,1.2438,1.243,1.2303,1.2031,1.1632,1.1031,1.095,1.0576,0.983,0.9679,0.9528,0.9306,0.9669,0.9669,0.9951,0.9533,0.918,0.8497,0.7943,0.7586,0.7274,0.7064,0.6788,0.6412,0.6338,0.6257,0.5789,0.5709,0.5714,0.6068,0.6241,0.637,0.6742,0.7008,0.7238,0.7031,0.6989,0.69,0.6898,0.6674,0.6583,0.6734,0.6679,0.6763,0.7026,0.6987,0.7434,0.8305,0.7544,0.7402,0.7871,0.7616,0.7723,0.819,0.829,0.8489,0.8929,0.9284,0.9596,0.9876,0.9923,0.9959,0.0,1.0414,1.0583,1.0551,1.0705,1.1003,1.126,1.0947,1.1058,1.1356,1.101,1.1017,1.1149,1.0836,1.0954,1.1205,1.1267,1.0571,0.9818,1.0218,1.0155,0.9888,0.9594,0.9408,0.9344,0.9344,0.953,0.9588,0.939,0.9831,1.0338,1.0458,1.0773,1.1267,1.1958,1.2266,1.2512,1.2696,1.3025,1.3346,1.3519,1.3648,1.3785,1.4056,1.4325,1.4362,1.4226,1.4172,1.3938,1.3515,1.3793,1.3821,1.3462,1.3251,1.2886,1.2365,1.2224,1.1855,1.126,1.0962,1.0663,1.0588,1.0651,1.0726,0.0,1.0342,1.0034,0.9604,0.8969,0.8282,0.7882,0.7352,0.0,0.6381,0.6465,0.6475,0.6106,0.6177,0.6428,0.6761,0.7095,0.7462,0.7869,0.7951,0.8026,0.7978,0.7816,0.7702,0.7521,0.7405,0.7371,0.7451,0.7562,0.7967,0.8837,0.8465,0.8493,0.9273,0.7766,0.73,0.7978,0.8096,0.8315,0.8527,0.9302,0.9631,0.9549,1.0248,1.0737,1.1012,1.0735,1.0777,1.0994,1.1768,1.1955,1.1878,1.2639,1.2899,1.2777,1.2655,1.2655,1.2655,1.2312,1.2135,1.2012,1.1757,1.2012,1.2451,1.2573,1.195,1.1149,1.1178,1.1059,1.087,1.0624,1.0244,0.9989,1.0618,1.0428,1.011,1.0301,1.0618,1.0982,1.1344,1.1958,1.2581,1.326,1.3511,1.3692,1.401,1.407,1.407,1.407,1.4574,1.4673,1.421,1.4899,1.5606,1.5964,1.5468,1.4942,1.4607,1.5006,1.4982,1.4482,1.4258,1.397,1.36,1.3178,1.2893,1.2673,1.2077,1.1855,1.1781,1.1484,1.1335,1.0301,0.0,0.9685,0.9043,0.8658,0.8282,0.0,0.7459,0.7166,0.6672,0.6822,0.6992,0.6853,0.6876,0.7138,0.7726,0.783,0.806,0.8591,0.8766,0.898,0.9192,0.891,0.8679,0.8727,0.8453,0.8226,0.8089,0.8173,0.8159,0.7868,0.7974,0.8086,0.8081,0.7836,0.7984,0.8738,0.8995,0.9256,0.9629,1.002,1.0457,1.0847,1.1028,1.1565,1.2329,1.2193,1.251,1.3186,1.3478,1.3153,1.2608,1.3261,1.3475,1.3392,1.3612,1.4016,1.4501,1.4085,1.4034,1.4154,1.3855,1.3683,1.3631,1.364,1.3216,1.2605,1.1988,1.174,1.1553,1.0807,1.0498,1.0371,1.0238,1.0611,1.0926,1.0744,1.1365,1.1988,1.2236,1.2781,1.3321,1.3761,1.4181,1.441,1.4538,1.4666,1.4734,1.4734,1.4749,1.4888,1.5355,1.5491,1.5673,1.6064,1.5999,1.6008,1.6285,1.6131,1.5921,1.57,1.548,1.5117,1.4617,1.3897,1.3542,1.3542,1.3185,1.2973,1.2826,1.3046,1.2973,1.0187,1.0054,0.9898,0.9365,0.8936,0.8557,0.8164,0.7869,0.7582,0.72,0.7426,0.7555,0.736,0.7608,0.7967,0.8353,0.8644,0.902,0.9494,0.9548,0.9569,0.9722,0.9331,0.9009,0.9044,0.8827,0.872,0.8584,0.8642,0.8661,0.8583,0.8498,0.8591,0.8728,0.8785,0.8928,0.9106,0.9413,0.9777,1.0102,1.0643,1.1242,1.1798,1.1643,1.2091,1.3,1.2893,1.3181,1.3753,1.4627,1.4418,1.3641,1.4697,1.4783,1.4317,1.4674,1.5059,1.5362,1.4902,1.4843,1.4961,1.4824,1.4529,1.424,1.424,1.389,1.3354,1.2597,1.2236,1.1934,1.131,1.1059,1.0933,1.1052,1.1115,1.1247,1.1373,1.1809,1.2305,1.2605,1.3208,1.3761,1.424,1.4754,1.5175,1.5295,1.5587,1.5722,1.559,1.569,1.5823,1.5923,1.611,1.6393,1.6617,1.6612,1.6634,1.6696,1.6927,1.6899,1.6482,1.6263,1.5903,1.533,1.4903,1.4617,1.441,1.4274,1.3985,1.3695,1.3775,1.3702,1.0035,1.0154,1.0375,0.9796,0.9394,0.9023,0.8651,0.8245,0.7803,0.774,0.7977,0.8043,0.7631,0.8239,0.8721,0.8803,0.9448,1.0139,1.0432,1.0162,0.9971,1.0036,0.9517,0.9171,0.9202,0.9117,0.9071,0.9001,0.9103,0.9334,0.9704,0.944,0.9442,0.9828,0.9963,0.9814,0.9368,0.9821,1.0131,1.036,1.1319,1.207,1.2583,1.2429,1.2827,1.3672,1.3672,1.3814,1.414,1.5509,1.5477,1.4689,1.6074,1.597,1.5034,1.5598,1.5846,1.5788,1.5381,1.5147,1.5088,1.5235,1.4932,1.4529,1.4597,1.424,1.3761,1.3199,1.2658,1.2243,1.1996,1.1677,1.1615,1.2174,1.1809,1.1498,1.2058,1.2243,1.2421,1.2834,1.345,1.4139,1.474,1.5279,1.585,1.6213,1.6547,1.6655,1.6383,1.6773,1.6896,1.6198,1.6727,1.7081,1.7124,1.7152,1.6961,1.6665,1.7456,1.7658,1.7038,1.6821,1.6464,1.6044,1.5903,1.5692,1.5346,1.5125,1.4832,1.4553,1.4194,1.4194,0.976,1.0025,1.0256,0.9301,0.9278,0.9311,0.8423,0.8151,0.7923,0.7453,0.7869,0.8276,0.7955,0.8434,0.9,0.9254,0.9916,1.0537,1.1025,1.0721,1.0572,1.0954,1.0283,0.9898,1.0309,1.0076,0.977,0.9567,0.9904,0.988,0.9486,0.986,0.9974,0.9657,0.9991,1.0174,1.0198,1.0753,1.1015,1.0972,1.2295,1.3113,1.3445,1.4017,1.487,1.5871,1.5764,1.6202,1.7005,1.6526,1.5871,1.5196,1.5664,1.5429,1.4981,1.6032,1.6457,1.6467,1.64,1.5836,1.5215,1.5652,1.5294,1.4715,1.4843,1.4556,1.413,1.4001,1.358,1.3025,1.2736,1.2428,1.2182,1.2305,1.2305,1.2297,1.2428,1.2789,1.3147,1.339,1.4052,1.4708,1.5233,1.5773,1.6375,1.6989,1.6994,1.6908,1.6908,1.703,1.7099,1.689,1.696,1.6984,1.688,1.7387,1.7564,1.7272,1.7531,1.7607,1.756,1.7304,1.7097,1.6959,1.6473,1.6202,1.6132,1.5833,1.5621,1.5551,1.5346,1.5062,0.9565,0.9806,0.9997,0.9146,0.9232,0.951,0.9008,0.8719,0.8527,0.8416,0.8672,0.8782,0.8479,0.883,0.9486,1.0086,1.0735,1.1267,1.1616,1.1154,1.0915,1.1094,1.0575,1.0253,1.0352,1.0208,1.0059,0.9917,1.0211,1.0232,0.9932,1.0408,1.0501,1.0213,1.0592,1.0795,1.0913,1.1469,1.1628,1.1427,1.23,1.307,1.37,1.373,1.4491,1.5764,1.5352,1.571,1.6565,1.6177,1.5688,1.5227,1.5914,1.5644,1.5008,1.5833,1.6181,1.6228,1.6228,1.5941,1.5594,1.5816,1.541,1.4902,1.497,1.4725,1.4359,1.4249,1.4152,1.3943,1.3327,1.342,1.3512,1.3258,1.2972,1.2858,1.3216,1.3216,1.3336,1.4136,1.4608,1.5294,1.6276,1.6799,1.7279,1.7934,1.7914,1.7871,1.8131,1.8066,1.8049,1.8164,1.7996,1.7892,1.7935,1.7975,1.8056,1.8208,1.8236,1.8185,1.8162,1.791,1.7716,1.7442,1.7107,1.6899,1.676,1.6542,1.6333,1.6254,1.5921,1.5638,0.9386,0.9574,0.9761,0.9151,0.9249,0.943,0.9546,0.9205,0.8956,0.9187,0.9337,0.9238,0.8908,0.9357,1.0078,1.074,1.1282,1.1627,1.1805,1.1393,1.1082,1.112,1.0811,1.0521,1.0323,1.0313,1.0355,1.028,1.0522,1.0595,1.0451,1.0929,1.1122,1.0845,1.1217,1.1477,1.1477,1.1977,1.2076,1.1877,1.2426,1.3134,1.3993,1.3621,1.4234,1.5444,1.4919,1.5113,1.5804,1.5582,1.5324,1.5038,1.5847,1.5807,1.5346,1.5743,1.6009,1.6161,1.6056,1.5989,1.5979,1.5874,1.5488,1.5088,1.5029,1.4843,1.4656,1.4428,1.4827,1.5111,1.4223,1.4276,1.4594,1.466,1.4074,1.3709,1.4264,1.4144,1.4136,1.5081,1.5519,1.61,1.7407,1.7782,1.8175,1.888,1.8792,1.8808,1.9142,1.9075,1.9034,1.9194,1.8975,1.8888,1.8899,1.8726,1.8742,1.905,1.8882,1.8798,1.8721,1.8462,1.8192,1.7978,1.7735,1.7529,1.7382,1.7185,1.6968,1.6821,1.6482,1.6211,0.9186,0.9434,0.9759,0.955,0.9193,0.9024,0.9255,0.9011,0.8815,0.8944,0.9308,0.9536,0.9274,0.9935,1.0634,1.0862,1.1301,1.1515,1.1369,1.1302,1.134,1.145,1.09,1.0659,1.0942,1.063,1.0554,1.0678,1.1035,1.1153,1.099,1.1511,1.1685,1.1251,1.1628,1.1927,1.2026,1.2332,1.248,1.2431,1.3422,1.4123,1.4563,1.5014,1.5545,1.6041,1.5844,1.5895,1.6008,1.5284,1.4941,1.4892,1.4875,1.538,1.6234,1.6321,1.6581,1.6899,1.6477,1.6343,1.6197,1.5836,1.5546,1.5303,1.5088,1.5088,1.5098,1.497,1.5965,1.6874,1.5817,1.4902,1.4647,1.621,1.5899,1.5317,1.551,1.6061,1.6475,1.6305,1.6757,1.749,1.8438,1.8617,1.8913,1.9684,1.9497,1.9309,1.9539,1.9539,1.9511,1.9391,1.9533,1.9448,1.9017,1.951,1.9767,1.9658,1.9078,1.8942,1.9208,1.8607,1.8405,1.8741,1.8212,1.794,1.794,1.7608,1.747,1.7401,1.7047,1.683,0.8678,0.922,0.9748,0.9382,0.9436,0.9592,0.95,0.9601,0.968,0.9771,1.01,1.0172,1.0,1.0396,1.0834,1.093,1.1339,1.171,1.1744,1.1576,1.1411,1.1324,1.1272,1.1063,1.0872,1.0915,1.1095,1.1376,1.1428,1.1412,1.1406,1.1683,1.1657,1.1293,1.1769,1.2076,1.2224,1.2578,1.2861,1.3045,1.335,1.3626,1.3879,1.4251,1.474,1.5356,1.4915,1.5007,1.5444,1.4661,1.4446,1.4665,1.5029,1.5775,1.6633,1.6581,1.6807,1.7078,1.6637,1.64,1.6275,1.6009,1.5826,1.57,1.5594,1.5594,1.5594,1.5303,1.5782,1.6307,1.6146,1.6133,1.623,1.6586,1.5927,1.5256,1.5475,1.5674,1.5984,1.6447,1.7195,1.803,1.887,1.9446,1.9899,2.0302,2.0053,1.9966,2.0377,2.0313,2.0311,2.0516,2.0504,2.029,1.9916,1.9939,2.0037,2.0123,2.003,1.9857,1.9781,1.9462,1.9208,1.9008,1.8674,1.8405,1.8212,1.794,1.7735,1.7657,1.7392,1.7116,0.8743,0.9464,1.0037,0.9662,0.9888,1.0132,0.9985,1.0044,1.0246,1.031,1.0557,1.0733,1.0559,1.0921,1.1316,1.1248,1.1561,1.1855,1.1878,1.1689,1.1503,1.1313,1.139,1.1363,1.1132,1.1081,1.1291,1.1667,1.1577,1.1522,1.1621,1.1862,1.1878,1.1536,1.2026,1.2323,1.248,1.2822,1.3142,1.3467,1.3467,1.3515,1.3621,1.3773,1.418,1.465,1.4243,1.4381,1.4854,1.4385,1.4393,1.4807,1.5414,1.6073,1.6782,1.6616,1.6909,1.7245,1.674,1.6637,1.6581,1.6285,1.6171,1.6171,1.6104,1.6114,1.5999,1.5816,1.5926,1.6234,1.6706,1.6789,1.689,1.7246,1.6552,1.5923,1.6297,1.6471,1.6697,1.7042,1.7718,1.8509,1.9217,1.9739,2.0214,2.0677,2.0384,2.0328,2.1008,2.0892,2.0967,2.1296,2.1233,2.0957,2.0614,2.0497,2.0506,2.0475,2.0646,2.0506,1.9977,1.9594,1.9341,1.9142,1.8875,1.8607,1.8472,1.8202,1.7998,1.7784,1.7598,1.7332,0.9598,1.0208,1.0678,1.0521,1.0483,1.0519,1.0599,1.0335,1.0094,1.0221,1.0665,1.1003,1.1003,1.1532,1.1965,1.1732,1.2063,1.2127,1.1623,1.1508,1.1557,1.1565,1.1386,1.1338,1.1694,1.122,1.1091,1.1502,1.1464,1.14,1.1522,1.2097,1.2283,1.2094,1.248,1.2783,1.2881,1.3094,1.3372,1.3621,1.3868,1.402,1.402,1.402,1.4104,1.4222,1.4222,1.428,1.4419,1.4534,1.4868,1.5361,1.5902,1.6256,1.6525,1.656,1.6965,1.7412,1.6797,1.692,1.7166,1.6524,1.6524,1.6751,1.6637,1.6534,1.6431,1.6581,1.6848,1.7204,1.7685,1.6763,1.6236,1.8375,1.8166,1.7656,1.8268,1.8864,1.9057,1.836,1.8562,1.9082,1.9596,1.9454,1.9587,2.0744,2.0495,2.0483,2.133,2.1273,2.136,2.1698,2.1698,2.1498,2.0967,2.121,2.121,2.0733,2.1042,2.0711,1.9671,1.8875,1.8751,1.9285,1.8808,1.8617,1.8808,1.8472,1.8212,1.8008,1.7676,1.7392,0.9331,0.9916,1.0496,1.0435,1.0936,1.133,1.11,1.083,1.0643,1.0708,1.0958,1.109,1.093,1.1233,1.1421,1.1348,1.1481,1.1495,1.1335,1.1379,1.1383,1.1313,1.1474,1.157,1.1528,1.1655,1.1765,1.196,1.1807,1.18,1.207,1.216,1.2154,1.2076,1.3055,1.3461,1.3132,1.3931,1.4352,1.4352,1.4312,1.4291,1.4291,1.4395,1.4488,1.4627,1.4627,1.4627,1.4673,1.4789,1.5127,1.562,1.5782,1.6282,1.7028,1.728,1.7457,1.7523,1.7512,1.7423,1.7278,1.7043,1.7145,1.7245,1.6955,1.7022,1.7088,1.6684,1.6835,1.7056,1.7077,1.7032,1.7231,1.8161,1.8103,1.7724,1.7482,1.7812,1.7978,1.7344,1.7947,1.8751,1.9155,1.9682,2.0163,2.0522,2.0574,2.0744,2.1313,2.1663,2.1874,2.1874,2.1812,2.1675,2.1273,2.1273,2.1094,2.0733,2.0658,2.0593,2.0518,2.0194,1.9998,1.9857,1.9594,1.9274,1.8808,1.8674,1.8405,1.8008,1.7725,1.7588,1.0168,1.0623,1.106,1.1138,1.1407,1.1611,1.1301,1.0948,1.0732,1.0732,1.0889,1.0975,1.0785,1.0982,1.1253,1.1155,1.1206,1.1242,1.1313,1.1273,1.128,1.1335,1.1531,1.1603,1.1607,1.1661,1.1757,1.2011,1.1845,1.1878,1.2196,1.2373,1.2431,1.2431,1.3621,1.412,1.3831,1.4503,1.4909,1.5007,1.466,1.4622,1.4846,1.4716,1.473,1.4787,1.4868,1.4903,1.496,1.5222,1.561,1.6,1.6118,1.6721,1.7512,1.7632,1.7689,1.7689,1.7843,1.7689,1.7379,1.7434,1.749,1.7523,1.7401,1.7401,1.7412,1.7134,1.7078,1.7078,1.7088,1.7377,1.7739,1.7969,1.8018,1.802,1.7722,1.7838,1.7938,1.7464,1.7895,1.8483,1.8762,1.9143,1.9584,2.0116,2.0549,2.0797,2.0911,2.1608,2.1999,2.1862,2.1925,2.1862,2.1526,2.14,2.1158,2.0914,2.0669,2.0658,2.1031,2.0529,2.0194,2.0053,1.9726,1.9407,1.9008,1.8808,1.8482,1.8008,1.7725,1.752,1.1467,1.1857,1.2026,1.2198,1.1848,1.1444,1.1159,1.0844,1.0534,1.0529,1.0684,1.0768,1.0472,1.0878,1.1258,1.1019,1.1076,1.1203,1.1417,1.1235,1.1215,1.1483,1.153,1.1587,1.1711,1.1448,1.1384,1.1761,1.1746,1.1828,1.2076,1.2627,1.2881,1.292,1.4027,1.4641,1.4746,1.4876,1.5143,1.5471,1.4896,1.4976,1.5519,1.5092,1.4923,1.4957,1.512,1.5177,1.5211,1.5753,1.6178,1.6441,1.6737,1.7272,1.7854,1.7755,1.7755,1.7854,1.7897,1.7744,1.7579,1.77,1.7711,1.7767,1.7854,1.7767,1.759,1.7723,1.7578,1.7422,1.7545,1.7785,1.7973,1.7802,1.8192,1.8498,1.8588,1.8648,1.8545,1.8242,1.82,1.8269,1.8589,1.8272,1.8429,1.9703,2.0439,2.0719,2.0323,2.1245,2.1862,2.1788,2.2049,2.2123,2.1788,2.1588,2.14,2.1221,2.0914,2.0862,2.1169,2.0194,1.9813,1.9933,1.9473,1.9208,1.9285,1.8751,1.8347,1.8008,1.7608,1.7254,1.0953,1.1477,1.1985,1.1827,1.1649,1.1342,1.0695,1.0528,1.0454,1.0454,1.0344,1.0283,1.0314,1.055,1.0775,1.086,1.0867,1.0899,1.0969,1.0999,1.1128,1.1455,1.1519,1.1579,1.1842,1.1735,1.1713,1.1727,1.1891,1.2026,1.2076,1.2627,1.291,1.2977,1.4153,1.4628,1.4337,1.4993,1.5374,1.54,1.5106,1.5244,1.5722,1.5513,1.5672,1.6071,1.5925,1.5858,1.5881,1.582,1.615,1.6708,1.6497,1.6916,1.7579,1.7645,1.7601,1.749,1.792,1.7963,1.7799,1.7854,1.792,1.7975,1.7909,1.8125,1.8328,1.834,1.8563,1.8717,1.8384,1.8699,1.8969,1.8598,1.8922,1.9197,1.8774,1.8879,1.8862,1.8126,1.8079,1.8315,1.8917,1.8849,1.8965,1.981,2.0118,2.0451,2.0894,2.1542,2.1937,2.2061,2.2235,2.2297,2.2123,2.2061,2.18,2.1221,2.1094,2.1042,2.0797,2.0604,2.0475,2.054,2.027,1.9802,1.9142,1.8875,1.8472,1.8008,1.7323,1.7038,1.1365,1.1603,1.1801,1.1582,1.1434,1.1143,1.064,1.0314,1.0206,1.0275,1.0099,0.9994,1.0071,1.0258,1.0507,1.0555,1.0529,1.0594,1.0788,1.0917,1.1136,1.1387,1.151,1.1654,1.1904,1.1729,1.1703,1.1885,1.2145,1.2332,1.248,1.2958,1.3238,1.3266,1.4348,1.4877,1.4807,1.5359,1.5686,1.5806,1.5441,1.5684,1.6367,1.6028,1.6093,1.65,1.6543,1.6524,1.6512,1.6527,1.6836,1.7256,1.7042,1.7356,1.792,1.7931,1.781,1.7767,1.8096,1.8139,1.8018,1.8139,1.8139,1.8084,1.8139,1.8383,1.8623,1.8623,1.8996,1.9383,1.903,1.9224,1.9536,1.9524,1.9539,1.9475,1.8969,1.9188,1.9192,1.8377,1.8444,1.8753,1.9233,1.9422,1.9552,1.9795,2.0153,2.0447,2.0535,2.1272,2.1874,2.2037,2.2111,2.2235,2.2432,2.2135,2.1824,2.1434,2.1106,2.0914,2.0786,2.0733,2.0669,2.054,2.0335,1.9922,1.9341,1.9008,1.8539,1.8008,1.7314,1.7038,1.1806,1.1755,1.152,1.1552,1.1353,1.0984,1.0814,1.0321,1.0044,1.0151,0.9964,0.9728,0.9839,1.0027,1.0203,1.0254,1.0274,1.0387,1.0685,1.093,1.1108,1.1285,1.1518,1.1717,1.1903,1.1747,1.1757,1.2153,1.2431,1.2676,1.2881,1.3344,1.3621,1.3668,1.4526,1.5119,1.5395,1.5513,1.5798,1.6138,1.582,1.6196,1.7057,1.6631,1.6613,1.6876,1.7047,1.71,1.71,1.7313,1.7526,1.7796,1.7653,1.7914,1.8313,1.8139,1.8084,1.8084,1.8259,1.8259,1.8139,1.8259,1.8205,1.8162,1.8363,1.8632,1.8827,1.8976,1.9433,1.9858,1.9624,1.9732,1.9978,2.0308,2.003,1.9666,1.9402,1.961,1.9645,1.8963,1.9139,1.9432,1.9601,1.9956,2.0088,1.9887,2.0329,2.063,2.0195,2.095,2.1643,2.1951,2.1954,2.2151,2.2678,2.2197,2.1824,2.1698,2.1117,2.085,2.0839,2.0786,2.0604,2.0346,2.0248,1.9987,1.9539,1.9008,1.8472,1.793,1.7314,1.6821,1.0942,1.1025,1.1499,1.2188,1.1872,1.123,1.0975,1.0534,1.0282,1.027,0.9857,0.9605,1.0012,0.988,0.9773,1.0082,1.0242,1.03,1.0357,1.066,1.0905,1.1184,1.1304,1.1531,1.1971,1.1988,1.2131,1.2431,1.2676,1.2871,1.2968,1.3382,1.3716,1.3926,1.4298,1.4647,1.4959,1.5108,1.5302,1.5619,1.6192,1.6787,1.7375,1.7633,1.7774,1.7909,1.7722,1.7639,1.7513,1.7331,1.7438,1.7796,1.7653,1.7809,1.8139,1.7963,1.7909,1.7963,1.8084,1.8139,1.8096,1.7877,1.7931,1.8176,1.8385,1.886,1.9406,2.003,2.0449,2.0671,2.0362,2.0358,2.0502,2.0389,2.0354,2.0285,2.0217,2.0262,2.0208,1.9959,2.0189,2.0294,1.9913,2.0204,2.0463,2.03,2.0598,2.0979,2.1174,2.1093,2.1353,2.2237,2.2067,2.2114,2.2641,2.2629,2.2321,2.1761,2.1474,2.1019,2.0464,2.0722,2.0582,1.9998,2.0399,2.0129,1.9142,1.8721,1.824,1.7716,1.6821,1.6263,1.1015,1.1342,1.1755,1.21,1.1761,1.1342,1.1166,1.0736,1.044,1.066,1.0316,1.0013,1.0071,0.9856,0.9764,1.0163,1.0219,1.0275,1.0491,1.0776,1.1005,1.117,1.1506,1.178,1.2105,1.2163,1.2323,1.2676,1.2958,1.3142,1.3334,1.3705,1.4035,1.4244,1.4477,1.4697,1.5006,1.5232,1.5558,1.5881,1.6666,1.7243,1.7642,1.8277,1.8507,1.8387,1.839,1.8348,1.8207,1.7729,1.7977,1.8522,1.7965,1.8061,1.8572,1.8344,1.8236,1.8193,1.8139,1.8247,1.8344,1.8247,1.829,1.8449,1.8747,1.9125,1.9616,2.003,2.0591,2.0985,2.0653,2.0774,2.095,2.0836,2.0762,2.0762,2.1035,2.0899,2.0614,2.0401,2.0665,2.0795,2.0498,2.0877,2.1209,2.1136,2.1136,2.1206,2.1365,2.1253,2.1466,2.2322,2.2091,2.2177,2.2775,2.2494,2.2061,2.1698,2.1169,2.0711,2.041,2.0529,2.0324,1.9736,2.027,2.0074,1.9208,1.871,1.8172,1.751,1.6821,1.6193,1.1109,1.1461,1.1682,1.1899,1.1721,1.1382,1.1455,1.0918,1.0549,1.0943,1.0654,1.0327,1.0184,0.9932,0.9871,1.0124,1.0171,1.0332,1.0593,1.086,1.1072,1.1231,1.1643,1.206,1.2216,1.2351,1.2618,1.3017,1.318,1.3409,1.3752,1.4082,1.4326,1.4512,1.4697,1.4926,1.5244,1.5591,1.5913,1.6287,1.7142,1.7654,1.7883,1.8712,1.8987,1.8827,1.8839,1.8851,1.8804,1.8111,1.8239,1.8863,1.7899,1.8057,1.873,1.8425,1.8412,1.8476,1.8302,1.841,1.8614,1.8494,1.8548,1.8689,1.9021,1.9402,1.9769,2.0053,2.0631,2.1106,2.0862,2.0978,2.1158,2.1221,2.1094,2.1031,2.1383,2.1296,2.1043,2.0777,2.1026,2.1282,2.116,2.144,2.1698,2.1624,2.1474,2.1388,2.1388,2.1346,2.1572,2.2285,2.2065,2.2091,2.2665,2.2297,2.1874,2.1561,2.0978,2.0464,2.027,2.0399,2.0205,1.9539,1.9933,1.9802,1.9075,1.8654,1.8046,1.7245,1.6751,1.6053,1.06,1.0824,1.1114,1.1746,1.1794,1.1691,1.1859,1.1211,1.0648,1.0916,1.0647,1.0313,1.03,1.0149,1.0009,0.9874,1.0185,1.0494,1.0494,1.0853,1.115,1.1302,1.1654,1.2004,1.2262,1.2646,1.3017,1.3372,1.3515,1.3752,1.4129,1.4326,1.4558,1.4858,1.5006,1.5255,1.5671,1.6013,1.6275,1.6491,1.7501,1.8024,1.8109,1.8967,1.9368,1.9368,1.9105,1.8987,1.8951,1.8111,1.7962,1.8142,1.7243,1.7349,1.8013,1.7739,1.8108,1.8744,1.8625,1.8614,1.856,1.8213,1.8333,1.8694,1.9088,1.9524,2.0039,2.0648,2.088,2.0967,2.1094,2.1031,2.1031,2.1325,2.1273,2.1106,2.0797,2.1296,2.1726,2.1262,2.1565,2.1827,2.1651,2.1675,2.1624,2.1463,2.1388,2.1388,2.1388,2.1093,2.1244,2.2137,2.2043,2.2005,2.2211,2.2309,2.2049,2.1285,2.1158,2.0775,1.9933,2.0399,2.027,1.9351,1.932,1.911,1.8509,1.8395,1.7862,1.6908,1.6412,1.57,1.0633,1.0933,1.125,1.1216,1.1313,1.1359,1.1401,1.1022,1.0782,1.1075,1.1051,1.0854,1.0656,1.0413,1.0225,1.0267,1.0368,1.0624,1.0972,1.1217,1.1427,1.1678,1.2026,1.2382,1.2529,1.29,1.3228,1.3515,1.38,1.4129,1.443,1.4605,1.4869,1.5165,1.5334,1.5647,1.6144,1.6318,1.6623,1.7087,1.7768,1.8307,1.8828,1.9332,1.9617,1.9784,1.9604,1.9448,1.9282,1.8099,1.798,1.8534,1.8189,1.8113,1.8268,1.8526,1.8672,1.8744,1.841,1.8506,1.8774,1.8398,1.8849,1.9538,1.9552,2.0051,2.0589,2.0722,2.0914,2.1031,2.0914,2.0914,2.0903,2.1019,2.1348,2.1486,2.0978,2.1296,2.1686,2.1561,2.1812,2.1999,2.16,2.1675,2.1749,2.1624,2.1423,2.1348,2.1549,2.1374,2.1389,2.1975,2.2078,2.2104,2.2173,2.2123,2.1851,2.1336,2.0816,2.0377,2.0205,2.0074,1.9736,1.9208,1.9198,1.8988,1.8664,1.792,1.7382,1.6908,1.6061,1.548,1.0593,1.0801,1.0963,1.0992,1.1018,1.108,1.1224,1.1001,1.0791,1.112,1.1262,1.121,1.1008,1.09,1.0745,1.0611,1.0645,1.082,1.1226,1.1519,1.1778,1.2026,1.2382,1.2725,1.291,1.318,1.3457,1.3858,1.414,1.4419,1.4754,1.4926,1.5153,1.5435,1.5736,1.6076,1.6392,1.6565,1.6985,1.7555,1.8055,1.8659,1.9328,1.9371,1.9484,1.9623,1.9096,1.9246,1.9787,1.8524,1.8376,1.8883,1.8549,1.8437,1.8495,1.8848,1.9,1.8999,1.8518,1.8679,1.9052,1.8691,1.909,1.9727,1.983,2.0228,2.0649,2.0722,2.0914,2.1031,2.0914,2.0914,2.1031,2.1083,2.1474,2.1737,2.1296,2.1561,2.1824,2.1624,2.1812,2.1937,2.16,2.16,2.1675,2.1624,2.136,2.1296,2.1686,2.16,2.16,2.1937,2.2185,2.2185,2.2073,2.1937,2.1675,2.1221,2.0571,2.0194,2.014,1.9963,1.9649,1.9235,1.9243,1.9039,1.8682,1.7646,1.7028,1.67,1.5837,1.5219,0.0,0.0,0.0,1.0921,1.093,1.0936,1.1266,1.0981,1.0778,1.1107,1.1262,1.1272,1.1323,1.1554,1.1565,1.0841,1.0962,1.1184,1.1276,1.1778,1.2175,1.2274,1.2676,1.3065,1.3372,1.3515,1.3858,1.4373,1.4419,1.4605,1.5062,1.5255,1.5492,1.5792,1.6262,1.6479,1.6436,1.6833,1.7286,1.7911,1.8468,1.9003,1.9571,1.9192,1.9019,1.8894,1.7619,1.8304,2.0307,1.9395,1.9093,1.9068,1.8225,1.8154,1.8533,1.8495,1.8966,1.9512,1.8999,1.9064,1.9368,1.8958,1.9023,1.9335,1.9839,2.0053,2.0228,2.0745,2.0903,2.0967,2.1094,2.1158,2.1221,2.1336,2.1526,2.1663,2.1698,2.1949,2.2061,2.1526,2.1549,2.1749,2.1862,2.1486,2.1285,2.14,2.1273,2.1348,2.1651,2.1686,2.1835,2.2147,2.2309,2.2185,2.1785,2.1824,2.1549,2.0733,2.054,2.014,1.9671,2.0062,2.0044,1.9492,1.9473,1.9125,1.837,1.7609,1.6917,1.6281,1.564,1.488,0.9479,0.0,0.0,0.0,0.0,0.0,1.0046,1.0083,1.029,1.0675,1.0989,1.1219,1.1443,1.1654,1.176,1.1607,1.1453,1.1377,1.1563,1.1877,1.2224,1.2529,1.29,1.3228,1.3515,1.3847,1.4129,1.4373,1.4697,1.5028,1.521,1.5703,1.6057,1.6306,1.6534,1.6718,1.6833,1.7031,1.7609,1.8494,1.8813,1.9144,1.9448,1.9338,1.9073,1.8665,1.8232,1.887,2.0136,1.8546,1.8481,1.9423,1.8783,1.8623,1.8709,1.8702,1.9077,1.95,1.8881,1.9081,1.9604,1.9093,1.9466,2.0067,2.0199,2.05,2.0817,2.0911,2.0903,2.0839,2.0658,2.0775,2.0967,2.0828,2.1135,2.1463,2.136,2.1675,2.1937,2.1686,2.1749,2.18,2.1588,2.1526,2.16,2.1624,2.1474,2.1463,2.18,2.1862,2.2017,2.2524,2.2351,2.2279,2.2291,2.1973,2.1498,2.0903,2.0442,2.0107,1.9977,1.9781,1.9471,1.9034,1.9053,1.8635,1.7705,1.7376,1.6738,1.5921,1.5056,1.4273,0.7336,0.7774,0.8211,0.8477,0.0,0.0,0.939,0.9667,1.004,1.0428,1.087,1.131,1.1747,1.202,1.219,1.2307,1.2178,1.2018,1.1876,1.2166,1.252,1.2852,1.3286,1.3658,1.3905,1.4233,1.4512,1.4697,1.5211,1.566,1.5992,1.6223,1.6405,1.6577,1.6791,1.6918,1.7002,1.7476,1.7935,1.8436,1.8878,1.906,1.9028,1.8716,1.8435,1.815,1.7771,1.8215,1.9127,1.7734,1.8402,2.0197,1.9415,1.922,1.9309,1.9193,1.9251,1.9344,1.8709,1.8975,1.9565,1.9052,1.9563,2.0318,2.0246,2.0547,2.0883,2.083,2.085,2.0786,2.0604,2.0593,2.0646,2.0646,2.0828,2.1083,2.1094,2.136,2.1624,2.1698,2.1812,2.1788,2.1463,2.16,2.1675,2.1498,2.1486,2.1675,2.1999,2.1937,2.2044,2.2543,2.2366,2.2193,2.2185,2.1875,2.1446,2.085,2.0377,2.0129,2.0214,1.9927,1.9626,1.9377,1.9377,1.8757,1.7372,1.7216,1.6447,1.5268,1.4449,1.3747,0.4417,0.4956,0.5408,0.679,0.7596,0.0,0.8663,0.9105,0.9536,0.9939,1.062,1.1301,1.1828,1.2289,1.2687,1.2913,1.3061,1.2884,1.2319,1.2603,1.2969,1.325,1.3693,1.4121,1.4337,1.4569,1.4789,1.5062,1.5719,1.6372,1.7045,1.6735,1.662,1.6761,1.7044,1.7157,1.7044,1.7866,1.8213,1.81,1.8655,1.8754,1.8498,1.7771,1.7473,1.7416,1.6779,1.7053,1.7891,1.7192,1.8479,2.0877,1.9817,1.9618,1.9864,1.9579,1.9396,1.9186,1.8548,1.8827,1.9368,1.8946,1.9377,2.008,2.0165,2.0264,2.0465,2.0549,2.0624,2.0669,2.0669,2.054,2.041,2.0604,2.0582,2.0646,2.0839,2.1031,2.1296,2.1635,2.1737,2.1726,2.1451,2.1549,2.1635,2.1296,2.1561,2.1847,2.2207,2.2083,2.2106,2.2466,2.2368,2.2157,2.1855,2.1733,2.1446,2.0733,2.0313,2.0128,2.0228,2.0122,2.0068,2.0092,1.9811,1.8904,1.731,1.6899,1.5934,1.442,1.3881,1.3267,0.2003,0.2296,0.2662,0.3103,0.3992,0.0,0.5343,0.6277,0.7357,0.8321,0.9242,1.01,1.0938,1.1873,1.2597,1.2793,1.3334,1.3577,1.314,1.3252,1.3437,1.357,1.3881,1.4112,1.4219,1.4477,1.4754,1.5062,1.5697,1.643,1.7358,1.7084,1.7002,1.728,1.7212,1.7253,1.7321,1.74,1.7591,1.793,1.8293,1.8257,1.7875,1.7804,1.7421,1.6716,1.6572,1.7084,1.8009,1.7081,1.7821,1.941,1.8437,1.8607,1.9321,1.8778,1.9158,1.972,1.8815,1.9081,1.9656,1.9146,1.9059,1.9324,1.976,1.9645,1.9472,1.9907,2.0281,2.0475,2.0475,2.0281,2.0151,2.0216,2.0335,2.0464,2.0464,2.085,2.1221,2.14,2.1463,2.1463,2.1388,2.1549,2.1698,2.1737,2.18,2.2028,2.2571,2.2555,2.271,2.3203,2.287,2.2503,2.2386,2.1945,2.1446,2.0733,2.0313,2.0062,2.0091,1.9778,1.9566,1.9478,1.8619,1.77,1.6812,1.5866,1.4997,1.4346,1.3409,1.2575,-0.1022,-0.0413,0.014,0.0899,0.1687,0.0,0.0,0.4016,0.4803,0.5913,0.7447,0.8866,0.9806,1.1488,1.2826,1.3058,1.3894,1.444,1.4201,1.4105,1.4149,1.4409,1.4747,1.5057,1.5385,1.5305,1.5347,1.5707,1.5912,1.652,1.776,1.7206,1.7144,1.7742,1.7411,1.7253,1.7404,1.7639,1.7686,1.7544,1.7974,1.7917,1.7342,1.7298,1.7102,1.6693,1.662,1.6901,1.7359,1.7021,1.7312,1.807,1.8092,1.8601,1.9268,1.8847,1.8934,1.9198,1.8679,1.8827,1.9251,1.8999,1.9126,1.9419,1.9529,1.9516,1.9566,1.9805,2.0008,2.014,2.014,2.0074,2.0009,2.0009,2.026,2.0566,2.0688,2.114,2.1574,2.197,2.2166,2.2215,2.1829,2.1935,2.2074,2.2074,2.219,2.2317,2.2317,2.2671,2.2999,2.3209,2.3299,2.3299,2.318,2.2603,2.2047,2.1597,2.0917,2.0578,2.0563,1.9995,1.9505,1.8999,1.816,1.7294,1.6566,1.5567,1.4684,1.394,1.3087,1.2104,-0.3703,-0.2918,-0.2213,-0.1131,-0.0492,0.021,0.0,0.0,0.0,0.3614,0.5501,0.737,0.8543,1.0726,1.2609,1.313,1.4431,1.5341,1.5401,1.5328,1.5351,1.5426,1.5739,1.6169,1.6673,1.639,1.6337,1.6847,1.6511,1.6983,1.8481,1.7422,1.7231,1.8162,1.7555,1.7253,1.735,1.7866,1.781,1.7157,1.7669,1.76,1.7002,1.6803,1.6761,1.6833,1.6718,1.6718,1.6705,1.696,1.7044,1.7148,1.799,1.8639,1.9103,1.8897,1.8732,1.8614,1.841,1.853,1.8798,1.8679,1.9034,1.9406,1.9145,1.9408,1.9814,1.9911,1.9998,2.0095,2.0182,2.0137,2.0148,2.0148,2.0382,2.0719,2.1048,2.1493,2.1907,2.2469,2.2877,2.294,2.2476,2.2526,2.2592,2.2472,2.2734,2.2745,2.2349,2.2939,2.3333,2.3215,2.3718,2.3923,2.3573,2.3136,2.2662,2.2183,2.1441,2.0946,2.0956,2.0216,1.9427,1.8576,1.7942,1.7212,1.6229,1.5409,1.4552,1.3534,1.2785,1.1811,-0.5163,-0.4767,-0.4445,-0.4517,-0.3702,-0.2643,-0.1639,0.0,0.0749,0.2202,0.0,0.5326,0.6878,0.0,0.0,1.2405,1.4448,1.6053,1.6701,1.7351,1.7422,1.6449,1.651,1.6658,1.6884,1.7254,1.7812,1.8573,1.7852,1.8151,1.9779,1.8131,1.7558,1.8495,1.7668,1.7199,1.7199,1.7416,1.7332,1.7002,1.7222,1.718,1.7002,1.6803,1.662,1.6565,1.6675,1.6705,1.6723,1.7031,1.7199,1.7222,1.7612,1.7928,1.809,1.8174,1.8514,1.8893,1.8302,1.8422,1.8691,1.8182,1.8193,1.8324,1.8101,1.8731,1.9519,1.9987,2.0424,2.0871,2.1218,2.1129,2.0941,2.1081,2.0913,2.0815,2.1226,2.1387,2.1629,2.2114,2.2469,2.2865,2.3065,2.3399,2.361,2.3399,2.3544,2.3687,2.373,2.3973,2.4089,2.394,2.4136,2.3845,2.2821,2.2854,2.2446,2.142,2.115,2.0803,2.0297,1.9667,1.8939,1.8112,1.7635,1.6804,1.5477,1.4985,1.4193,1.3081,1.2412,1.1433,-0.5951,-0.569,-0.5312,-0.499,-0.4554,-0.388,-0.2686,-0.2121,-0.1489,-0.0066,0.0,0.0,0.0,0.0,0.0,0.0,1.3296,1.4907,1.5164,1.6394,1.7224,1.7078,1.7074,1.71,1.7203,1.8007,1.8509,1.8337,1.8091,1.8482,1.9756,1.8799,1.853,1.9091,1.8213,1.7525,1.7199,1.7057,1.6973,1.6918,1.7044,1.7115,1.7115,1.696,1.6833,1.6778,1.6791,1.6748,1.6595,1.7031,1.7115,1.707,1.7303,1.7715,1.8134,1.8139,1.8478,1.8839,1.8422,1.8313,1.8402,1.8305,1.8393,1.8506,1.872,1.9037,1.9413,1.9881,2.008,2.0207,2.0871,2.0786,2.0584,2.0857,2.0936,2.1052,2.1485,2.1916,2.2317,2.2905,2.3273,2.3699,2.405,2.393,2.373,2.3616,2.3685,2.3638,2.3395,2.3997,2.4324,2.4048,2.4598,2.4764,2.4026,2.3816,2.3333,2.2617,2.1587,2.0637,1.9841,1.9307,1.8523,1.7635,1.7229,1.6402,1.5242,1.4475,1.3509,1.2394,1.2017,1.1215,-0.6339,-0.6013,-0.5738,-0.5189,-0.5024,-0.4707,-0.3413,-0.317,-0.2847,-0.1616,0.013,0.0,0.0,0.0,0.8274,0.9744,0.0,1.3714,1.4179,1.5664,1.6899,1.7392,1.7718,1.796,1.8093,1.9105,1.9461,1.8788,1.8801,1.9206,2.0114,1.9298,1.9025,1.9499,1.8468,1.7715,1.7282,1.7044,1.696,1.7057,1.7099,1.7128,1.7199,1.6947,1.6786,1.6645,1.6769,1.6617,1.6308,1.7008,1.7115,1.6901,1.7326,1.7771,1.8157,1.808,1.8307,1.8583,1.8367,1.823,1.8148,1.8473,1.8581,1.8653,1.8953,1.9019,1.9187,1.9896,1.9885,1.9878,2.0731,2.0658,2.0512,2.0948,2.1062,2.1226,2.1745,2.2232,2.2777,2.3372,2.3897,2.4345,2.4718,2.439,2.3991,2.4014,2.4085,2.3863,2.3398,2.4093,2.4539,2.4202,2.4885,2.5182,2.4659,2.425,2.3751,2.3001,2.1548,2.0411,1.9557,1.8824,1.8098,1.7392,1.6635,1.5808,1.4915,1.3971,1.2934,1.192,1.1567,1.08,-0.6278,-0.5962,-0.5788,-0.5977,-0.5786,-0.5303,-0.4196,-0.3561,-0.2909,-0.1825,-0.0328,0.1092,0.2177,0.389,0.5968,0.8632,1.0857,0.0,0.0,1.6187,1.7111,1.7347,1.8656,1.9628,1.9889,2.0644,2.1051,2.0939,2.0529,2.0664,2.15,1.9471,1.8702,1.9591,1.8169,1.7446,1.7475,1.7475,1.7447,1.7363,1.7404,1.7308,1.7199,1.6735,1.622,1.5797,1.6435,1.6275,1.5727,1.6991,1.7199,1.6812,1.7813,1.8074,1.7894,1.775,1.7882,1.8139,1.8084,1.8126,1.8206,1.8392,1.8434,1.8408,1.8183,1.8284,1.8658,1.9848,2.0227,2.0359,2.1237,2.1318,2.1242,2.169,2.1471,2.1328,2.1928,2.2241,2.2628,2.3224,2.3824,2.4345,2.4718,2.4778,2.4766,2.4766,2.4969,2.4874,2.4515,2.4802,2.4957,2.4539,2.4706,2.449,2.374,2.3604,2.2927,2.1359,2.0654,2.002,1.9301,1.8371,1.7725,1.7392,1.5986,1.5005,1.4391,1.3464,1.2613,1.1666,1.0942,1.0308,-0.6415,-0.5922,-0.5601,-0.512,-0.4692,-0.4323,-0.3794,-0.3334,-0.2854,-0.2157,-0.1001,0.0265,0.1321,0.287,0.4667,0.6763,0.8878,1.089,0.0,1.4616,1.6131,1.68,1.8548,1.9586,1.9296,2.0601,2.1233,2.059,2.105,2.1492,2.1841,2.1319,2.074,2.0215,1.9555,1.8711,1.7639,1.7393,1.7253,1.7128,1.671,1.6528,1.6502,1.586,1.5473,1.5361,1.6041,1.629,1.6189,1.7114,1.7323,1.7057,1.731,1.7517,1.769,1.8228,1.8362,1.8228,1.8014,1.795,1.798,1.8526,1.8522,1.8417,1.8692,1.8639,1.8593,1.9373,1.9666,1.9955,2.0696,2.0918,2.1061,2.1359,2.1436,2.1425,2.1655,2.2101,2.2553,2.3001,2.3446,2.4043,2.4646,2.4574,2.4418,2.4574,2.4418,2.4261,2.4116,2.4334,2.4406,2.4116,2.4502,2.4502,2.3824,2.3224,2.2402,2.1436,2.0576,1.9784,1.9152,1.8048,1.7163,1.6574,1.5493,1.4582,1.373,1.296,1.1929,1.0727,0.9981,0.9522,-0.6324,-0.5896,-0.5568,-0.4861,-0.4432,-0.4081,-0.3666,-0.3222,-0.2822,-0.2288,-0.1059,0.0065,0.0781,0.2325,0.4041,0.5559,0.7469,0.9532,0.0,1.412,1.5905,1.642,1.815,1.9321,1.9397,2.0636,2.1489,2.1503,2.1965,2.233,2.2588,2.2623,2.2014,2.0628,2.0204,1.9294,1.7922,1.7343,1.6967,1.6775,1.6278,1.5994,1.584,1.549,1.5234,1.5184,1.5931,1.6297,1.6481,1.7421,1.7613,1.7355,1.758,1.7616,1.7639,1.8055,1.8104,1.7944,1.8115,1.7981,1.7832,1.8712,1.8749,1.8541,1.8649,1.8596,1.8514,1.9063,1.937,1.9663,2.0406,2.0688,2.0819,2.1061,2.1282,2.1425,2.1578,2.2025,2.2553,2.3001,2.3446,2.3897,2.4574,2.449,2.4345,2.4574,2.4345,2.4116,2.4116,2.42,2.42,2.4043,2.4273,2.4189,2.3446,2.2703,2.1873,2.0954,2.0255,1.9548,1.8683,1.7663,1.6773,1.6079,1.4998,1.4001,1.3222,1.2448,1.1327,1.012,0.9283,0.8835]},{"header":{"parameterUnit":"m.s-1","parameterCategory":1,"la1":30.6,"la2":29.2853,"lo1":-89.7004,"lo2":-87.6739,"dy":0.0162,"dx":0.0183,"nx":112,"ny":82,"refTime":"2023-08-26T12:00:00:Z","depth":0,"parameterNumber":3,"parameterNumberName":"V-component_of_WINDS"},"data":[0.0,0.0,0.0,0.0,0.0,0.0,0.0,0.0,0.0,0.0,0.0,0.0,0.0,0.0,0.0,0.0,0.0,0.0,0.0,0.0,0.0,0.0,0.0,0.0,0.0,0.0,0.0,0.0,0.0,0.0,0.0,0.0,0.0,0.0,0.0,0.0,0.0,0.0,0.0,0.0,0.0,0.0,0.0,0.0,0.0,0.0,0.0,0.0,0.0,0.0,0.0,0.0,0.0,0.0,0.0,0.0,0.0,0.0,0.0,0.0,0.0,0.0,0.0,0.0,0.0,0.0,0.0,0.0,0.0,0.0,0.0,0.0,0.0,0.0,0.0,0.0,0.0,0.0,0.0,0.0,0.0,0.0,0.0,0.0,0.0,0.0,0.0,0.0,0.0,0.0,1.2448,1.0115,0.5435,0.1105,-0.2218,-0.6062,-0.8721,-0.9615,0.0,0.0,0.0,0.0,0.0,0.0,0.0,0.0,0.0,0.0,0.0,0.0,0.0,0.0,0.0,0.0,0.0,0.0,0.0,0.0,0.0,0.0,0.0,0.0,0.0,0.0,0.0,0.0,0.0,0.0,0.0,0.0,0.0,0.0,0.0,0.0,0.0,0.0,0.0,0.0,0.0,0.0,0.0,0.0,0.0,0.0,0.0,0.0,0.0,0.0,0.0,0.0,0.0,0.0,0.0,0.0,0.0,0.0,0.0,0.0,0.0,0.0,0.0,0.0,0.0,0.0,0.0,0.0,0.0,0.0,0.0,0.0,0.0,0.0,0.0,0.0,0.0,0.0,0.0,0.0,0.0,0.0,0.0,0.0,0.0,0.0,0.0,0.0,0.0,0.0,0.0,0.0,0.0,0.0,0.0,0.0,0.0,0.0,0.0,0.0,0.0,0.0,0.0,0.0,1.1352,0.7722,0.5719,0.3034,-0.0846,-0.3936,-0.61,-0.7165,0.0,0.0,0.0,0.0,0.0,0.0,0.0,0.0,0.0,0.0,0.0,0.0,0.0,0.0,0.0,0.0,0.0,0.0,0.0,0.0,0.0,0.0,0.0,0.0,0.0,0.0,0.0,0.0,0.0,0.0,0.0,0.0,0.0,0.0,0.0,0.0,0.0,0.0,0.0,0.0,0.0,0.0,0.0,0.0,0.0,0.0,0.0,0.0,0.0,0.0,0.0,0.0,0.0,0.0,0.0,0.0,0.0,0.0,0.0,0.0,0.0,0.0,0.0,0.0,0.0,0.0,0.0,0.0,0.0,0.0,0.0,0.0,0.0,0.0,0.0,0.0,0.0,0.0,0.0,0.0,0.0,0.0,0.0,0.0,0.0,0.0,0.0,0.0,0.0,0.0,0.0,0.0,0.0,0.0,0.0,0.0,0.0,0.0,0.0,0.0,0.0,0.0,0.0,1.2128,1.0755,0.8724,0.6774,0.4487,0.1581,-0.1715,-0.4083,-0.513,-0.8652,0.0,0.0,0.0,0.0,0.0,0.0,0.0,0.0,0.0,0.0,0.0,0.0,0.0,0.0,0.0,0.0,0.0,0.0,0.0,0.0,0.0,0.0,0.0,0.0,0.0,0.0,0.0,0.0,0.0,0.0,0.0,0.0,0.0,0.0,0.0,0.0,0.0,0.0,0.0,0.0,0.0,0.0,0.0,0.0,0.0,0.0,0.0,0.0,0.0,0.0,0.0,0.0,0.0,0.0,0.0,0.0,0.0,0.0,0.0,0.0,0.0,0.0,0.0,0.0,0.0,0.0,0.0,0.0,0.0,0.0,0.0,0.0,0.0,0.0,0.0,0.0,0.0,0.0,0.0,0.0,0.0,0.0,0.0,0.0,0.0,0.0,0.0,0.0,0.0,0.0,0.0,0.0,0.0,0.0,0.0,0.0,0.0,0.0,0.0,0.0,0.0,0.0,1.1546,1.0768,0.9938,0.7862,0.5606,0.3473,0.0106,-0.2391,-0.3485,-0.6064,0.0,0.0,0.0,0.0,0.0,0.0,0.0,0.0,0.0,0.0,0.0,0.0,0.0,0.0,0.0,0.0,0.0,0.0,0.0,0.0,0.0,0.0,0.0,0.0,0.0,0.0,0.0,0.0,0.0,0.0,0.0,0.0,0.0,0.0,0.0,0.0,0.0,0.0,0.0,0.0,0.0,0.0,0.0,0.0,0.0,0.0,0.0,0.0,0.0,0.0,0.0,0.0,0.0,0.0,0.0,0.0,0.0,0.0,0.0,0.0,0.0,0.0,0.0,0.0,0.0,0.0,0.0,0.0,0.0,0.0,0.0,0.0,0.0,0.0,0.0,0.0,0.0,0.0,0.0,0.0,0.0,0.0,0.0,0.0,0.0,0.0,0.0,0.0,0.0,0.0,0.0,0.0,0.0,0.0,0.0,0.0,0.0,0.0,0.0,0.0,0.0,0.0,1.2081,1.1652,0.9558,0.8357,0.6535,0.3723,0.1078,-0.1015,-0.2403,-0.473,0.0,0.0,0.0,0.0,0.0,0.0,0.0,0.0,0.0,0.0,0.0,0.0,0.0,0.0,0.0,0.0,0.0,0.0,0.0,0.0,0.0,0.0,0.0,0.0,0.0,0.0,0.0,0.0,0.0,0.0,0.0,0.0,0.0,0.0,0.0,0.0,0.0,0.0,0.0,0.0,0.0,0.0,0.0,0.0,0.0,0.0,0.0,0.0,0.0,0.0,0.0,0.0,0.0,0.0,0.0,0.0,0.0,0.0,0.0,0.0,0.0,0.0,0.0,0.0,0.0,0.0,0.0,0.0,0.0,0.0,0.0,0.0,0.0,0.0,0.0,0.0,0.0,0.0,0.0,0.0,0.0,0.0,0.0,0.0,0.0,0.0,0.0,0.0,0.0,0.0,0.0,0.0,0.0,0.0,0.0,0.0,0.0,0.0,0.0,0.0,0.0,0.0,1.1713,1.1363,1.0334,0.8896,0.6871,0.4148,0.1715,-0.042,-0.2111,0.0,0.0,0.0,0.0,0.0,0.0,0.0,0.0,0.0,0.0,0.0,0.0,0.0,0.0,0.0,0.0,0.0,0.0,0.0,0.0,0.0,0.0,0.0,0.0,0.0,0.0,0.0,0.0,0.0,0.0,0.0,0.0,0.0,0.0,0.0,0.0,0.0,0.0,0.0,0.0,0.0,0.0,0.0,0.0,0.0,0.0,0.0,0.0,0.0,0.0,0.0,0.0,0.0,0.0,0.0,0.0,0.0,0.0,0.0,0.0,0.0,0.0,0.0,0.0,0.0,0.0,0.0,0.0,0.0,0.0,0.0,0.0,0.0,0.0,0.0,0.0,0.0,0.0,0.0,0.0,0.0,0.0,0.0,0.0,0.0,0.0,0.0,0.0,0.0,0.0,0.0,0.0,0.0,0.0,0.0,0.0,0.0,0.0,0.0,0.0,0.0,0.0,1.1601,1.1398,1.1155,1.0746,0.9148,0.7116,0.462,0.2456,0.0265,-0.191,0.0,0.0,0.0,0.0,0.0,0.0,0.0,0.0,0.0,0.0,0.0,0.0,0.0,0.0,0.0,0.0,0.0,0.0,0.0,0.0,0.0,0.0,0.0,0.0,0.0,0.0,0.0,0.0,0.0,0.0,0.0,0.0,0.0,0.0,0.0,0.0,0.0,0.0,0.0,0.0,0.0,0.0,0.0,0.0,0.0,0.0,0.0,0.0,0.0,0.0,0.0,0.0,0.0,0.0,0.0,0.0,0.0,0.0,0.0,0.0,0.0,0.0,0.0,0.0,0.0,0.0,0.0,0.0,0.0,0.0,0.0,0.0,0.0,0.0,0.0,0.0,0.0,0.0,0.0,0.0,0.0,0.0,0.0,0.0,0.0,0.0,0.0,0.0,0.0,0.0,0.0,0.0,0.0,0.0,0.0,0.0,0.0,0.0,0.0,0.0,0.0,0.0,1.1104,1.1345,1.1325,1.0474,0.9013,0.7186,0.5004,0.3268,0.109,0.0,0.0,0.0,0.0,0.0,0.0,0.0,0.0,0.0,0.0,0.0,0.0,0.0,0.0,0.0,0.0,0.0,0.0,0.0,0.0,0.0,0.0,0.0,0.0,0.0,0.0,0.0,0.0,0.0,0.0,0.0,0.0,0.0,0.0,0.0,0.0,0.0,0.0,0.0,0.0,0.0,0.0,0.0,0.0,0.0,0.0,0.0,0.0,0.0,0.0,0.0,0.0,0.0,0.0,0.0,0.0,0.0,0.0,0.0,0.0,0.0,0.0,0.0,0.0,0.0,0.0,0.0,0.0,0.0,0.0,0.0,0.0,0.0,0.0,0.0,0.0,0.0,0.0,0.0,0.0,0.0,0.0,0.0,0.0,0.0,0.0,0.0,0.0,0.0,0.0,0.0,0.0,0.0,0.0,0.0,0.0,0.0,0.0,0.0,0.0,0.0,0.0,0.0,1.1454,1.172,1.1679,1.0878,0.8957,0.686,0.4848,0.2909,0.0855,-0.136,0.0,0.0,0.0,0.0,0.0,0.0,0.0,0.0,0.0,0.0,0.0,0.0,0.0,0.0,0.0,0.0,0.0,0.0,0.0,0.0,0.0,0.0,0.0,0.0,0.0,0.0,0.0,0.0,0.0,0.0,0.0,0.0,0.0,0.0,0.0,0.0,0.0,0.0,0.0,0.0,0.0,0.0,0.0,0.0,0.0,0.0,0.0,0.0,0.0,0.0,0.0,0.0,0.0,0.0,0.0,0.0,0.0,0.0,0.0,0.0,0.0,0.0,0.0,0.0,0.0,0.0,0.0,0.0,0.0,0.0,0.0,0.0,0.0,0.0,0.0,0.0,0.0,0.0,0.0,0.0,0.0,0.0,0.0,0.0,0.0,0.0,0.0,0.0,0.0,0.0,0.0,0.0,0.0,0.0,0.0,0.0,0.0,0.0,0.0,0.0,0.0,0.0,1.1349,1.1556,1.1436,1.0555,0.8697,0.6709,0.4751,0.3051,0.1087,-0.1132,0.0,0.0,0.0,0.0,0.0,0.0,0.0,0.0,0.0,0.0,0.0,0.0,0.0,0.0,0.0,0.0,0.0,0.0,0.0,0.0,0.0,0.0,0.0,0.0,0.0,0.0,0.0,0.0,0.0,0.0,0.0,0.0,0.0,0.0,0.0,0.0,0.0,0.0,0.0,0.0,0.0,0.0,0.0,0.0,0.0,0.0,0.0,0.0,0.0,0.0,0.0,0.0,0.0,0.0,0.0,0.0,0.0,0.0,0.0,0.0,0.0,0.0,0.0,0.0,0.0,0.0,0.0,0.0,0.0,0.0,0.0,0.0,0.0,0.0,0.0,0.0,0.0,0.0,0.0,0.0,0.0,0.0,0.0,0.0,0.0,0.0,0.0,0.0,0.0,0.0,0.0,0.0,0.0,0.0,0.0,0.0,0.0,0.0,0.0,0.0,0.0,0.0,1.1128,1.12,1.0995,0.9919,0.8369,0.6635,0.4736,0.3372,0.1472,-0.1001,0.0,0.0,0.0,0.0,0.0,0.0,0.0,0.0,0.0,0.0,0.0,0.0,0.0,0.0,0.0,0.0,0.0,0.0,0.0,0.0,0.0,0.0,0.0,0.0,0.0,0.0,0.0,0.0,0.0,0.0,0.0,0.0,0.0,0.0,0.0,0.0,0.0,0.0,0.0,0.0,0.0,0.0,0.0,0.0,0.0,0.0,0.0,0.0,0.0,0.0,0.0,0.0,0.0,0.0,0.0,0.0,0.0,0.0,0.0,0.0,2.4026,2.3051,0.0,0.0,0.0,0.0,0.0,0.0,0.0,0.0,0.0,0.0,0.0,0.0,0.0,0.0,0.0,0.0,0.0,0.0,0.0,0.0,0.0,0.0,0.0,0.0,0.0,0.0,0.0,0.0,0.0,0.0,0.0,0.0,0.0,0.0,0.0,0.0,0.0,0.0,0.0,0.0,1.1935,1.1895,1.1642,1.0801,0.8155,0.5916,0.4714,0.2777,0.0846,-0.0865,-0.1616,0.0,0.0,0.0,0.0,0.0,0.0,0.0,0.0,0.0,0.0,0.0,0.0,0.0,0.0,0.0,0.0,0.0,0.0,0.0,0.0,0.0,0.0,0.0,0.0,0.0,0.0,0.0,0.0,0.0,0.0,0.0,0.0,0.0,0.0,0.0,0.0,0.0,0.0,0.0,0.0,0.0,0.0,0.0,0.0,0.0,0.0,0.0,0.0,0.0,0.0,0.0,0.0,0.0,0.0,0.0,0.0,0.0,0.0,0.0,2.5604,2.5025,0.0,0.0,0.0,0.0,0.0,0.0,0.0,0.0,0.0,0.0,0.0,0.0,0.0,0.0,0.0,0.0,0.0,0.0,0.0,0.0,0.0,0.0,0.0,0.0,0.0,0.0,0.0,0.0,0.0,0.0,0.0,0.0,0.0,0.0,0.0,0.0,0.0,0.0,0.0,0.0,1.2406,1.2253,1.1787,1.0694,0.8534,0.6416,0.4662,0.3266,0.1469,-0.0775,-0.1245,0.0,0.0,0.0,0.0,0.0,0.0,0.0,0.0,0.0,0.0,0.0,0.0,0.0,0.0,0.0,0.0,0.0,0.0,0.0,0.0,0.0,0.0,0.0,0.0,0.0,0.0,0.0,0.0,0.0,0.0,0.0,0.0,0.0,0.0,0.0,0.0,0.0,0.0,0.0,0.0,0.0,0.0,0.0,0.0,0.0,0.0,0.0,0.0,0.0,0.0,0.0,0.0,0.0,2.7923,2.7626,2.7352,2.7386,2.7309,2.7218,2.7207,2.7019,2.6755,2.5743,0.0,0.0,0.0,0.0,0.0,0.0,0.0,0.0,0.0,0.0,0.0,0.0,0.0,0.0,0.0,0.0,0.0,0.0,0.0,0.0,0.0,0.0,1.8583,1.9287,1.913,1.8646,1.7896,0.0,0.0,0.0,0.0,0.0,0.0,0.0,0.0,0.0,0.0,0.0,1.2832,1.2468,1.1742,1.0301,0.8899,0.7051,0.4637,0.3869,0.2324,-0.0416,-0.0723,-0.166,0.0,0.0,0.0,0.0,0.0,0.0,0.0,0.0,0.0,0.0,0.0,0.0,0.0,0.0,0.0,0.0,0.0,0.0,0.0,0.0,0.0,0.0,0.0,0.0,0.0,0.0,0.0,0.0,0.0,0.0,0.0,0.0,3.2532,3.3325,0.0,0.0,0.0,0.0,0.0,0.0,0.0,0.0,0.0,0.0,0.0,0.0,0.0,2.8373,2.9622,2.9544,2.9189,2.8706,2.8809,2.8534,2.7983,2.7998,2.7696,2.7311,2.7728,0.0,2.6361,2.5331,0.0,0.0,0.0,0.0,0.0,0.0,0.0,0.0,0.0,0.0,0.0,0.0,0.0,0.0,0.0,0.0,0.0,0.0,0.0,0.0,0.0,0.0,1.9095,1.9809,1.9213,1.8621,1.9242,1.8458,1.7658,1.7676,1.7619,1.7369,0.0,0.0,0.0,0.0,0.0,0.0,1.3743,1.2917,1.1825,1.0397,0.8313,0.633,0.473,0.3399,0.2067,0.0676,0.0207,-0.0663,-0.1979,-0.2354,0.0,0.0,0.0,0.0,0.0,0.0,0.0,0.0,0.0,0.0,0.0,0.0,0.0,0.0,0.0,0.0,0.0,0.0,0.0,0.0,0.0,0.0,0.0,0.0,0.0,0.0,0.0,0.0,0.0,3.244,3.4223,3.4103,3.3941,3.3466,0.0,0.0,0.0,0.0,0.0,0.0,0.0,0.0,0.0,2.9058,2.8887,2.9107,2.975,2.9363,2.8872,2.8436,2.8168,2.8009,2.7843,2.7637,2.7485,2.739,2.6989,2.6726,2.6573,2.6312,2.5847,2.5314,0.0,0.0,0.0,0.0,2.3756,2.3469,2.3353,2.3065,2.2557,2.1532,0.0,0.0,0.0,0.0,0.0,0.0,0.0,1.8547,1.9906,1.9875,1.9677,2.05,2.0134,1.9616,1.9879,1.9179,1.8498,1.8498,1.8476,1.8271,1.7658,1.7359,0.0,0.0,0.0,1.5129,1.444,1.3275,1.1914,1.0446,0.8826,0.6995,0.4886,0.409,0.2827,0.0759,0.0624,0.0,-0.1313,-0.2047,-0.2632,0.0,0.0,0.0,0.0,0.0,0.0,0.0,0.0,0.0,0.0,0.0,0.0,0.0,0.0,0.0,0.0,0.0,0.0,0.0,0.0,0.0,0.0,0.0,0.0,0.0,0.0,0.0,0.0,3.4489,3.5755,3.535,3.5625,3.5248,0.0,0.0,0.0,0.0,0.0,0.0,3.0041,2.9727,2.958,2.9678,2.9546,2.9572,2.975,2.9068,2.851,2.8197,2.7485,2.7256,2.735,2.696,2.6803,2.6868,2.6114,2.5991,2.64,2.6458,2.6245,2.5886,2.5347,2.5048,2.4943,2.4837,2.4459,2.4127,2.427,2.3881,2.3274,2.2424,2.1903,2.1302,2.0052,0.0,0.0,0.0,0.0,1.8774,2.0292,2.0073,1.9644,2.0413,2.0042,1.9585,1.9626,1.915,1.8716,1.8874,1.8863,1.8666,1.8132,1.7751,0.0,1.7203,1.6354,1.5533,1.4952,1.356,1.2004,1.0354,0.9193,0.7529,0.5125,0.4746,0.3658,0.1351,0.1237,0.071,-0.0496,-0.1382,-0.1899,-0.2059,0.0,0.0,0.0,0.0,0.0,0.0,0.0,0.0,0.0,0.0,0.0,0.0,0.0,0.0,0.0,0.0,0.0,0.0,0.0,0.0,0.0,0.0,0.0,0.0,0.0,0.0,0.0,0.0,0.0,3.8499,3.8495,0.0,0.0,0.0,0.0,3.3069,3.2459,3.1846,3.1253,3.0551,3.0206,3.0275,2.9764,2.9572,2.9696,2.9233,2.8706,2.8097,2.7471,2.6903,2.6347,2.6051,2.5688,2.5384,2.5345,2.5472,2.5569,2.4504,2.5147,2.6697,2.5518,2.5501,2.6107,2.5814,2.5362,2.4904,2.4612,2.4002,2.3414,2.336,2.2585,2.1533,2.081,2.0716,0.0,0.0,1.9952,2.0282,1.9926,1.9185,1.8613,1.8804,1.8116,1.7625,1.8152,1.7773,1.7675,1.8768,1.8637,1.834,1.854,0.0,1.7463,1.747,1.6514,1.5646,1.5245,1.3656,1.1922,1.0126,0.8912,0.7402,0.5343,0.4732,0.4008,0.3135,0.2323,0.1541,0.0903,0.0285,-0.0789,-0.2432,-0.1457,0.0,0.0,0.0,0.0,0.0,0.0,0.0,0.0,0.0,0.0,0.0,0.0,0.0,0.0,0.0,0.0,0.0,0.0,0.0,0.0,0.0,0.0,0.0,0.0,0.0,0.0,0.0,0.0,3.8004,3.8277,0.0,3.6297,3.5177,3.4181,3.3256,3.3013,3.2472,3.1432,3.0289,2.9685,2.9655,2.8509,2.7875,2.7851,2.7166,2.6642,2.6236,2.5649,2.548,2.566,2.5338,2.5348,2.5597,2.491,2.4747,2.4968,2.3501,2.4008,2.5483,2.4849,2.4777,2.5049,2.5251,2.5082,2.472,2.4436,2.3536,2.237,2.1565,2.1439,2.1345,2.0689,2.0379,2.0359,2.0625,1.998,1.9292,2.0012,1.9231,1.8428,1.8808,1.8456,1.7988,1.7889,1.792,1.7958,1.7955,1.7655,1.7558,1.8114,1.7877,1.7655,1.7713,1.7234,1.6561,1.5629,1.4273,1.2664,1.0717,0.9339,0.7994,0.6475,0.5517,0.4481,0.3281,0.2582,0.1788,0.0796,0.0284,-0.036,-0.1187,-0.0917,-0.1155,0.0,0.0,0.0,0.0,0.0,0.0,0.0,0.0,0.0,0.0,0.0,0.0,0.0,0.0,0.0,0.0,0.0,0.0,0.0,0.0,0.0,0.0,0.0,0.0,0.0,3.8613,3.8917,3.794,3.835,3.8037,3.6198,3.5855,3.4998,3.325,3.3048,3.2298,3.0731,2.9693,2.9066,2.8909,2.7812,2.7067,2.6872,2.6321,2.5771,2.5283,2.482,2.4702,2.4858,2.4546,2.4641,2.4896,2.4193,2.4098,2.4341,2.3152,2.332,2.4288,2.413,2.403,2.4082,2.4299,2.4134,2.379,2.357,2.2917,2.2046,2.1165,2.12,2.1546,2.0942,2.0705,2.0571,2.0637,1.9881,1.9083,1.9349,1.8765,1.8055,1.8298,1.8078,1.7733,1.7274,1.7233,1.7243,1.682,1.6899,1.7292,1.8097,1.7681,1.7385,1.7748,1.7312,1.6578,1.5565,1.4438,1.2949,1.1058,0.977,0.8482,0.7077,0.6073,0.4916,0.356,0.2953,0.2276,0.1487,0.0898,0.0528,0.0424,0.0324,0.0206,0.0218,0.0,0.0,0.0,0.0,0.0,0.0,0.0,0.0,0.0,0.0,0.0,0.0,0.0,0.0,0.0,0.0,0.0,0.0,0.0,0.0,0.0,0.0,0.0,4.0253,4.0115,3.9648,3.8622,3.9019,3.867,3.6861,3.7043,3.6091,3.3212,3.2639,3.1481,2.933,2.8814,2.8422,2.8112,2.7705,2.7352,2.6961,2.6855,2.6344,2.5337,2.5162,2.4693,2.4016,2.363,2.3473,2.331,2.331,2.3431,2.3629,2.3225,2.3195,2.3392,2.3537,2.3478,2.3349,2.3163,2.2739,2.2148,2.1896,2.216,2.2571,2.2332,2.2138,2.2023,2.1574,2.1702,2.164,1.9818,1.9738,1.9863,1.7991,1.7616,1.7582,1.7119,1.6943,1.6732,1.6185,1.568,1.5342,1.541,1.6487,1.7616,1.8391,1.7327,1.6641,1.74,1.6545,0.0,1.4961,1.3961,1.2744,1.1214,1.0148,0.8845,0.7103,0.6309,0.5358,0.4115,0.3485,0.3187,0.3197,0.2208,0.194,0.2406,0.2314,0.255,0.3209,0.0,0.0,0.0,0.0,0.0,0.0,0.0,0.0,0.0,0.0,0.0,0.0,0.0,0.0,0.0,0.0,0.0,0.0,0.0,0.0,0.0,4.2527,4.2545,4.1245,4.099,4.0331,3.8678,3.8531,3.8028,3.6753,3.6442,3.5466,3.3309,3.269,3.1567,2.9592,2.8629,2.8076,2.7898,2.6763,2.6118,2.5983,2.5456,2.4914,2.4398,2.4309,2.4163,2.3937,2.3928,2.3916,2.3851,2.3502,2.3195,2.2874,2.2577,2.2411,2.2372,2.2805,2.2811,2.2466,2.2731,2.272,2.2423,2.1428,2.1732,2.2389,2.0919,2.1141,2.1653,2.0216,2.0127,2.0303,1.943,1.9011,1.8896,1.8828,1.8159,1.7578,1.7755,1.706,1.6279,1.6153,1.5912,1.568,1.5584,1.5837,1.6111,1.6131,1.5658,1.5418,1.5783,1.5729,1.5375,1.4541,1.4215,1.3384,1.1703,1.067,0.9587,0.8254,0.7018,0.5873,0.4719,0.4558,0.3987,0.2899,0.3635,0.4189,0.4495,0.3602,0.4022,0.0,0.0,0.0,0.0,0.0,0.0,0.0,0.0,0.0,0.0,0.0,0.0,0.0,0.0,0.0,0.0,0.0,0.0,0.0,0.0,0.0,0.0,4.3502,4.3498,4.2101,4.1499,4.0533,3.8716,3.8,3.7107,3.5751,3.5303,3.4142,3.1903,3.136,3.0434,2.8871,2.8028,2.7554,2.7433,2.6528,2.5912,2.564,2.5163,2.4614,2.4051,2.3955,2.3829,2.3655,2.3848,2.3888,2.3803,2.3717,2.3431,2.3113,2.2896,2.2591,2.2262,0.0,0.0,0.0,0.0,2.2217,2.2105,2.1402,2.1701,2.2255,2.1266,2.1129,2.1296,2.0251,1.9934,1.9904,1.9389,1.8954,1.8695,1.879,1.8132,1.7537,1.7699,1.6937,1.6192,1.621,1.5807,1.5365,1.5345,1.5263,0.0,1.4759,1.4856,1.5046,1.5337,1.5498,1.5321,1.4501,1.452,1.4008,1.2391,1.1472,1.0423,0.9148,0.7896,0.0,0.0,0.0,0.5302,0.4282,0.5594,0.0,0.0,0.0,0.6327,0.7987,0.7601,0.0,0.0,0.8877,0.9811,0.0,0.0,0.0,0.0,0.0,0.0,0.0,0.0,0.0,0.0,0.0,0.0,0.0,0.0,0.0,0.0,4.3597,4.3708,4.2881,4.1646,4.0201,3.8565,3.7413,3.608,3.432,3.3769,3.2472,2.9908,2.9392,2.8705,2.756,2.7116,0.0,0.0,0.0,2.6062,2.5493,2.5357,2.4877,2.3998,2.3912,2.3627,2.3319,2.3594,2.359,2.3382,2.3676,2.3774,2.3619,2.3482,2.3129,2.2592,2.2538,2.2384,2.2111,2.1631,2.1506,2.1616,2.1545,0.0,0.0,2.2347,2.1704,2.0913,2.1021,2.0606,2.0015,1.9535,1.9144,1.8835,1.8289,1.7863,1.7526,1.7381,1.6841,1.6348,1.6272,1.5505,1.4779,1.4834,1.471,1.447,1.4014,1.4507,1.5038,1.5243,1.5295,1.5095,1.4443,1.4665,1.4435,1.3152,1.2271,0.0,0.9898,0.8912,0.8101,0.7524,0.7296,0.7026,0.6692,0.7807,0.8364,0.8216,0.8503,0.9103,0.999,1.0001,1.0953,1.2674,1.1488,1.1795,0.0,0.0,0.0,0.0,0.0,0.0,0.0,0.0,0.0,0.0,0.0,0.0,0.0,0.0,0.0,4.4728,4.4382,4.3878,4.3748,4.1104,3.875,3.764,3.6614,3.5245,3.3351,3.2373,3.1276,2.9888,2.8981,2.8012,2.6926,2.6039,2.5343,2.4898,2.4757,2.4464,2.4076,2.4221,2.3966,2.3366,2.382,0.0,2.3464,2.3589,2.3454,2.3134,2.2898,2.2638,2.2424,2.2369,2.2193,2.185,2.1663,2.1667,2.1678,2.0947,2.1163,2.1756,2.1341,2.1452,2.1789,2.2103,2.1644,2.0892,2.0532,2.0346,0.0,1.8823,1.8564,1.8619,1.8672,1.8244,1.7824,1.7709,1.7099,1.6373,1.5777,1.5449,1.5085,1.4547,1.4488,1.4307,1.3707,1.3774,1.3782,1.3549,1.3479,1.3537,1.3611,1.4068,1.4037,1.3266,1.2672,1.1889,1.0837,0.9915,0.9399,0.9358,0.9267,0.9202,0.9144,0.9587,0.984,0.9884,1.1046,1.2205,1.3202,1.3554,1.4282,1.5312,1.3141,1.3233,0.0,0.0,0.0,0.0,0.0,0.0,0.0,0.0,0.0,0.0,0.0,4.2815,4.3647,0.0,4.4534,4.536,4.4652,4.3711,4.291,4.0882,3.8781,3.6911,3.5459,3.3855,3.1972,3.09,2.9861,2.8773,2.7441,2.6509,2.6216,2.5243,2.4708,2.4697,2.4506,2.4273,2.4016,2.4197,2.3925,2.3177,2.3743,2.3748,2.3186,2.3588,2.3561,2.3247,2.3207,2.299,2.2724,2.2419,2.2247,2.213,2.1567,2.135,2.1344,2.0902,2.1186,2.1697,2.1427,2.1527,2.1704,2.186,2.1289,2.0414,2.0109,1.9721,1.9233,1.8833,1.8435,1.8248,1.8588,1.8319,1.7823,1.7569,1.7083,1.6622,1.6291,1.5901,1.5584,1.5605,1.5575,1.5435,1.4989,1.4499,1.3913,1.3315,1.3351,1.3563,1.3768,1.4316,1.4444,1.3909,1.3534,1.3076,1.2447,1.1836,1.152,1.1496,1.144,1.1441,1.1322,1.1948,1.2511,1.3056,1.3479,1.4624,1.6334,1.5747,1.6204,1.7549,1.6219,1.6289,0.0,0.0,0.0,0.0,0.0,0.0,0.0,4.1512,4.1906,4.3405,4.4279,4.492,4.541,4.5423,4.5295,4.5087,4.4114,4.2928,4.1605,4.0309,3.8537,3.597,3.4356,3.2647,3.0686,2.9609,2.8529,2.7273,2.5721,2.4906,2.5098,2.418,2.3821,2.4215,2.399,2.3828,2.3739,2.3951,2.3694,2.2943,2.346,2.3325,2.2717,2.3334,2.3438,2.3173,2.3477,2.3459,2.3193,2.2669,2.2501,2.2444,2.1744,2.1327,2.1124,2.1082,2.1325,2.1695,2.1635,2.1719,2.1854,2.1889,2.1058,2.006,2.0047,1.9411,1.8685,1.89,1.848,1.8017,1.8465,1.8222,1.7797,1.7322,1.7095,1.6943,1.6822,1.6414,1.6244,1.6722,1.6767,1.6578,1.6271,1.5455,1.4582,1.3695,1.3685,1.3883,1.4157,1.4731,1.5073,1.4892,1.472,1.4448,1.4182,1.3943,1.3721,1.3451,1.3582,1.3534,1.3227,1.4258,1.5129,1.5833,1.5864,1.6791,1.8765,1.7578,1.7778,1.9316,1.9128,1.9158,3.743,3.823,3.9733,4.147,4.1856,4.2241,0.0,4.4265,4.4517,4.5408,4.5674,4.5531,4.484,4.4622,4.4295,4.3573,4.2017,4.0857,4.0731,3.8581,3.6285,3.4369,3.3824,3.2562,2.9963,2.8932,2.766,2.5869,2.4834,2.3929,2.3087,2.2134,2.1557,2.1436,2.1299,2.1399,2.1713,2.1931,2.2159,2.2377,2.2514,2.2355,2.1946,2.2349,2.2423,2.2193,2.2741,2.2864,2.2587,2.2548,2.2203,2.171,2.1739,2.1567,2.1255,2.1068,2.1476,2.2081,2.1878,2.1952,2.2237,2.2709,2.1707,2.0423,2.0825,2.0158,1.9134,1.8697,1.8489,1.8425,1.8352,1.8218,1.795,1.7395,1.7478,1.7454,1.6579,1.6816,1.7055,1.6546,1.6586,1.653,1.6048,1.5704,1.5201,1.4316,1.3701,1.357,1.4111,1.4812,1.5543,1.62,1.6303,1.61,1.5539,1.5618,1.5423,1.4731,1.5191,1.5164,1.4433,1.5525,1.6262,1.6432,1.811,1.9044,1.9241,1.9443,1.9693,2.0007,2.0056,1.9967,3.7784,3.9162,4.0707,4.1954,4.2228,4.2665,4.4374,4.4374,4.4364,4.5692,4.5553,4.5095,4.4723,4.3775,4.2931,4.255,4.1061,3.9733,3.9218,3.7742,3.5869,3.3585,3.273,3.1433,2.9191,2.7714,2.6355,2.5022,2.3228,2.2202,2.2118,2.1261,2.0897,2.1175,2.1007,2.0974,2.1051,2.1362,2.1568,2.162,2.2232,2.2343,2.1987,2.2279,2.2089,2.1535,2.1741,2.1757,2.1743,2.2047,2.2028,2.1832,2.2076,2.2063,2.1874,2.1332,2.1499,2.2001,2.2075,2.209,2.2145,2.2477,2.1567,2.0337,2.0644,1.9886,1.8919,1.8932,1.8769,1.856,1.8641,1.8769,1.8727,1.8179,1.8355,1.8365,1.7361,1.7612,1.7866,1.7516,1.7683,1.7894,1.7814,1.7461,1.7093,1.6888,1.5549,1.465,1.4891,1.5684,1.6523,1.7372,1.752,1.7515,1.7385,1.7097,1.6888,1.6809,1.7111,1.7135,1.6799,1.8104,1.9085,1.9645,2.0133,2.0918,2.1902,2.1463,2.1504,2.1989,2.199,2.1999,3.8112,3.9388,4.0572,4.1673,4.1937,4.2397,4.4091,4.3976,4.3879,4.5084,4.4841,4.4258,4.3772,4.2625,4.1595,4.1098,3.9777,3.8581,3.7897,3.7025,3.5592,3.3211,3.2275,3.0968,2.8871,2.6843,2.5161,2.3982,2.1995,2.0938,2.1117,2.0519,2.0363,2.0789,2.0623,2.0557,2.0611,2.0858,2.0984,2.0969,2.1826,2.2057,2.1714,2.2086,2.2077,2.1771,2.1614,2.1575,2.162,2.1992,2.2117,2.2135,2.2542,2.2746,2.2702,2.2183,2.1992,2.2081,2.2312,2.2415,2.2452,2.2357,2.1552,2.0594,2.0564,1.9823,1.9045,1.9358,1.9248,1.902,1.9124,1.9277,1.9362,1.8932,1.9069,1.9058,1.8361,1.8458,1.8664,1.863,1.886,1.9184,1.9427,1.907,1.8812,1.8972,1.7744,1.6665,1.6211,1.7057,1.7852,1.8346,1.8782,1.895,1.8823,1.8724,1.8725,1.8889,1.9267,1.9456,1.9404,2.0475,2.1421,2.2247,2.1882,2.2407,2.3975,2.3058,2.2995,2.3784,2.3756,2.3968,3.8266,3.8541,3.8975,4.0623,4.1032,4.1498,4.3253,4.3614,4.3614,4.3653,4.3653,4.3128,4.1416,4.101,4.041,3.8769,3.7704,3.7065,3.7036,3.6239,3.4986,3.3211,3.2909,3.1859,2.9337,2.6619,2.4293,2.2499,2.1505,2.06,1.9713,1.9634,1.9606,1.9559,1.9408,1.9585,2.0118,2.0006,2.0159,2.0616,2.1103,2.1092,2.0659,2.1455,2.234,2.3208,2.2976,2.2781,2.2656,2.2671,2.2577,2.2452,2.3188,2.3546,2.3678,2.3732,2.3262,2.2653,2.2693,2.3071,2.3447,2.2708,2.2118,2.1513,2.0896,2.0283,1.9846,1.9867,1.9919,1.9904,1.9732,1.9639,1.9573,1.9471,1.9419,1.9368,1.9273,1.9273,1.9361,1.9603,1.9711,1.9859,2.0139,2.0043,1.9932,1.9794,1.9996,1.9637,1.8208,1.8935,1.9506,1.919,2.0158,2.0414,1.9387,2.0574,2.1171,2.067,2.1713,2.2269,2.1987,2.2047,2.2406,2.315,2.3087,2.3469,2.4376,2.393,2.4167,2.4938,2.4887,2.5247,3.5903,3.683,3.7835,3.8356,3.8901,3.9649,4.0812,4.0637,4.0539,4.1688,4.1487,4.1078,4.1071,4.0584,3.9779,3.8597,3.7695,3.6915,3.6287,3.5426,3.4448,3.3277,3.2077,3.082,2.9371,2.7236,2.5444,2.4252,2.281,2.1588,2.0709,2.0621,2.0307,1.9718,2.0131,2.0133,1.9646,2.0094,2.0282,2.0281,2.1167,2.1686,2.1932,2.1991,2.2073,2.2243,2.2195,2.2132,2.2069,2.2309,2.2453,2.2549,2.3449,2.3602,2.3342,2.4072,2.4062,2.3623,2.3146,2.2938,2.2848,2.2793,2.2202,2.1561,2.1512,2.0855,2.0213,2.053,2.0516,2.0398,2.0429,2.0481,2.0516,2.0516,2.0601,2.0651,2.0353,2.0385,2.04,2.0366,2.0483,2.0698,2.1007,2.1212,2.1376,2.152,2.0748,2.0139,2.0151,2.0495,2.0875,2.1151,2.1302,2.1335,2.128,2.1393,2.1725,2.2401,2.3145,2.3767,2.4204,2.4393,2.4755,2.5303,2.5086,2.5433,2.6382,2.6396,2.6504,2.6708,2.6821,2.6986,3.4626,3.5284,3.5979,3.6247,3.6957,3.7825,3.8678,3.8672,3.8814,3.9936,3.9965,3.9872,4.0125,3.9969,3.9399,3.8166,3.7537,3.6779,3.5534,3.4897,3.4105,3.2901,3.1778,3.0762,2.9889,2.8367,2.6811,2.5294,2.3831,2.262,2.1757,2.1339,2.0876,2.0318,2.0458,2.0206,1.9504,1.9985,2.0223,2.0246,2.1159,2.1771,2.2124,2.2383,2.2253,2.1817,2.2071,2.2207,2.2231,2.2459,2.2614,2.2803,2.3619,2.3704,2.3455,2.4463,2.4697,2.4447,2.37,2.3374,2.3259,2.2953,2.247,2.1969,2.1924,2.1488,2.1038,2.1305,2.1321,2.1259,2.126,2.1368,2.1488,2.1488,2.1655,2.1744,2.1469,2.1425,2.1411,2.1256,2.1364,2.1546,2.1824,2.2272,2.2667,2.2929,2.2218,2.1647,2.172,2.182,2.1951,2.2173,2.2479,2.2678,2.2779,2.3241,2.3902,2.4752,2.5437,2.5957,2.6246,2.639,2.6619,2.6951,2.6818,2.7249,2.8262,2.8389,2.8525,2.8652,2.8667,2.8712,3.4293,3.3964,3.359,3.4368,3.5256,3.613,3.6908,3.7742,3.8395,3.8475,3.9165,3.952,3.8765,3.9309,3.9302,3.7604,3.7297,3.665,3.4915,3.4586,3.3913,3.2221,3.1975,3.1605,3.0781,2.9894,2.8299,2.5707,2.463,2.3716,2.2793,2.1909,2.1371,2.1284,2.0497,2.0002,1.977,1.9726,1.9987,2.0533,2.1096,2.1333,2.1365,2.2615,2.2789,2.214,2.2712,2.3023,2.3147,2.3076,2.3076,2.3194,2.3736,2.3929,2.4016,2.4952,2.5295,2.5132,2.4438,2.4397,2.448,2.3229,2.2835,2.2748,2.2225,2.2135,2.2235,2.2175,2.2286,2.2395,2.222,2.2286,2.2449,2.2432,2.2538,2.2643,2.2565,2.2398,2.2255,2.2283,2.2319,2.2452,2.2642,2.3209,2.3739,2.4008,2.4269,2.4038,2.2914,2.2905,2.2844,2.2422,2.3697,2.4377,2.3914,2.6043,2.7438,2.7558,2.8393,2.8636,2.8101,2.7942,2.7935,2.8109,2.8262,2.8833,2.9901,2.9947,3.0211,3.0701,3.0429,3.04,3.2082,3.2577,3.3301,3.2867,3.3916,3.5081,3.5282,3.6007,3.6989,3.8235,3.8712,3.9227,4.0244,4.0615,4.0418,3.9307,3.8637,3.7611,3.5818,3.4488,3.3306,3.2192,3.1504,3.1016,3.0794,3.0565,2.9869,2.8541,2.7513,2.6279,2.4771,2.4463,2.3716,2.2364,2.2677,2.2212,2.0827,2.0165,2.0158,2.0792,2.0886,2.1562,2.2696,2.2941,2.3234,2.3563,2.3784,2.3836,2.3777,2.3757,2.3775,2.3885,2.4444,2.435,2.4124,2.6072,2.6457,2.6086,2.6589,2.5783,2.4392,2.3412,2.3147,2.3119,2.2818,2.2758,2.2793,2.2832,2.2884,2.293,2.2919,2.2986,2.3076,2.3136,2.3206,2.3298,2.3383,2.332,2.3262,2.3307,2.3449,2.3633,2.3823,2.4094,2.4357,2.4628,2.4784,2.4632,2.4033,2.4129,2.4418,2.4919,2.5355,2.583,2.6346,2.6915,2.7547,2.8277,2.8457,2.8763,2.9251,2.8947,2.9107,2.9858,2.9894,3.0398,3.1393,3.176,3.1934,3.193,3.1968,3.2007,3.2065,3.235,3.2613,3.1758,3.2832,3.4139,3.4132,3.5073,3.6345,3.7692,3.828,3.8965,4.0312,4.0859,4.082,3.998,3.947,3.841,3.6259,3.4791,3.3517,3.2257,3.1326,3.0819,3.0849,3.0827,3.0606,3.0111,2.9171,2.7854,2.61,2.5654,2.4819,2.3446,2.3462,2.2816,2.1393,2.0852,2.0785,2.117,2.1483,2.2104,2.3,2.3628,2.3931,2.3978,2.4373,2.4509,2.4445,2.4414,2.4432,2.4507,2.48,2.4912,2.5094,2.6707,2.7306,2.7379,2.7954,2.7344,2.6171,2.5196,2.4876,2.4842,2.4301,2.4151,2.4094,2.3674,2.3858,2.4114,2.3769,2.4034,2.4316,2.3949,2.3933,2.4008,2.4118,2.4082,2.4063,2.4126,2.4245,2.4403,2.4613,2.4755,2.4917,2.5095,2.5495,2.5711,2.5487,2.5523,2.5765,2.6246,2.6997,2.7652,2.8145,2.8462,2.8874,2.9398,2.9358,2.9519,2.995,2.9715,2.9942,3.0708,3.0956,3.1499,3.2361,3.292,3.3176,3.3148,3.3156,3.3164,3.2996,3.2627,3.1909,3.1145,3.2184,3.3435,3.3535,3.4765,3.6208,3.7243,3.8002,3.8819,3.9875,4.064,4.0875,4.0171,3.996,3.9023,3.6523,3.5429,3.4178,3.2321,3.1421,3.0952,3.0897,3.0831,3.0808,3.0797,2.9943,2.8749,2.7235,2.634,2.5425,2.4495,2.3629,2.2727,2.1776,2.1727,2.163,2.152,2.2342,2.2786,2.2956,2.433,2.463,2.4043,2.4745,2.5051,2.5041,2.4998,2.5064,2.5212,2.5156,2.5674,2.6527,2.7297,2.8034,2.8708,2.8886,2.8948,2.8732,2.7509,2.7086,2.6951,2.6132,2.5922,2.5737,2.4708,2.5035,2.5528,2.477,2.5235,2.5716,2.5083,2.4965,2.5026,2.5086,2.508,2.5006,2.4843,2.5032,2.5262,2.5313,2.5531,2.5688,2.574,2.6447,2.695,2.6948,2.6915,2.6961,2.7101,2.845,2.9363,2.9453,3.0117,3.05,3.0503,3.0497,3.0443,3.0333,3.0278,3.0505,3.1068,3.1654,3.2315,3.309,3.3695,3.4067,3.4233,3.412,3.4072,3.2558,3.2127,3.1982,3.1835,3.2592,3.3565,3.4239,3.5171,3.6355,3.7956,3.8397,3.8997,4.0603,4.1016,4.1055,4.0909,4.0291,3.9186,3.7333,3.6318,3.4858,3.2382,3.1971,3.16,3.0898,3.0801,3.08,3.0801,2.998,2.9348,2.9042,2.8212,2.702,2.5414,2.4534,2.3618,2.2688,2.2719,2.2345,2.16,2.244,2.3237,2.3945,2.4164,2.4585,2.5137,2.5277,2.5335,2.5323,2.5324,2.5732,2.6405,2.6385,2.692,2.7795,2.8629,2.9057,2.9271,3.0011,3.0225,2.9906,2.8142,2.7585,2.7552,2.7458,2.736,2.7108,2.6313,2.6137,2.6159,2.6058,2.6165,2.6436,2.7017,2.7142,2.718,2.726,2.7336,2.6992,2.5626,2.6528,2.7312,2.6622,2.7127,2.7595,2.7563,2.7693,2.777,2.7725,2.7794,2.8121,2.8795,2.9184,2.9654,3.0325,3.0503,3.0584,3.0586,3.0525,3.0518,3.055,3.0478,3.0761,3.1396,3.2259,3.2993,3.3571,3.457,3.4993,3.4923,3.4966,3.4921,3.2396,3.2278,3.2512,3.2102,3.2683,3.3575,3.4417,3.5261,3.627,3.7566,3.819,3.8887,4.0188,4.0797,4.0957,4.0508,4.0453,3.9871,3.8177,3.7204,3.6035,3.4281,3.3305,3.2428,3.1553,3.1474,3.1298,3.0832,3.0401,2.9996,2.9568,2.83,2.6971,2.5697,2.525,2.4584,2.3696,2.3704,2.3492,2.3002,2.3429,2.4074,2.4878,2.4877,2.5109,2.5494,2.5496,2.5494,2.5549,2.5998,2.6429,2.6861,2.726,2.7966,2.8787,2.9197,2.9646,3.0093,3.05,3.0637,3.046,2.9553,2.924,2.913,2.8715,2.8534,2.8327,2.756,2.7599,2.7768,2.7332,2.7609,2.7945,2.7872,2.7881,2.7924,2.7956,2.8001,2.7804,2.7009,2.7537,2.7954,2.7507,2.7749,2.7974,2.7906,2.8279,2.8515,2.8385,2.8829,2.9152,2.9188,2.9609,3.0043,3.0464,3.0464,3.0456,3.0487,3.0481,3.0474,3.0547,3.0552,3.0917,3.1695,3.2561,3.3353,3.408,3.4995,3.5444,3.541,3.5407,3.5385,3.3055,3.3024,3.3281,3.266,3.3024,3.3718,3.4406,3.5236,3.6066,3.6767,3.7592,3.8474,3.9349,4.0056,4.0359,3.9862,4.035,4.0316,3.895,3.8213,3.7336,3.604,3.4714,3.3431,3.2225,3.2092,3.1721,3.0863,3.0781,3.0437,2.9617,2.8268,2.7114,2.6234,2.6032,2.5525,2.4635,2.4612,2.4508,2.428,2.4449,2.4876,2.5499,2.5548,2.5576,2.5583,2.5588,2.557,2.5631,2.6509,2.6974,2.7201,2.8014,2.8868,2.9643,2.9636,3.0072,3.0687,3.0651,3.0664,3.0677,3.0677,3.0643,3.0482,2.981,2.9615,2.9437,2.8609,2.8826,2.9159,2.8437,2.8808,2.9218,2.8667,2.8588,2.8589,2.8396,2.8507,2.8533,2.8154,2.8364,2.8528,2.8286,2.8313,2.8377,2.8307,2.8832,2.9166,2.9017,2.9546,2.9751,2.921,2.9786,3.0235,3.0278,3.0237,3.0239,3.0298,3.0501,3.0635,3.069,3.0933,3.141,3.2116,3.2943,3.371,3.44,3.5212,3.5644,3.5703,3.564,3.565,3.5334,3.4641,3.4182,3.4097,3.4197,3.4322,3.4408,3.5144,3.5829,3.5908,3.6623,3.7506,3.8376,3.8597,3.8889,3.959,3.9785,3.9765,3.9604,3.9524,3.8595,3.6197,3.5703,3.4665,3.2323,3.2049,3.1674,3.0862,3.0745,3.0355,2.9542,2.9299,2.8768,2.7898,2.7115,2.6273,2.5404,2.5343,2.4935,2.4219,2.4946,2.5379,2.5493,2.551,2.5515,2.5517,2.5507,2.5471,2.5492,2.6415,2.7207,2.79,2.8764,2.9629,3.041,3.0393,3.0486,3.0603,3.0545,3.0564,3.0614,3.0614,3.0647,3.0687,3.0599,3.0604,3.045,2.9468,2.9293,2.934,2.9129,2.9157,2.9405,3.0101,3.0309,3.0153,2.935,2.9804,2.9906,2.8313,2.924,2.9999,2.9147,2.9548,2.9966,2.9904,2.976,2.9652,2.9619,2.9533,2.9456,2.9382,2.9706,2.9954,2.9954,2.9935,2.9935,2.995,3.0791,3.1301,3.1328,3.2141,3.269,3.289,3.3751,3.4268,3.4393,3.5262,3.5683,3.5699,3.569,3.568,3.4913,3.437,3.4199,3.428,3.4326,3.4475,3.5,3.5417,3.5689,3.5727,3.6424,3.7141,3.7497,3.8027,3.8517,3.8848,3.9365,3.9696,3.9696,3.9671,3.9071,3.7517,3.6895,3.5776,3.3738,3.3522,3.2943,3.1564,3.0948,3.0253,2.9373,2.8826,2.8171,2.7284,2.6369,2.5727,2.5386,2.5356,2.5158,2.4806,2.5178,2.5335,2.532,2.5283,2.5245,2.5235,2.5717,2.5919,2.6044,2.7479,2.824,2.8582,2.9451,2.9998,3.0314,3.0362,3.0392,3.0411,3.0392,3.0362,3.0359,3.0367,3.0384,3.043,3.0528,3.0568,3.0477,3.0129,2.9945,2.9891,2.9873,2.9825,2.9902,3.0289,3.0395,3.0317,2.997,3.0163,3.0209,2.9464,2.9821,3.0132,2.9702,2.9783,2.9851,2.9767,2.957,2.9416,2.9277,2.9172,2.9082,2.9052,2.9357,2.957,2.9589,2.9495,2.972,3.0396,3.0771,3.1258,3.1876,3.2314,3.286,3.3475,3.3857,3.436,3.494,3.5334,3.5532,3.5514,3.5563,3.5581,3.5615,3.5277,3.5181,3.5301,3.5149,3.5072,3.5461,3.5574,3.5549,3.5338,3.6008,3.6619,3.6619,3.7169,3.7778,3.8291,3.8877,3.9441,3.9946,3.9956,3.9606,3.8752,3.8142,3.7007,3.5029,3.4138,3.3161,3.1932,3.1033,3.024,2.9501,2.8415,2.7574,2.7041,2.6111,2.5621,2.5592,2.5312,2.5175,2.5141,2.5133,2.5252,2.5456,2.5101,2.519,2.564,2.5697,2.6021,2.6637,2.7878,2.8531,2.8808,2.9732,3.0071,3.0071,3.0128,3.0155,3.015,3.0155,3.0122,3.0109,3.0114,3.0114,3.0131,3.0213,3.0271,3.0312,3.0309,3.0183,3.0065,3.0112,3.0103,3.0075,3.0106,3.0112,3.0131,3.0145,3.0171,3.0169,3.0075,3.0003,2.9912,2.9784,2.9626,2.9475,2.9339,2.9212,2.9079,2.8883,2.8766,2.8688,2.8626,2.9093,2.9337,2.9265,2.9304,2.9736,3.0562,3.107,3.1656,3.2379,3.2766,3.3318,3.4016,3.4087,3.4475,3.5184,3.5228,3.5254,3.5278,3.5311,3.5361,3.8398,3.8118,3.7602,3.7728,3.7179,3.6373,3.5589,3.5489,3.5361,3.4582,3.5106,3.5718,3.5699,3.5728,3.629,3.8015,3.8236,3.8814,4.0548,4.0738,4.0384,3.9591,3.9419,3.8375,3.5828,3.3255,3.1725,3.17,3.0883,3.0318,3.0104,2.8384,2.7527,2.7773,2.6878,2.6365,2.6288,2.5373,2.4947,2.4993,2.4804,2.5194,2.605,2.4989,2.548,2.7081,2.5367,2.5562,2.7107,2.7172,2.765,2.8408,2.9416,2.9771,2.9717,2.9771,2.9805,2.9801,2.9806,2.9841,2.9905,2.9905,2.9905,2.9872,2.9677,2.9836,3.0079,2.9939,2.9817,2.9717,2.9717,2.9753,2.9789,2.9717,2.9697,2.9731,2.9801,2.9869,2.9851,2.9731,2.9662,2.9533,2.9241,2.9153,2.9064,2.8929,2.8803,2.8651,2.8529,2.8378,2.83,2.8201,2.9026,2.9403,2.8936,2.9582,3.0039,3.0191,3.1819,3.2802,3.2876,3.3846,3.4439,3.4593,3.4655,3.4755,3.4906,3.4906,3.4925,3.4997,3.4925,3.4997,3.6969,3.6786,3.6539,3.6129,3.587,3.5645,3.5388,3.5355,3.5339,3.5194,3.5361,3.5579,3.562,3.5635,3.6187,3.7889,3.8148,3.8735,4.0494,4.0668,4.0318,3.9455,3.829,3.6991,3.5611,3.3635,3.2455,3.2455,3.1092,2.9749,2.8523,2.787,2.7462,2.7335,2.5933,2.5126,2.4995,2.4832,2.4685,2.4522,2.4554,2.4951,2.565,2.4671,2.4838,2.5875,2.5281,2.5299,2.5908,2.7154,2.7805,2.8118,2.9078,2.9336,2.9153,2.9316,2.924,2.9079,2.9196,2.9214,2.9175,2.9256,2.9237,2.9198,2.9135,2.9361,2.9586,2.9457,2.9379,2.9399,2.9589,2.9608,2.9608,2.9682,2.9551,2.9456,2.957,2.9476,2.9358,2.9318,2.9235,2.9089,2.8824,2.87,2.8578,2.8504,2.8378,2.8228,2.8037,2.8045,2.8238,2.8653,2.8995,2.9176,2.917,2.988,3.0676,3.1456,3.1983,3.2593,3.335,3.3739,3.4023,3.4203,3.4208,3.4325,3.4567,3.4609,3.4651,3.4732,3.4572,3.4572,3.65,3.6531,3.648,3.6083,3.5829,3.5687,3.5752,3.5515,3.533,3.546,3.5493,3.5488,3.5547,3.554,3.6074,3.7777,3.8323,3.9113,4.0834,4.1324,4.1046,3.9873,3.8174,3.678,3.5906,3.394,3.2723,3.2732,3.1087,2.9588,2.8442,2.7767,2.7266,2.6953,2.5469,2.4594,2.4407,2.4528,2.4495,2.4301,2.4247,2.4654,2.539,2.4344,2.4517,2.5561,2.4871,2.4962,0.0,2.6609,2.7214,2.7666,2.8443,2.8664,2.8585,2.8706,2.8621,2.8463,2.8682,2.87,2.867,2.879,2.8724,2.8628,2.8603,2.8847,2.9132,2.9056,2.9079,2.9129,2.931,2.939,2.9411,2.9411,2.933,2.9291,2.9334,2.9169,2.8993,2.8929,2.8814,2.8603,2.8342,2.821,2.8102,2.802,2.7933,2.7824,2.7719,2.7982,2.8263,2.8347,2.8889,2.9285,2.933,3.0221,3.1123,3.184,3.2104,3.2559,3.3321,3.3426,3.3569,3.3743,3.3815,3.3947,3.4148,3.4245,3.434,3.4363,3.4302,3.4279,0.0,3.6979,3.7125,3.7137,3.6653,3.6233,3.6303,3.5736,0.0,3.5287,3.5311,3.5369,3.5534,3.5482,3.5993,3.7858,3.875,3.9775,4.1447,4.2386,4.2272,4.0571,3.885,3.7439,3.6559,3.4108,3.2575,3.2597,3.0905,2.9732,2.9363,2.7904,2.6935,2.6552,2.5402,2.4645,2.4372,2.4374,2.4321,2.4247,2.3919,2.4293,2.5205,2.3997,2.4402,2.5943,2.4254,2.4492,2.6057,2.5674,2.6082,2.6994,2.7573,2.7819,2.7875,2.7931,2.7931,2.7931,2.8148,2.8246,2.8298,2.8384,2.8298,2.8129,2.8075,2.8324,2.867,2.8743,2.881,2.8881,2.8994,2.913,2.9218,2.8975,2.9044,2.9156,2.9089,2.8975,2.8797,2.8615,2.8342,2.8093,2.78,2.7701,2.7612,2.7496,2.7465,2.7465,2.7465,2.7996,2.8187,2.7591,2.8774,2.9506,2.9403,3.0523,3.1326,3.1505,3.2181,3.2687,3.2912,3.2988,3.3111,3.3243,3.3455,3.3587,3.3671,3.3868,3.3947,3.3972,3.4074,3.4124,3.4226,0.0,3.6147,3.5608,3.5382,3.5171,0.0,3.4356,3.4079,3.3542,3.391,3.4753,3.6093,3.5791,3.6297,3.9287,3.9365,3.9618,4.1303,4.1686,4.136,4.0213,3.8594,3.7224,3.635,3.3903,3.239,3.2444,3.0769,2.9173,2.7896,2.7358,2.6448,2.5057,2.4664,2.4391,2.4172,2.4057,2.3958,2.3831,2.3606,2.3907,2.4653,2.3649,2.3978,2.5279,2.4191,2.416,2.4931,2.5483,2.5675,2.5707,2.704,2.7175,2.6714,2.7302,2.7361,2.7129,2.7348,2.7396,2.7334,2.7487,2.7595,2.7642,2.7659,2.7864,2.8146,2.8414,2.8518,2.8594,2.8905,2.904,2.9085,2.9112,2.8957,2.8839,2.8929,2.8669,2.8414,2.8309,2.8045,2.7771,2.76,2.7386,2.7244,2.7198,2.7152,2.7137,2.7137,2.7306,2.7564,2.7844,2.8237,2.8716,2.9281,3.0248,3.1081,3.1619,3.2004,3.2284,3.237,3.2454,3.2603,3.283,3.3142,3.3309,3.3309,3.3473,3.3577,3.3633,3.3549,3.3577,3.3321,3.4217,3.5096,3.4352,3.4244,3.432,3.4336,3.4084,3.3849,3.3872,3.4203,3.4795,3.5774,3.6181,3.7083,3.9298,4.0234,4.1112,4.2387,4.2195,4.1449,4.0108,3.8495,3.7166,3.6272,3.3828,3.226,3.2317,3.0641,2.9008,2.7643,2.7158,2.6247,2.4819,2.4301,2.404,2.4036,2.3896,2.375,2.3656,2.3353,2.3569,2.419,2.3352,2.3476,2.4322,2.3869,2.3779,2.4062,2.4955,2.5099,2.4863,2.6243,2.6396,2.5962,2.6747,2.6891,2.6742,2.7023,2.7055,2.699,2.7021,2.7181,2.7355,2.7355,2.7557,2.7842,2.8128,2.8309,2.8458,2.8712,2.881,2.8858,2.8791,2.8767,2.8737,2.8687,2.851,2.83,2.8146,2.7847,2.76,2.7355,2.7459,2.7519,2.7452,2.7692,2.793,2.7981,2.8305,2.8545,2.8578,2.8473,2.8537,2.8926,2.9064,2.9702,3.1072,3.1502,3.1783,3.2001,3.2091,3.2249,3.2504,3.2702,3.283,3.2943,3.3024,3.3147,3.3268,3.3256,3.3286,3.3082,3.3739,3.4203,3.3337,3.331,3.3675,3.4377,3.4015,3.3798,3.4554,3.4901,3.5186,3.5518,3.6784,3.8156,3.93,4.1336,4.3061,4.3874,4.3156,4.1936,4.0252,3.8529,3.7126,3.6232,3.3731,3.2163,3.2183,3.0486,2.8942,2.7788,2.7032,2.6119,2.495,2.4053,2.3692,2.3935,2.371,2.358,2.3544,2.3207,2.331,2.3791,2.3254,2.326,2.368,2.368,2.3688,2.3768,2.4463,2.4529,2.4327,2.5353,2.5557,2.5395,2.6219,2.6503,2.6537,2.6775,2.6909,2.6942,2.6791,2.6939,2.7181,2.7166,2.7355,2.76,2.7829,2.8101,2.8327,2.8432,2.8543,2.8569,2.8335,2.851,2.8637,2.8406,2.8327,2.8228,2.8,2.773,2.7452,2.7289,2.7707,2.8015,2.7941,2.8516,2.8994,2.9104,2.9646,2.9712,2.9073,2.8682,2.8427,2.8219,2.7582,2.8089,3.0065,3.0696,3.121,3.1709,3.1802,3.1966,3.2179,3.2249,3.2352,3.2539,3.2621,3.2734,3.288,3.3037,3.3037,3.243,3.3309,3.4076,3.2707,3.2896,3.3293,3.2864,3.2691,3.2686,3.2937,3.4084,3.5493,3.7026,3.8041,3.9375,4.174,4.2952,4.3889,4.4635,4.3402,4.201,4.0882,3.8716,3.6939,3.5953,3.3478,3.1958,3.204,3.0256,2.8492,2.6974,2.6548,2.5648,2.4052,2.3682,2.354,2.3594,2.3324,2.3223,2.3265,2.3369,2.3414,2.3405,2.3796,2.4148,2.4439,2.4508,2.4713,2.4975,2.4733,2.4323,2.3968,2.4827,2.4813,2.4447,2.5657,2.6082,2.6099,2.6118,2.6486,2.6893,2.6572,2.6758,2.7103,2.7055,2.7233,2.7434,2.7478,2.7689,2.7933,2.8109,2.8246,2.8353,2.83,2.83,2.8282,2.8246,2.8063,2.7876,2.776,2.743,2.7373,2.791,2.7879,2.7938,2.8414,2.8706,2.8848,2.8848,2.8912,2.8598,2.7698,2.7541,2.7181,2.6369,2.6646,2.7438,2.8745,2.9614,3.0497,3.1355,3.1542,3.1654,3.1728,3.1984,3.2144,3.2179,3.2283,3.2386,3.242,3.2539,3.2672,3.1285,3.1824,3.2195,3.1634,3.2463,3.344,3.3619,3.3715,3.3885,3.4395,3.5439,3.6578,3.7471,3.8632,4.0285,4.2832,4.3459,4.3567,4.3353,4.2365,4.1095,3.9669,3.8131,3.666,3.5229,3.3131,3.1663,3.1216,2.9865,2.8305,2.6563,2.6254,2.5352,2.3629,2.3376,2.3283,2.3271,2.3003,2.2944,2.3045,2.3013,2.3102,2.3257,2.3194,2.3533,2.4159,2.3868,2.3962,2.4329,2.4097,2.3929,2.3902,2.4505,2.4794,2.4978,2.5963,2.6277,2.6225,2.6225,2.64,2.6607,2.6453,2.6691,2.7023,2.7007,2.712,2.7293,2.7373,2.7774,2.8119,2.7941,2.8135,2.8329,2.7953,2.7979,2.8053,2.7864,2.7864,2.7959,2.8045,2.7912,2.7877,2.8334,2.8662,2.89,2.8982,2.9521,2.9889,2.9732,2.9772,2.9599,2.9069,2.8112,2.7552,2.7617,2.703,2.728,2.8718,2.9759,3.0566,3.0988,3.1179,3.1312,3.1466,3.1671,3.1783,3.1856,3.1948,3.2055,3.2073,3.2284,3.2422,3.0462,3.0833,3.0958,3.1144,3.1991,3.3158,3.4423,3.4658,3.4945,3.6176,3.7105,3.7753,3.7832,3.9352,4.1187,4.3076,4.3623,4.3391,4.2208,4.1431,4.0301,3.8464,3.7394,3.6096,3.43,3.2709,3.1403,3.0502,2.9508,2.815,2.6363,2.6063,2.5129,2.3389,2.3126,2.302,2.302,2.2764,2.2712,2.2816,2.2767,2.2863,2.3059,2.2781,2.3003,2.3669,2.3194,2.3162,2.343,2.332,2.3373,2.3605,2.3942,2.4574,2.5414,2.62,2.6382,2.6243,2.633,2.6349,2.6332,2.6418,2.6691,2.6942,2.6975,2.7055,2.7135,2.7279,2.7885,2.842,2.7914,2.8018,2.8184,2.7863,2.7923,2.7952,2.7695,2.791,2.8198,2.8215,2.8288,2.8456,2.8686,2.9304,2.9659,2.9494,3.022,3.0692,3.0485,3.0526,3.046,3.0128,2.8804,2.8135,2.869,2.7632,2.7526,2.8918,3.0071,3.0675,3.0699,3.0878,3.1038,3.114,3.1346,3.1462,3.1521,3.1651,3.1746,3.1802,3.2001,3.2161,3.0523,3.1345,3.192,3.1984,3.1539,3.173,3.424,3.4224,3.4396,3.69,3.8038,3.8605,3.8629,4.0599,4.2257,4.238,4.3699,4.4128,4.2429,4.1456,4.0209,3.8347,3.6798,3.5138,3.3184,3.2238,3.1316,3.0365,2.932,2.7955,2.6207,2.5854,2.4916,2.3197,2.2944,2.279,2.2738,2.2596,2.2515,2.2542,2.2899,2.2934,2.275,2.3342,2.3486,2.3339,2.3379,2.3345,2.3291,2.2767,2.2573,2.2606,2.2687,2.357,2.4879,2.5867,2.6026,2.5775,2.6115,2.6154,2.6175,2.6486,2.6657,2.6775,2.6942,2.6942,2.6959,2.7007,2.7792,2.8505,2.81,2.7734,2.7693,2.8506,2.839,2.8065,2.7981,2.8388,2.8535,2.782,2.8166,2.8682,2.9081,2.9222,2.9403,2.988,3.0166,3.0309,3.0231,3.0231,2.9901,2.902,2.8688,2.8297,2.7669,2.7993,2.8361,2.8603,2.9947,3.0609,3.0443,3.0814,3.0935,3.0733,3.1072,3.123,3.123,3.144,3.1517,3.1555,3.1726,3.1819,2.9064,3.0635,3.1883,3.1422,3.1854,3.2643,3.3686,3.4915,3.6128,3.7114,3.8361,3.9331,3.9375,4.0564,4.152,4.1515,4.1952,4.187,4.0621,3.9714,3.8521,3.6752,3.5479,3.4048,3.226,3.1254,3.0277,2.9253,2.8286,2.7216,2.5922,2.5197,2.4302,2.3154,2.285,2.2712,2.2632,2.246,2.2276,2.2147,2.2329,2.2345,2.2212,2.237,2.2589,2.2766,2.2427,2.2459,2.2683,2.215,2.2244,2.28,2.3819,2.4292,2.4543,2.5655,2.5881,2.568,2.599,2.6118,2.6173,2.6382,2.6469,2.6521,2.6607,2.6607,2.6607,2.6775,2.7062,2.741,2.7687,2.7943,2.8112,2.8017,2.8151,2.8098,2.7352,2.7845,2.8252,2.7645,2.7923,2.8438,2.8919,2.9241,2.9502,2.9677,2.987,2.9881,2.9649,2.9694,2.9553,2.9029,2.9013,2.871,2.7922,2.8742,2.9291,2.9279,2.9696,3.0,3.0027,3.0258,3.0443,3.0568,3.0773,3.0935,3.1072,3.123,3.1346,3.1368,3.1538,3.1688,2.882,3.0478,3.1834,3.1603,3.2596,3.3665,3.3708,3.5318,3.6945,3.7495,3.8723,3.9708,3.9754,4.0405,4.0804,4.0559,4.0654,4.0345,3.9156,3.8233,3.7044,3.5343,3.429,3.3001,3.1219,3.0241,2.9223,2.8167,2.7273,2.634,2.5354,2.4593,2.3824,2.3012,2.2738,2.2579,2.2515,2.2321,2.2089,2.1869,2.1869,2.184,2.1797,2.1724,2.1835,2.2134,2.1724,2.1727,2.2021,2.163,2.1952,2.2801,2.443,2.4751,2.4418,2.5586,2.5791,2.5567,2.5901,2.599,2.6026,2.6189,2.626,2.626,2.6279,2.6295,2.6365,2.6453,2.6637,2.6885,2.7261,2.7668,2.7972,2.8006,2.8241,2.8287,2.7666,2.8243,2.8631,2.7811,2.8081,2.8502,2.876,2.8855,2.9002,2.9393,2.9383,2.9303,2.9182,2.9289,2.9259,2.9045,2.9091,2.8978,2.8503,2.9138,2.956,2.9653,2.9486,2.956,2.9897,3.0172,3.0359,3.0485,3.0651,3.0814,3.0895,3.1055,3.1173,3.1274,3.1423,3.1593,3.0211,3.1184,3.1913,3.2869,3.3761,3.4404,3.44,3.5173,3.64,3.8146,3.9119,3.9674,3.9674,4.0215,4.0394,3.9607,4.008,3.9978,3.8315,3.7349,3.6105,3.4314,3.3303,3.2017,3.0072,2.9229,2.8337,2.7263,2.6365,2.5454,2.4431,2.413,2.3596,2.2746,2.2515,2.2366,2.231,2.2118,2.1928,2.1797,2.1664,2.1589,2.1589,2.1589,2.1511,2.1386,2.1386,2.1371,2.1277,2.1247,2.1633,2.2456,2.4139,2.4677,2.4616,2.5622,2.5754,2.5454,2.5864,2.5807,2.5691,2.6063,2.6063,2.5917,2.599,2.6079,2.6168,2.6026,2.6574,2.7135,2.6847,2.6697,2.7021,2.8704,2.8791,2.8671,2.9234,2.9898,2.9914,2.8272,2.8584,2.8967,2.8646,2.7913,2.7844,2.9082,2.8732,2.8453,2.8826,2.9013,2.8998,2.8794,2.8794,2.892,2.9259,2.9059,2.9059,2.9473,2.9229,2.9441,3.0146,3.0651,3.0749,3.0417,3.0692,3.0831,3.0692,3.0895,3.1072,3.119,3.1402,3.1538,2.8717,3.0293,3.183,3.2117,3.3658,3.5132,3.5205,3.5984,3.6813,3.7343,3.7596,3.774,3.7807,3.7922,3.7947,3.7704,3.7848,3.7598,3.6503,3.5547,3.4519,3.3327,3.174,3.0538,3.0031,2.8489,2.7384,2.7022,2.5612,2.4601,2.4209,2.3484,2.298,2.2712,2.2841,2.2627,2.2073,2.2294,2.2421,2.2421,2.1725,2.1388,2.1388,2.1341,2.1278,2.1183,2.1183,2.1183,2.1151,2.1023,2.1405,2.2205,2.3398,2.4026,2.4319,2.5142,2.54,2.5378,2.5362,2.547,2.5616,2.5749,2.5659,2.5567,2.5738,2.5717,2.5696,2.5937,2.6049,2.6138,2.6171,2.648,2.7048,2.8099,2.8831,2.9065,2.8113,2.8506,2.8494,2.6836,2.686,2.7283,2.774,2.7849,2.8009,2.8376,2.8844,2.9082,2.8935,2.8748,2.8636,2.8636,2.8684,2.8763,2.9013,2.9013,2.9167,2.9473,2.9502,2.9547,2.9576,2.9798,2.993,3.0,3.0172,3.0401,3.0692,3.0773,3.0935,3.119,3.1329,3.1406,3.0169,3.152,3.2815,3.3531,3.4593,3.5472,3.5572,3.6091,3.6522,3.6522,3.6761,3.6756,3.6119,3.6203,3.6242,3.5925,3.5541,3.512,3.4563,3.3691,3.2761,3.1789,3.0636,2.9646,2.8909,2.7471,2.6407,2.5906,2.4558,2.3693,2.3553,2.2907,2.2542,2.2542,2.2781,2.2706,2.2242,2.244,2.2525,2.2459,2.1633,2.1375,2.1601,2.1311,2.1135,2.1119,2.1038,2.099,2.0973,2.1145,2.1684,2.2534,2.3452,2.4104,2.4551,2.5064,2.5262,2.5262,2.513,2.5262,2.5524,2.5486,2.5448,2.5378,2.5438,2.5438,2.5454,2.5642,2.568,2.568,2.5696,2.6254,2.6928,2.7408,2.8283,2.8698,2.7685,2.7865,2.7755,2.6385,2.6283,2.6519,2.6919,2.6962,2.7078,2.7561,2.8284,2.8756,2.8649,2.8545,2.8541,2.8621,2.8573,2.8621,2.8826,2.892,2.9121,2.9321,2.9518,2.9502,2.9213,2.9592,2.9798,2.987,3.0087,3.0316,3.0568,3.0692,3.0912,3.119,3.1329,3.1445,3.3068,3.3718,3.4197,3.5935,3.5929,3.5485,3.5392,3.5469,3.5562,3.5544,3.6068,3.6063,3.4521,3.4764,3.4909,3.4165,3.3345,3.2767,3.2693,3.1949,3.1023,3.0111,2.9842,2.9043,2.7259,2.633,2.5419,2.4382,2.3431,2.2842,2.2712,2.2432,2.231,2.2265,2.2557,2.2653,2.2491,2.2476,2.2345,2.2095,2.1472,2.1487,2.2061,2.1454,2.1214,2.1262,2.1003,2.0889,2.0936,2.1387,2.2165,2.3155,2.3903,2.4553,2.5146,2.524,2.524,2.5146,2.5091,2.5224,2.5339,2.5278,2.5294,2.5256,2.5146,2.5256,2.5474,2.5429,2.5577,2.5707,2.5529,2.6121,2.6772,2.6769,2.7355,2.7948,2.7818,2.7778,2.7494,2.6543,2.6358,2.6334,2.6181,2.5616,2.5599,2.6871,2.7371,2.7746,2.8231,2.8451,2.8621,2.8653,2.8477,2.8444,2.8653,2.8779,2.892,2.9075,2.9321,2.9382,2.9137,2.9798,3.0076,2.9973,3.0274,3.0443,3.0417,3.0749,3.0992,3.119,3.144,3.1614,3.093,3.1967,3.3154,3.4349,3.5069,3.5169,3.392,3.3645,3.3668,3.3668,3.3314,3.2862,3.2463,3.247,3.2437,3.2223,3.2014,3.188,3.1856,3.1059,3.0369,3.0038,2.8692,2.7612,2.7074,2.5603,2.4557,2.4312,2.3337,2.2738,2.2712,2.2432,2.2248,2.2141,2.2432,2.2312,2.1661,2.2021,2.2162,2.2096,2.1276,2.1274,2.194,2.185,2.2073,2.2531,2.1818,2.1528,2.1462,2.0898,2.153,2.2891,2.3235,2.4159,2.5339,2.5317,2.5371,2.5448,2.5123,2.5068,2.5185,2.5146,2.5123,2.5084,2.5107,2.5528,2.6054,2.607,2.651,2.6855,2.6254,2.6582,2.6965,2.6438,2.7403,2.8327,2.7834,2.7598,2.7064,2.5648,2.5346,2.5441,2.58,2.5825,2.6344,2.7901,2.7438,2.7387,2.8758,2.8717,2.8589,2.8493,2.8332,2.8284,2.8444,2.8493,2.8668,2.9075,2.9167,2.9229,2.9428,2.9563,2.9653,2.9608,2.977,3.006,3.0485,3.0651,3.0895,3.119,3.1576,3.1709,3.1654,3.2316,3.2868,3.3876,3.4173,3.4043,3.3241,3.2463,3.1883,3.1861,3.1548,3.0987,3.0098,3.022,3.03,2.9807,2.9734,2.9711,2.9641,2.9198,2.8822,2.8724,2.7789,2.6964,2.6427,2.5154,2.4128,2.358,2.2962,2.2596,2.2515,2.222,2.2032,2.1969,2.2307,2.2264,2.1746,2.1935,2.1991,2.1856,2.1059,2.1195,2.222,2.196,2.2251,2.2921,2.2357,2.2128,2.2113,2.1538,2.204,2.3215,2.3348,2.4109,2.5123,2.5139,2.5201,2.5256,2.5021,2.4966,2.5029,2.4966,2.4966,2.5005,2.4966,2.5536,2.6229,2.6229,2.6755,2.7174,2.6802,2.6952,2.7137,2.7121,2.7519,2.7684,2.6965,2.7025,2.6783,2.5178,2.5154,2.546,2.5639,2.6009,2.6666,2.7624,2.7485,2.7633,2.8656,2.8747,2.8636,2.8462,2.8429,2.8332,2.8201,2.846,2.87,2.8967,2.9183,2.9321,2.9412,2.9473,2.9518,2.9608,2.9726,2.9957,3.0359,3.0568,3.0855,3.119,3.1559,3.1709,3.2658,3.2967,3.2988,3.403,3.3685,3.3067,3.2794,3.1764,3.0683,3.0339,3.0216,2.9718,2.8175,2.8316,2.8419,2.761,2.7478,2.7415,2.73,2.7224,2.7152,2.7078,2.681,2.6318,2.5525,2.4627,2.371,2.2737,2.2542,2.2405,2.231,2.1991,2.1797,2.1768,2.2051,2.2101,2.1885,2.185,2.1645,2.1416,2.0898,2.1299,2.2534,2.217,2.2451,2.3228,2.2932,2.2795,2.2795,2.2461,2.284,2.3616,2.3747,2.421,2.4862,2.4966,2.5005,2.5005,2.4902,2.4902,2.4966,2.4902,2.4942,2.4997,2.5044,2.5645,2.6395,2.6481,2.6994,2.7458,2.7386,2.7284,2.7371,2.7952,2.7696,2.7067,2.634,2.6745,2.6792,2.528,2.5514,2.5904,2.5777,2.6243,2.6779,2.7123,2.7598,2.8007,2.8443,2.8572,2.8591,2.8479,2.8354,2.8225,2.8005,2.8411,2.87,2.8794,2.9199,2.9366,2.935,2.9412,2.9563,2.9742,2.9738,2.9913,3.0231,3.0568,3.0895,3.1213,3.1559,3.1802,3.0686,3.1795,3.316,3.4658,3.4478,3.3562,3.2101,3.1714,3.118,2.9617,2.883,2.8297,2.7886,2.7331,2.6851,2.6611,2.6508,2.6486,2.6463,2.6385,2.6327,2.6188,2.539,2.4729,2.441,2.3528,2.2815,2.2542,2.2405,2.2293,2.2237,2.1945,2.1738,2.165,2.15,2.1311,2.1069,2.0987,2.087,2.0634,2.1007,2.1584,2.2339,2.2979,2.3803,2.465,2.3842,2.3514,2.3559,2.2792,2.2932,2.3616,2.3747,2.4288,2.4966,2.5068,2.5107,2.5068,2.5005,2.4966,2.5021,2.5178,2.5139,2.5132,2.5895,2.6564,2.7206,2.7696,2.8405,2.8846,2.8155,2.7892,2.7834,2.8063,2.8015,2.7921,2.7826,2.7889,2.7687,2.6608,2.6311,2.6329,2.6667,2.657,2.6789,2.7813,2.7837,2.7967,2.8746,2.8247,2.7953,2.8207,2.7618,2.743,2.7959,2.8069,2.8314,2.8747,2.8889,2.9198,2.9637,2.9457,2.9531,2.993,2.9681,2.9842,3.0485,3.0699,3.0965,3.1312,3.1802,3.2091,3.068,3.1808,3.2967,3.4171,3.3917,3.3173,3.2428,3.1626,3.0757,2.9895,2.8732,2.7699,2.7116,2.6362,2.5771,2.5637,2.5615,2.5592,2.5484,2.5386,2.5309,2.5236,2.4676,2.4286,2.4147,2.324,2.2579,2.2405,2.222,2.2089,2.1974,2.1721,2.1509,2.1419,2.1262,2.1087,2.0844,2.0679,2.046,2.0235,2.1332,2.1971,2.2179,2.3394,2.4228,2.4735,2.4293,2.4129,2.4162,2.3421,2.3429,2.3921,2.3733,2.4076,2.4645,2.4791,2.4871,2.4926,2.4966,2.4886,2.4791,2.4886,2.4831,2.4932,2.5803,2.6566,2.7248,2.8081,2.8735,2.915,2.8955,2.8724,2.8572,2.8679,2.8709,2.8709,2.8558,2.8633,2.8503,2.757,2.7176,2.7101,2.7326,2.7579,2.7891,2.8434,2.8434,2.8528,2.8873,2.8591,2.8358,2.8189,2.8023,2.788,2.7875,2.8152,2.8493,2.8794,2.9137,2.9441,2.9697,2.9592,2.971,3.0103,2.977,2.9902,3.0443,3.0683,3.1004,3.1428,3.1802,3.2126,3.0729,3.1703,3.2537,3.3372,3.3331,3.3056,3.2803,3.1708,3.0637,3.027,2.8879,2.7437,2.653,2.5706,2.5059,2.4747,2.4707,2.464,2.4508,2.4391,2.4295,2.4222,2.4005,2.3798,2.3719,2.2986,2.2415,2.2209,2.2044,2.1882,2.1691,2.1479,2.134,2.1214,2.1087,2.0925,2.0695,2.041,2.0185,1.9935,2.1454,2.2095,2.1985,2.3524,2.4302,2.4426,2.4441,2.4457,2.4395,2.3818,2.377,2.3928,2.3538,2.3639,2.4081,2.434,2.4545,2.4742,2.4846,2.4766,2.4589,2.4655,2.4614,2.4801,2.5942,2.6583,2.7209,2.8375,2.8923,2.9183,2.9382,2.9275,2.9121,2.9075,2.9167,2.9213,2.9029,2.9045,2.8963,2.8336,2.8029,2.786,2.7953,2.8451,2.8794,2.8826,2.8889,2.8904,2.8904,2.8716,2.8498,2.8268,2.8242,2.8148,2.7989,2.8284,2.8636,2.8873,2.9275,2.9637,2.977,2.9681,2.9814,3.0231,2.9973,3.006,3.0526,3.074,3.11,3.1596,3.1839,3.2197,3.0143,3.0996,3.1826,3.2493,3.3305,3.3714,3.2805,3.2103,3.1367,3.0404,2.886,2.7401,2.6486,2.5601,2.4773,2.3985,2.3705,2.357,2.357,2.3407,2.3245,2.3172,2.2997,2.2816,2.2701,2.2466,2.2209,2.1928,2.184,2.1691,2.1448,2.134,2.1183,2.0926,2.0844,2.0711,2.0423,2.0131,1.9919,1.9741,2.1136,2.1768,2.1774,2.3319,2.4024,2.4024,2.4234,2.4302,2.4256,2.3818,2.3514,2.3326,2.2883,2.3023,2.3475,2.3756,2.4139,2.4539,2.4605,2.4589,2.463,2.4839,2.4775,2.492,2.6761,2.7121,2.7205,2.8815,2.9273,2.9259,2.9167,2.9213,2.9213,2.8951,2.9013,2.9183,2.9428,2.9045,2.87,2.8997,2.8748,2.8574,2.8732,2.8763,2.8826,2.8873,2.8904,2.8904,2.8904,2.8247,2.7938,2.8334,2.7588,2.7418,2.8301,2.8299,2.8477,2.9029,2.9121,2.9396,2.9973,2.9681,2.977,3.0375,3.0326,3.0435,3.0804,3.0918,3.1252,3.18,3.2037,3.237,3.0236,3.0875,3.155,3.1894,3.217,3.2299,3.1973,3.1341,3.0659,3.0222,2.9168,2.8093,2.7227,2.5937,2.4685,2.3755,2.3562,2.3448,2.3265,2.3126,2.3045,2.2919,2.2738,2.2569,2.2487,2.2231,2.2015,2.184,2.1661,2.1448,2.1294,2.1151,2.0942,2.0777,2.0628,2.0392,2.0025,1.9884,1.9987,2.0363,2.127,2.1914,2.2241,2.3348,2.3797,2.3683,2.3782,2.3909,2.3918,2.3062,2.2808,2.2991,2.2867,2.2977,2.3277,2.3819,2.4225,2.4539,2.4766,2.467,2.4467,2.4751,2.4901,2.5234,2.6666,2.7221,2.7698,2.9051,2.9321,2.9213,2.9321,2.9321,2.9305,2.9198,2.8982,2.8905,2.9275,2.9045,2.8779,2.8873,2.8684,2.8541,2.8795,2.8763,2.8732,2.8826,2.8951,2.8982,2.8858,2.8623,2.8514,2.851,2.8132,2.8038,2.8381,2.8444,2.8605,2.8967,2.9319,2.9649,2.9814,2.9902,3.0103,3.0443,3.0426,3.0535,3.0757,3.1196,3.1521,3.18,3.2214,3.2822,3.0332,3.0715,3.1175,3.1476,3.1549,3.1507,3.1477,3.0851,3.0262,3.0143,2.9338,2.8458,2.7592,2.6477,2.5314,2.4116,2.3631,2.3336,2.3144,2.2977,2.2868,2.2738,2.2569,2.2377,2.2248,2.2044,2.1853,2.1648,2.1464,2.1277,2.1071,2.0925,2.0761,2.0577,2.0323,2.003,1.9797,1.9654,1.9886,2.0555,2.1233,2.1847,2.2431,2.3086,2.3323,2.318,2.2858,2.3038,2.3477,2.2672,2.2491,2.2705,2.2601,2.2768,2.3147,2.359,2.3994,2.4317,2.4686,2.4564,2.4276,2.458,2.4766,2.5136,2.6436,2.7089,2.7653,2.9051,2.9321,2.9213,2.9321,2.9321,2.9213,2.9152,2.8889,2.8716,2.9045,2.8873,2.87,2.8826,2.8684,2.8589,2.8795,2.8795,2.8763,2.8826,2.8998,2.9045,2.8779,2.8795,2.8795,2.8589,2.8396,2.8396,2.8508,2.8589,2.8763,2.9075,2.9515,2.9798,2.9858,3.0304,3.0695,3.0933,3.1249,3.1375,3.1247,3.1509,3.1691,3.191,3.2651,3.3588,0.0,0.0,0.0,3.1273,3.1518,3.1537,3.1379,3.0796,3.0226,3.0106,2.9338,2.8433,2.7507,2.722,2.6598,2.5082,2.3916,2.3186,2.3119,2.2868,2.2659,2.2605,2.2405,2.218,2.1928,2.184,2.1648,2.1309,2.1277,2.1151,2.0827,2.0711,2.0559,2.0304,1.9904,1.9726,1.9762,1.945,1.9625,2.0245,2.0874,2.1574,2.2219,2.2471,2.2566,2.2517,2.1469,2.1814,2.3054,2.2708,2.2554,2.2524,2.2109,2.2419,2.3092,2.3147,2.3421,2.3882,2.4317,2.4291,2.4024,2.4374,2.4348,2.4526,2.6209,2.6733,2.7089,2.8817,2.9305,2.9259,2.9167,2.9121,2.9075,2.8967,2.8826,2.8748,2.8794,2.8604,2.8493,2.8826,2.8858,2.8732,2.8621,2.8905,2.9029,2.892,2.9013,2.8982,2.8732,2.8779,2.8715,2.8475,2.8299,2.8396,2.8778,2.87,2.8858,2.9473,2.9608,2.9858,3.0146,3.0893,3.1462,3.1807,3.2731,3.2959,3.2468,3.1931,3.1817,3.2126,3.3351,3.4634,3.0064,0.0,0.0,0.0,0.0,0.0,3.0024,2.9702,2.9466,2.9329,2.9004,2.8664,2.8323,2.7623,2.6726,2.5618,2.4701,2.3851,2.3065,2.2816,2.2632,2.2487,2.2231,2.2015,2.184,2.1631,2.1448,2.1309,2.1087,2.0876,2.0744,2.0373,2.0096,1.9869,1.9705,1.9574,1.945,1.925,1.973,2.0903,2.0986,2.1449,2.2275,2.2344,2.2135,2.1662,2.1441,2.1613,2.1974,2.1429,2.1639,2.2245,2.2484,2.2692,2.3,2.383,2.3983,2.3867,2.4385,2.4204,2.3782,2.4219,2.4472,2.4891,2.6205,2.6958,2.7625,2.8914,2.9305,2.935,2.9502,2.9396,2.9259,2.9335,2.909,2.8873,2.8998,2.8763,2.8589,2.8779,2.8732,2.8668,2.8779,2.8826,2.8795,2.8826,2.8889,2.8873,2.8668,2.8621,2.8823,2.9221,2.8737,2.8645,2.9448,2.9027,2.892,2.9305,2.9605,2.981,2.9897,3.1051,3.1774,3.1993,3.3,3.3618,3.3831,3.3737,3.3208,3.2284,3.3618,3.4888,3.0557,3.0892,3.1466,3.0828,0.0,0.0,3.001,2.9532,2.916,2.9044,2.8881,2.8712,2.8536,2.7976,2.7219,2.6242,2.5676,2.4778,2.3059,2.2642,2.247,2.226,2.2003,2.1751,2.1617,2.1402,2.1214,2.1087,2.1129,2.1067,2.0841,2.0213,1.9812,1.9669,1.9487,1.9376,1.9302,1.9324,1.9831,2.0746,2.0874,2.1262,2.1889,2.1721,2.1395,2.0971,2.0807,2.0862,2.0965,2.0401,2.0984,2.2235,2.2433,2.2703,2.3113,2.3914,2.4094,2.3994,2.4492,2.4287,2.3839,2.4276,2.4594,2.509,2.6267,2.7143,2.7966,2.9069,2.9366,2.9412,2.9563,2.9547,2.9486,2.9486,2.9335,2.9152,2.9167,2.8998,2.8826,2.8794,2.8684,2.8653,2.8873,2.8795,2.8763,2.892,2.8905,2.8763,2.8541,2.8589,2.8728,2.8984,2.8627,2.8662,2.9308,2.9028,2.8983,2.9366,2.9649,2.9983,3.0396,3.1583,3.2503,3.306,3.4075,3.4909,3.5618,3.4911,3.4481,3.4294,3.4456,3.5351,3.1429,3.129,3.1472,3.1943,3.164,0.0,3.0716,3.0016,2.9349,2.9071,2.8787,2.8506,2.8206,2.8094,2.768,2.6623,2.6486,2.5701,2.329,2.2737,2.2462,2.2161,2.1913,2.164,2.1356,2.1199,2.1023,2.0827,2.1242,2.1337,2.0955,2.0122,1.9632,1.9538,1.9265,1.9139,1.9265,1.9497,1.9789,2.0103,2.0628,2.1012,2.1186,2.0807,2.0548,2.0391,1.9907,1.9879,2.0133,1.9604,2.0524,2.2193,2.2105,2.2568,2.336,2.3752,2.3952,2.412,2.4614,2.4426,2.4024,2.4359,2.4691,2.5131,2.628,2.7136,2.791,2.9077,2.9454,2.9518,2.9518,2.9608,2.9697,2.9563,2.9531,2.9486,2.935,2.9213,2.9045,2.8842,2.8716,2.87,2.8858,2.8858,2.8842,2.9045,2.8873,2.8731,2.8552,2.8649,2.868,2.8498,2.8501,2.8616,2.8872,2.8841,2.8983,2.9473,2.9694,3.0266,3.1298,3.2359,3.3399,3.4452,3.5557,3.6509,3.7334,3.5629,3.5579,3.708,3.5466,3.5721,3.1616,3.1831,3.2038,3.0821,3.1939,0.0,3.0691,3.0513,3.0352,2.8782,2.8233,2.775,2.6736,2.6826,2.671,2.5659,2.5889,2.5806,2.4712,2.4408,2.3994,2.3152,2.2876,2.2365,2.1482,2.1262,2.1071,2.0827,2.055,2.0472,2.0594,1.9827,1.9302,1.9107,1.9116,1.9078,1.9069,1.9156,1.9537,2.0177,2.0139,2.0277,2.0563,2.0391,2.0129,1.9833,1.975,1.9827,2.0001,1.9649,2.0143,2.1182,2.1779,2.2274,2.2822,2.4143,2.4193,2.3711,2.441,2.4204,2.3739,2.4177,2.4394,2.4733,2.6342,2.6549,2.6556,2.8168,2.9099,2.9653,2.9653,2.9786,2.9874,2.983,2.9726,2.9637,2.9637,2.9366,2.9075,2.892,2.8873,2.8873,2.8904,2.8858,2.8794,2.8716,2.8668,2.8838,2.9283,2.9394,2.9596,3.0103,2.967,2.9459,2.9572,2.9122,2.8983,2.9473,2.9694,3.031,3.1386,3.2593,3.3719,3.478,3.6151,3.7108,3.754,3.6058,3.5984,3.713,3.5626,3.5266,3.1233,3.156,3.205,3.1686,3.2182,0.0,0.0,3.103,3.0325,2.9392,2.8537,2.7698,2.6943,2.6738,2.6297,2.5218,2.5859,2.6185,2.5357,2.4805,2.4262,2.3629,2.3373,2.2965,2.2178,2.1757,2.1417,2.113,2.0458,2.04,2.1072,2.0057,1.9463,1.9532,1.9252,1.9078,1.8993,1.9334,1.9556,1.9657,1.9875,1.9899,1.9862,1.99,1.976,1.9545,1.9632,1.9701,1.9794,1.9494,1.9654,2.0157,2.1277,2.1973,2.256,2.4015,2.4343,2.4135,2.4564,2.4426,2.4094,2.4317,2.459,2.508,2.6635,2.7487,2.8073,2.8952,2.9523,2.9858,2.9858,2.9902,2.9946,2.9946,3.0178,3.0348,3.0242,3.0332,3.0386,3.0101,2.9956,2.975,2.9501,2.9374,2.9294,2.9294,2.9181,2.9084,2.9084,2.928,2.957,2.9975,2.9955,2.9955,3.0072,2.9996,3.0068,3.0417,3.0865,3.1536,3.259,3.3443,3.4474,3.5732,3.6624,3.7299,3.7649,3.7122,3.7039,3.7284,3.6203,3.5658,3.0715,3.1015,3.1641,3.2383,3.2242,3.2011,0.0,0.0,0.0,2.9978,2.8975,2.7991,2.7513,2.6885,2.6141,2.5357,2.6034,2.6438,2.5631,2.5013,2.4447,2.3983,2.3779,2.3417,2.2844,2.2252,2.1878,2.1661,2.0757,2.0602,2.1639,2.0309,1.9648,1.9995,1.9411,1.9078,1.9017,1.9497,1.9522,1.9139,1.9624,1.9633,1.9302,1.9501,1.9538,1.945,1.9574,1.9574,1.956,1.9339,1.9265,1.9382,2.0696,2.1632,2.2367,2.3651,2.4302,2.4589,2.4766,2.4701,2.4498,2.4564,2.503,2.5753,2.684,2.8372,2.9794,2.9941,3.0071,3.0217,3.0347,3.0424,3.044,3.044,3.0941,3.1303,3.1059,3.1418,3.1726,3.1355,3.1058,3.072,3.0237,3.0029,2.998,3.0094,2.9897,2.9642,2.9257,2.9493,2.973,2.9847,3.0222,3.0483,3.0583,3.0842,3.1191,3.1534,3.2089,3.2879,3.3865,3.4492,3.5411,3.6655,3.6992,3.7337,3.7774,3.8138,3.7908,3.7184,3.6869,3.6352,3.0444,3.0528,3.0656,3.0685,3.1875,3.2667,3.1266,0.0,3.1221,2.9625,0.0,2.8391,2.7331,0.0,0.0,2.6303,2.6336,2.6195,2.5717,2.5967,2.5707,2.4502,2.4249,2.3791,2.2713,2.2284,2.2193,2.2531,2.1276,2.0789,2.1585,2.0049,1.9329,1.966,1.9281,1.9101,1.9101,1.9089,1.9165,1.9302,1.9211,1.9249,1.9302,1.9501,1.9632,1.9654,1.9611,1.956,1.9493,1.925,1.9101,1.9211,2.0171,2.1084,2.2043,2.3053,2.3804,2.44,2.4846,2.4782,2.458,2.491,2.5624,2.6415,2.671,2.7769,2.9075,2.9632,3.0279,3.0943,3.1605,3.1922,3.2092,3.2001,3.2204,3.236,3.2069,3.2008,3.1916,3.1582,3.1355,3.1042,3.0748,3.0494,3.0356,3.0494,3.0408,3.0593,3.1348,3.1384,3.1393,3.1482,3.1455,3.1358,3.1124,3.1027,3.1323,3.2057,3.2259,3.297,3.4286,3.548,3.6381,3.693,3.7182,3.7522,3.8068,3.8285,3.771,3.6434,3.7367,3.7107,3.026,3.033,3.0518,3.1067,3.141,3.1599,3.1487,3.1315,3.0999,3.0273,0.0,0.0,0.0,0.0,0.0,0.0,2.6522,2.6349,2.5113,2.5124,2.4944,2.4164,2.4047,2.3644,2.2521,2.2337,2.2254,2.2244,2.156,2.1355,2.1845,2.0787,2.0134,2.0118,1.9789,1.9464,1.9101,1.928,1.9354,1.9376,1.9265,1.9176,1.9176,1.9339,1.945,1.9472,1.9487,1.9523,1.9603,1.925,1.9176,1.9294,1.9558,2.0469,2.1804,2.2906,2.3758,2.4441,2.4782,2.4862,2.4869,2.5544,2.6391,2.7308,2.7753,2.8762,2.9894,3.0615,3.1068,3.1567,3.2138,3.2471,3.2623,3.2426,3.2863,3.3205,3.2927,3.3111,3.3243,3.2864,3.2628,3.2321,3.206,3.1612,3.1348,3.1482,3.1431,3.1368,3.133,3.1415,3.1557,3.1768,3.1913,3.1983,3.2029,3.2186,3.2561,3.3063,3.3722,3.4516,3.5428,3.6121,3.6748,3.7182,3.7372,3.7721,3.8204,3.846,3.8147,3.7312,3.7824,3.7561,2.9822,2.9889,3.0222,3.143,3.1279,3.1032,3.1809,3.1481,3.0983,3.0837,2.9902,0.0,0.0,0.0,2.7064,2.6591,0.0,2.6484,2.519,2.4827,2.436,2.3503,2.3406,2.3196,2.2644,2.2468,2.2289,2.2096,2.1724,2.1708,2.2047,2.1152,2.0581,2.0458,1.9979,1.9503,1.9026,1.9265,1.9339,1.928,1.9242,1.9191,1.9101,1.9325,1.931,1.9148,1.9376,1.9456,1.9435,1.914,1.9176,1.9443,1.9328,2.0264,2.1734,2.2629,2.3643,2.4661,2.4822,2.5092,2.556,2.6382,2.7163,2.7916,2.8771,2.9568,3.041,3.1533,3.1978,3.228,3.3015,3.3383,3.3473,3.3201,3.3707,3.4134,3.3806,3.4072,3.425,3.3848,3.3503,3.3203,3.2951,3.2513,3.2275,3.2306,3.2254,3.2102,3.162,3.1685,3.1836,3.2117,3.2284,3.2523,3.2873,3.3224,3.3607,3.4101,3.4991,3.5711,3.6208,3.6353,3.6698,3.7297,3.7362,3.7698,3.8354,3.8646,3.8655,3.8387,3.874,3.8616,2.8916,2.8983,2.9436,3.1111,3.1604,3.1688,3.1873,3.1872,3.1663,3.0942,3.0096,2.9433,2.9294,2.7677,2.6644,2.7587,2.7042,0.0,0.0,2.5905,2.4665,2.2607,2.2233,2.2481,2.3287,2.2727,2.2377,2.2455,2.1823,2.1586,2.1974,2.0699,2.0055,2.0288,1.9484,1.8955,1.8822,1.8822,1.8874,1.9031,1.8993,1.9055,1.9101,1.9508,1.9331,1.8743,1.9328,1.931,1.8826,1.8788,1.9101,1.9597,1.9783,2.07,2.1901,2.2017,2.3305,2.4966,2.5005,2.5648,2.6615,2.7526,2.785,2.8078,2.9241,2.9546,3.0004,3.223,3.2846,3.3223,3.4655,3.5131,3.5178,3.488,3.5038,3.5148,3.4754,3.4578,3.4349,3.3949,3.3555,3.3203,3.2951,3.2881,3.2866,3.2866,3.2687,3.2711,3.298,3.2765,3.2672,3.3011,3.2935,3.3096,3.3591,3.371,3.4151,3.5198,3.5594,3.5932,3.6301,3.5861,3.6141,3.7297,3.6986,3.7374,3.8491,3.8826,3.911,3.9383,4.0481,4.0586,2.8065,2.8473,2.9154,2.9798,3.0046,3.0279,3.0901,3.1072,3.106,3.0843,3.0569,3.0331,3.0245,2.9136,2.827,2.8445,2.7324,2.6291,0.0,2.4325,2.2824,2.1698,2.1813,2.1945,2.181,2.1996,2.1988,2.1792,2.1703,2.168,2.1746,2.1134,2.047,1.9778,1.964,1.9291,1.8669,1.8898,1.9078,1.9191,1.8804,1.86,1.8571,1.8406,1.8197,1.7985,1.8534,1.8576,1.8379,1.8677,1.8988,1.928,1.9395,2.051,2.214,2.2409,2.3502,2.4973,2.5846,2.6364,2.6909,2.8257,2.8796,2.9048,2.9914,3.0268,3.064,3.1926,3.273,3.3376,3.4275,3.4985,3.54,3.5198,3.5152,3.5135,3.4994,3.4691,3.4399,3.4101,3.3797,3.3398,3.3005,3.3058,3.315,3.3058,3.315,3.324,3.3346,3.3187,3.3134,3.3346,3.3112,3.3112,3.3555,3.3949,3.4497,3.5152,3.5639,3.6062,3.6402,3.6003,3.639,3.7667,3.7174,3.7499,3.8773,3.9017,3.9324,3.9689,4.0789,4.0838,2.7665,2.8039,2.8644,2.9049,2.9217,2.9504,3.0405,3.0651,3.071,3.0794,3.0313,2.9863,2.9814,2.8734,2.7873,2.7948,2.6933,2.5837,0.0,2.3734,2.2505,2.1399,2.1535,2.1553,2.1168,2.1369,2.1489,2.1503,2.1397,2.1469,2.1623,2.1189,2.0439,1.9405,1.9341,1.9043,1.8397,1.8517,1.8679,1.8877,1.8561,1.8238,1.7983,1.7977,1.7837,1.7545,1.8007,1.8179,1.8144,1.8846,1.9306,1.9616,2.0224,2.137,2.2678,2.2699,2.3701,2.5274,2.6606,2.7166,2.7591,2.9091,2.9716,2.9962,3.0583,3.0797,3.112,3.2202,3.2883,3.3549,3.4471,3.5121,3.552,3.54,3.5245,3.5135,3.5041,3.4739,3.4399,3.4101,3.3797,3.3503,3.3058,3.3096,3.3203,3.3058,3.3203,3.3346,3.3346,3.3309,3.3309,3.3398,3.3256,3.3293,3.3797,3.43,3.4835,3.5396,3.58,3.6191,3.6667,3.6215,3.6593,3.7881,3.7355,3.7699,3.895,3.9183,3.9502,3.9848,4.0613,4.0692]}]]